[[{"header":{"parameterUnit":"m.s-1","parameterCategory":1,"la1":31.0,"la2":29.5877,"lo1":-88.7671,"lo2":-86.6584,"dx":0.0162,"dy":0.0185,"nx":115,"ny":88,"refTime":"2023-01-06T06:00:00:Z","depth":0,"parameterNumber":2,"parameterNumberName":"U-component_of_WINDS"},"data":[0.0,0.0,0.0,0.0,0.0,0.0,0.0,0.0,0.0,0.0,0.0,0.0,0.0,0.0,0.0,0.0,0.0,0.0,0.0,0.0,0.0,0.0,0.0,0.0,0.0,0.0,0.0,0.0,0.0,0.0,0.0,0.0,0.0,0.0,0.0,0.0,0.0,0.0,0.0,0.0,0.0,0.0,0.0,0.0,0.0,0.0,0.0,0.0,0.0,0.0,0.0,0.0,0.0,0.0,0.0,0.0,0.0,0.0,0.0,0.0,0.0,0.0,0.0,0.0,0.0,0.0,0.0,0.0,0.0,0.0,0.0,0.0,0.0,0.0,0.0,0.0,0.0,0.0,0.0,0.0,0.0,0.0,0.0,0.0,0.0,0.0,0.0,0.0,0.0,0.0,0.0,0.0,0.0,0.0,0.0,0.0,0.0,0.0,0.0,0.0,0.0,0.0,0.0,0.0,0.0,0.0,0.0,0.0,0.0,0.0,0.0,0.0,0.0,0.0,0.0,0.0,0.0,0.0,0.0,0.0,0.0,0.0,0.0,0.0,0.0,0.0,0.0,0.0,0.0,0.0,0.0,0.0,0.0,0.0,0.0,0.0,0.0,0.0,0.0,0.0,0.0,0.0,0.0,0.0,0.0,0.0,0.0,0.0,0.0,0.0,0.0,0.0,0.0,0.0,0.0,0.0,0.0,0.0,0.0,0.0,0.0,0.0,0.0,0.0,0.0,0.0,0.0,0.0,0.0,0.0,0.0,0.0,0.0,0.0,0.0,0.0,0.0,0.0,0.0,0.0,0.0,0.0,0.0,0.0,0.0,0.0,0.0,0.0,0.0,0.0,0.0,0.0,0.0,0.0,0.0,0.0,0.0,0.0,0.0,0.0,0.0,0.0,0.0,0.0,0.0,0.0,0.0,0.0,0.0,0.0,0.0,0.0,0.0,0.0,0.0,0.0,0.0,0.0,0.0,0.0,0.0,0.0,0.0,0.0,0.0,0.0,0.0,0.0,0.0,0.0,0.0,0.0,0.0,0.0,0.0,0.0,0.0,0.0,0.0,0.0,0.0,0.0,0.0,0.0,0.0,0.0,0.0,0.0,0.0,0.0,0.0,0.0,0.0,0.0,0.0,0.0,0.0,0.0,0.0,0.0,0.0,0.0,0.0,0.0,0.0,0.0,0.0,0.0,0.0,0.0,0.0,0.0,0.0,0.0,0.0,0.0,0.0,0.0,0.0,0.0,0.0,0.0,0.0,0.0,0.0,0.0,0.0,0.0,0.0,0.0,0.0,0.0,0.0,0.0,0.0,0.0,0.0,0.0,0.0,0.0,0.0,0.0,0.0,0.0,0.0,0.0,0.0,0.0,0.0,0.0,0.0,0.0,0.0,0.0,0.0,0.0,0.0,0.0,0.0,0.0,0.0,0.0,0.0,0.0,0.0,0.0,0.0,0.0,0.0,0.0,0.0,0.0,0.0,0.0,0.0,0.0,0.0,0.0,0.0,0.0,0.0,0.0,0.0,0.0,0.0,0.0,0.0,0.0,0.0,0.0,0.0,0.0,0.0,0.0,0.0,0.0,0.0,0.0,0.0,0.0,0.0,0.0,0.0,0.0,0.0,0.0,0.0,0.0,0.0,0.0,0.0,0.0,0.0,0.0,0.0,0.0,0.0,0.0,0.0,0.0,0.0,0.0,0.0,0.0,0.0,0.0,0.0,0.0,0.0,0.0,0.0,0.0,0.0,0.0,0.0,0.0,0.0,0.0,0.0,0.0,0.0,0.0,0.0,0.0,0.0,0.0,0.0,0.0,0.0,0.0,0.0,0.0,0.0,0.0,0.0,0.0,0.0,0.0,0.0,0.0,0.0,0.0,0.0,0.0,0.0,0.0,0.0,0.0,0.0,0.0,0.0,0.0,0.0,0.0,0.0,0.0,0.0,0.0,0.0,0.0,0.0,0.0,0.0,0.0,0.0,0.0,0.0,0.0,0.0,0.0,0.0,0.0,0.0,0.0,0.0,0.0,0.0,0.0,0.0,0.0,0.0,0.0,0.0,0.0,0.0,0.0,0.0,0.0,0.0,0.0,0.0,0.0,0.0,0.0,0.0,0.0,0.0,0.0,0.0,0.0,0.0,0.0,0.0,0.0,0.0,0.0,0.0,0.0,0.0,0.0,0.0,0.0,0.0,0.0,0.0,0.0,0.0,0.0,0.0,0.0,0.0,0.0,0.0,0.0,0.0,0.0,0.0,0.0,0.0,0.0,0.0,0.0,0.0,0.0,0.0,0.0,0.0,0.0,0.0,0.0,0.0,0.0,0.0,0.0,0.0,0.0,0.0,0.0,0.0,0.0,0.0,0.0,0.0,0.0,0.0,0.0,0.0,0.0,0.0,0.0,0.0,0.0,0.0,0.0,0.0,0.0,0.0,0.0,0.0,0.0,0.0,0.0,0.0,0.0,0.0,0.0,0.0,0.0,0.0,0.0,0.0,0.0,0.0,0.0,0.0,0.0,0.0,0.0,0.0,0.0,0.0,0.0,0.0,0.0,0.0,0.0,0.0,0.0,0.0,0.0,0.0,0.0,0.0,0.0,0.0,0.0,0.0,0.0,0.0,0.0,0.0,0.0,0.0,0.0,0.0,0.0,0.0,0.0,0.0,0.0,0.0,0.0,0.0,0.0,0.0,0.0,0.0,0.0,0.0,0.0,0.0,0.0,0.0,0.0,0.0,0.0,0.0,0.0,0.0,0.0,0.0,0.0,0.0,0.0,0.0,0.0,0.0,0.0,0.0,0.0,0.0,0.0,0.0,0.0,0.0,0.0,0.0,0.0,0.0,0.0,0.0,0.0,0.0,0.0,0.0,0.0,0.0,0.0,0.0,0.0,0.0,0.0,0.0,0.0,0.0,0.0,0.0,0.0,0.0,0.0,0.0,0.0,0.0,0.0,0.0,0.0,0.0,0.0,0.0,0.0,0.0,0.0,0.0,0.0,0.0,0.0,0.0,0.0,0.0,0.0,0.0,0.0,0.0,0.0,0.0,0.0,0.0,0.0,0.0,0.0,0.0,0.0,0.0,0.0,0.0,0.0,0.0,0.0,0.0,0.0,0.0,0.0,0.0,0.0,0.0,0.0,0.0,0.0,0.0,0.0,0.0,0.0,0.0,0.0,0.0,0.0,0.0,0.0,0.0,0.0,0.0,0.0,0.0,0.0,0.0,0.0,0.0,0.0,0.0,0.0,0.0,0.0,0.0,0.0,0.0,0.0,0.0,0.0,0.0,0.0,0.0,0.0,0.0,0.0,0.0,0.0,0.0,0.0,0.0,0.0,0.0,0.0,0.0,0.0,0.0,0.0,0.0,0.0,0.0,0.0,0.0,0.0,0.0,0.0,0.0,0.0,0.0,0.0,0.0,0.0,0.0,0.0,0.0,0.0,0.0,0.0,0.0,0.0,0.0,0.0,0.0,0.0,0.0,0.0,0.0,0.0,0.0,0.0,0.0,0.0,0.0,0.0,0.0,0.0,0.0,0.0,0.0,0.0,0.0,0.0,0.0,0.0,0.0,0.0,0.0,0.0,0.0,0.0,0.0,0.0,0.0,0.0,0.0,0.0,0.0,0.0,0.0,0.0,0.0,0.0,0.0,0.0,0.0,0.0,0.0,0.0,0.0,0.0,0.0,0.0,0.0,0.0,0.0,0.0,0.0,0.0,0.0,0.0,0.0,0.0,0.0,0.0,0.0,0.0,0.0,0.0,0.0,0.0,0.0,0.0,0.0,0.0,0.0,0.0,0.0,0.0,0.0,0.0,0.0,0.0,0.0,0.0,0.0,0.0,0.0,0.0,0.0,0.0,0.0,0.0,0.0,0.0,0.0,0.0,0.0,0.0,0.0,0.0,0.0,0.0,0.0,0.0,0.0,0.0,0.0,0.0,0.0,0.0,0.0,0.0,0.0,0.0,0.0,0.0,0.0,0.0,0.0,0.0,0.0,0.0,0.0,0.0,0.0,0.0,0.0,0.0,0.0,0.0,0.0,0.0,0.0,0.0,0.0,0.0,0.0,0.0,0.0,0.0,0.0,0.0,0.0,0.0,0.0,0.0,0.0,0.0,0.0,0.0,0.0,0.0,0.0,0.0,0.0,0.0,0.0,0.0,0.0,0.0,0.0,0.0,0.0,0.0,0.0,0.0,0.0,0.0,0.0,0.0,0.0,0.0,0.0,0.0,0.0,0.0,0.0,0.0,0.0,0.0,0.0,0.0,0.0,0.0,-1.8792,0.0,0.0,0.0,-1.978,0.0,0.0,0.0,0.0,0.0,0.0,0.0,0.0,0.0,0.0,0.0,0.0,0.0,0.0,0.0,0.0,0.0,0.0,0.0,0.0,0.0,0.0,0.0,0.0,0.0,0.0,0.0,0.0,0.0,0.0,0.0,0.0,0.0,0.0,0.0,0.0,0.0,0.0,0.0,0.0,0.0,0.0,0.0,0.0,0.0,0.0,0.0,0.0,0.0,0.0,0.0,0.0,0.0,0.0,0.0,0.0,0.0,0.0,0.0,0.0,0.0,0.0,0.0,0.0,0.0,0.0,0.0,0.0,0.0,0.0,0.0,0.0,0.0,0.0,0.0,0.0,0.0,0.0,0.0,0.0,0.0,0.0,0.0,0.0,0.0,0.0,0.0,0.0,0.0,0.0,0.0,0.0,0.0,0.0,0.0,0.0,0.0,0.0,0.0,0.0,0.0,0.0,0.0,0.0,0.0,0.0,0.0,0.0,0.0,0.0,-1.8238,-1.89,-1.8878,-1.8986,-1.9251,0.0,0.0,0.0,0.0,0.0,0.0,0.0,0.0,0.0,0.0,0.0,0.0,0.0,0.0,0.0,0.0,0.0,0.0,0.0,0.0,0.0,0.0,0.0,0.0,0.0,0.0,0.0,0.0,0.0,0.0,0.0,0.0,0.0,0.0,0.0,0.0,0.0,0.0,0.0,0.0,0.0,0.0,0.0,0.0,0.0,0.0,0.0,0.0,0.0,0.0,0.0,0.0,0.0,0.0,0.0,0.0,0.0,0.0,0.0,0.0,0.0,0.0,0.0,0.0,0.0,0.0,0.0,0.0,0.0,0.0,0.0,0.0,0.0,0.0,0.0,0.0,0.0,0.0,0.0,0.0,0.0,0.0,0.0,0.0,0.0,0.0,0.0,0.0,0.0,0.0,0.0,0.0,0.0,0.0,0.0,0.0,0.0,0.0,0.0,0.0,0.0,0.0,0.0,0.0,0.0,0.0,0.0,0.0,0.0,0.0,0.0,0.0,-1.8529,-1.876,-1.8639,0.0,0.0,0.0,0.0,0.0,0.0,0.0,0.0,0.0,0.0,0.0,0.0,0.0,0.0,0.0,0.0,0.0,0.0,0.0,0.0,0.0,0.0,0.0,0.0,0.0,0.0,0.0,0.0,0.0,0.0,0.0,0.0,0.0,0.0,0.0,0.0,0.0,0.0,0.0,0.0,0.0,0.0,0.0,0.0,0.0,0.0,0.0,0.0,0.0,0.0,0.0,0.0,0.0,0.0,0.0,0.0,0.0,0.0,0.0,0.0,0.0,0.0,0.0,0.0,0.0,0.0,0.0,0.0,0.0,0.0,0.0,0.0,0.0,0.0,0.0,0.0,0.0,0.0,0.0,0.0,0.0,0.0,0.0,0.0,0.0,0.0,0.0,0.0,0.0,0.0,0.0,0.0,0.0,0.0,0.0,0.0,0.0,0.0,0.0,0.0,0.0,0.0,0.0,0.0,0.0,0.0,0.0,0.0,0.0,0.0,-1.7379,-1.8751,-1.8816,0.0,-1.8435,0.0,0.0,0.0,0.0,0.0,0.0,0.0,0.0,0.0,0.0,0.0,0.0,0.0,0.0,0.0,0.0,0.0,0.0,0.0,0.0,0.0,0.0,0.0,0.0,0.0,0.0,0.0,0.0,0.0,0.0,0.0,0.0,0.0,0.0,0.0,0.0,0.0,0.0,0.0,0.0,0.0,0.0,0.0,0.0,0.0,0.0,0.0,0.0,0.0,0.0,0.0,0.0,0.0,0.0,0.0,0.0,0.0,0.0,0.0,0.0,0.0,0.0,0.0,0.0,0.0,0.0,0.0,0.0,0.0,0.0,0.0,0.0,0.0,0.0,0.0,0.0,0.0,0.0,0.0,0.0,0.0,0.0,0.0,0.0,0.0,0.0,0.0,0.0,0.0,0.0,0.0,0.0,0.0,0.0,0.0,0.0,0.0,0.0,0.0,0.0,0.0,0.0,0.0,0.0,0.0,0.0,0.0,0.0,0.0,0.0,-1.7688,-1.8762,-1.9053,-1.8915,0.0,0.0,0.0,0.0,0.0,0.0,0.0,0.0,0.0,0.0,0.0,0.0,0.0,0.0,0.0,0.0,0.0,0.0,0.0,0.0,0.0,0.0,0.0,0.0,0.0,0.0,0.0,0.0,0.0,0.0,0.0,0.0,0.0,0.0,0.0,0.0,0.0,0.0,0.0,0.0,0.0,0.0,0.0,0.0,0.0,0.0,0.0,0.0,0.0,0.0,0.0,0.0,0.0,0.0,0.0,0.0,0.0,0.0,0.0,0.0,0.0,0.0,0.0,0.0,0.0,0.0,0.0,0.0,0.0,0.0,0.0,0.0,0.0,0.0,0.0,0.0,0.0,0.0,0.0,0.0,0.0,0.0,0.0,0.0,0.0,0.0,0.0,0.0,0.0,0.0,0.0,0.0,0.0,0.0,0.0,0.0,0.0,0.0,0.0,0.0,0.0,0.0,0.0,0.0,0.0,0.0,0.0,0.0,0.0,0.0,-1.6739,-1.7693,-1.8576,-1.8965,-1.8706,-1.7817,0.0,0.0,0.0,0.0,0.0,0.0,0.0,0.0,0.0,0.0,0.0,0.0,0.0,0.0,0.0,0.0,0.0,0.0,0.0,0.0,0.0,0.0,0.0,0.0,0.0,0.0,0.0,0.0,0.0,0.0,0.0,0.0,0.0,0.0,0.0,0.0,0.0,0.0,0.0,0.0,0.0,0.0,0.0,0.0,0.0,0.0,0.0,0.0,0.0,0.0,0.0,0.0,0.0,0.0,0.0,0.0,0.0,0.0,0.0,0.0,0.0,0.0,0.0,0.0,0.0,0.0,0.0,0.0,0.0,0.0,0.0,0.0,0.0,0.0,0.0,0.0,0.0,0.0,0.0,0.0,0.0,0.0,0.0,0.0,0.0,0.0,0.0,0.0,0.0,0.0,0.0,0.0,0.0,0.0,0.0,0.0,0.0,0.0,0.0,0.0,0.0,0.0,0.0,0.0,0.0,0.0,0.0,0.0,-1.6384,-1.6469,-1.7108,-1.8398,-1.8312,-1.7859,0.0,0.0,0.0,0.0,0.0,0.0,0.0,0.0,0.0,0.0,0.0,0.0,0.0,0.0,0.0,0.0,0.0,0.0,0.0,0.0,0.0,0.0,0.0,0.0,0.0,0.0,0.0,0.0,0.0,0.0,0.0,0.0,0.0,0.0,0.0,0.0,0.0,0.0,0.0,0.0,0.0,0.0,0.0,0.0,0.0,0.0,0.0,0.0,0.0,0.0,0.0,0.0,0.0,0.0,0.0,0.0,0.0,0.0,0.0,0.0,0.0,0.0,0.0,0.0,0.0,0.0,0.0,0.0,0.0,0.0,0.0,0.0,0.0,0.0,0.0,0.0,0.0,0.0,0.0,0.0,0.0,0.0,0.0,0.0,0.0,0.0,0.0,0.0,0.0,0.0,0.0,0.0,0.0,0.0,0.0,0.0,0.0,0.0,0.0,0.0,0.0,0.0,0.0,0.0,0.0,0.0,0.0,0.0,0.0,-1.6397,-1.7717,-1.855,-1.8892,-1.8327,-1.761,0.0,0.0,0.0,0.0,0.0,0.0,0.0,0.0,0.0,0.0,0.0,0.0,0.0,0.0,0.0,0.0,0.0,0.0,0.0,0.0,0.0,0.0,0.0,0.0,0.0,0.0,0.0,0.0,0.0,0.0,0.0,0.0,0.0,0.0,0.0,0.0,0.0,0.0,0.0,0.0,0.0,0.0,0.0,0.0,0.0,0.0,0.0,0.0,0.0,0.0,0.0,0.0,0.0,0.0,0.0,0.0,0.0,0.0,0.0,0.0,0.0,0.0,0.0,0.0,0.0,0.0,0.0,0.0,0.0,0.0,0.0,0.0,0.0,0.0,0.0,0.0,0.0,0.0,0.0,0.0,0.0,0.0,0.0,0.0,0.0,0.0,0.0,0.0,0.0,0.0,0.0,0.0,0.0,0.0,0.0,0.0,0.0,0.0,0.0,0.0,0.0,0.0,0.0,0.0,0.0,0.0,0.0,0.0,0.0,-1.6658,-1.8463,-1.9342,-1.9161,-1.8552,-1.7591,0.0,0.0,0.0,0.0,0.0,0.0,0.0,0.0,0.0,0.0,0.0,0.0,0.0,0.0,0.0,0.0,0.0,0.0,0.0,0.0,0.0,0.0,0.0,0.0,0.0,0.0,0.0,0.0,0.0,0.0,0.0,0.0,0.0,0.0,0.0,0.0,0.0,0.0,0.0,0.0,0.0,0.0,0.0,0.0,0.0,0.0,0.0,0.0,0.0,0.0,0.0,0.0,0.0,0.0,0.0,0.0,0.0,0.0,0.0,0.0,0.0,0.0,0.0,0.0,0.0,0.0,0.0,0.0,0.0,0.0,0.0,0.0,0.0,0.0,0.0,0.0,0.0,0.0,0.0,0.0,0.0,0.0,0.0,0.0,0.0,0.0,0.0,0.0,0.0,0.0,0.0,0.0,0.0,0.0,0.0,0.0,0.0,0.0,0.0,0.0,0.0,0.0,0.0,0.0,0.0,0.0,0.0,0.0,-1.5172,-1.7197,-1.8637,-1.935,-1.9149,-1.8981,-1.7828,0.0,0.0,0.0,0.0,0.0,0.0,0.0,0.0,0.0,0.0,0.0,0.0,0.0,0.0,0.0,0.0,0.0,0.0,0.0,0.0,0.0,0.0,0.0,0.0,0.0,0.0,0.0,0.0,0.0,0.0,0.0,0.0,0.0,0.0,0.0,0.0,0.0,0.0,0.0,0.0,0.0,0.0,0.0,0.0,0.0,0.0,0.0,0.0,0.0,0.0,0.0,0.0,0.0,0.0,0.0,0.0,0.0,0.0,0.0,0.0,0.0,0.0,0.0,0.0,0.0,0.0,0.0,0.0,0.0,0.0,0.0,0.0,0.0,0.0,0.0,0.0,0.0,0.0,0.0,0.0,0.0,0.0,0.0,0.0,0.0,0.0,0.0,0.0,0.0,0.0,0.0,0.0,0.0,0.0,0.0,0.0,0.0,0.0,0.0,0.0,0.0,0.0,0.0,0.0,0.0,0.0,0.0,0.0,0.0,-1.8676,-2.0062,-2.0702,-2.0585,-1.9456,-1.8005,0.0,0.0,0.0,0.0,0.0,0.0,0.0,0.0,0.0,0.0,0.0,0.0,0.0,0.0,0.0,0.0,0.0,0.0,0.0,0.0,0.0,0.0,0.0,0.0,0.0,0.0,0.0,0.0,0.0,0.0,0.0,0.0,0.0,0.0,0.0,0.0,0.0,0.0,0.0,0.0,0.0,0.0,0.0,0.0,0.0,0.0,0.0,0.0,0.0,0.0,0.0,0.0,0.0,0.0,0.0,0.0,0.0,0.0,0.0,0.0,0.0,0.0,0.0,0.0,0.0,0.0,0.0,0.0,0.0,0.0,0.0,0.0,0.0,0.0,0.0,0.0,0.0,0.0,0.0,0.0,0.0,0.0,0.0,0.0,0.0,0.0,0.0,0.0,0.0,0.0,0.0,0.0,0.0,0.0,0.0,0.0,0.0,0.0,0.0,0.0,0.0,0.0,0.0,0.0,0.0,0.0,0.0,0.0,0.0,-2.1369,-2.2228,-2.2576,-2.2457,-2.1137,-1.9454,-1.7364,0.0,0.0,0.0,0.0,0.0,0.0,0.0,0.0,0.0,0.0,0.0,0.0,0.0,0.0,0.0,0.0,0.0,0.0,0.0,0.0,0.0,0.0,0.0,0.0,0.0,0.0,0.0,0.0,0.0,0.0,0.0,0.0,0.0,0.0,0.0,0.0,0.0,0.0,0.0,0.0,0.0,0.0,0.0,0.0,0.0,0.0,0.0,0.0,0.0,0.0,0.0,0.0,0.0,0.0,0.0,0.0,0.0,0.0,0.0,0.0,0.0,0.0,0.0,0.0,0.0,0.0,0.0,0.0,0.0,0.0,0.0,0.0,0.0,0.0,0.0,0.0,0.0,0.0,0.0,0.0,0.0,0.0,0.0,0.0,0.0,0.0,0.0,0.0,0.0,0.0,0.0,0.0,0.0,0.0,0.0,0.0,0.0,0.0,0.0,0.0,0.0,0.0,0.0,0.0,0.0,0.0,0.0,0.0,-2.4989,-2.5009,-2.4874,-2.4554,-2.3685,-2.1819,0.0,0.0,0.0,0.0,0.0,0.0,0.0,0.0,0.0,0.0,0.0,0.0,0.0,0.0,0.0,0.0,0.0,0.0,0.0,0.0,0.0,0.0,0.0,0.0,0.0,0.0,0.0,0.0,0.0,0.0,0.0,0.0,0.0,0.0,0.0,0.0,0.0,0.0,0.0,0.0,0.0,0.0,0.0,0.0,0.0,0.0,0.0,0.0,0.0,0.0,0.0,0.0,0.0,0.0,0.0,0.0,0.0,0.0,0.0,0.0,0.0,0.0,0.0,0.0,0.0,0.0,0.0,0.0,0.0,0.0,0.0,0.0,0.0,0.0,0.0,0.0,0.0,0.0,0.0,0.0,0.0,0.0,0.0,0.0,0.0,0.0,0.0,0.0,0.0,0.0,0.0,0.0,0.0,0.0,0.0,0.0,0.0,0.0,0.0,0.0,0.0,0.0,0.0,0.0,0.0,0.0,0.0,0.0,0.0,-2.637,-2.7861,-2.799,-2.6703,-2.4863,-2.2715,0.0,0.0,0.0,0.0,0.0,0.0,0.0,0.0,0.0,0.0,0.0,0.0,0.0,0.0,0.0,0.0,0.0,0.0,0.0,0.0,0.0,0.0,0.0,0.0,0.0,0.0,0.0,0.0,0.0,0.0,0.0,0.0,0.0,0.0,0.0,0.0,0.0,0.0,0.0,0.0,0.0,0.0,0.0,0.0,0.0,0.0,0.0,0.0,0.0,0.0,0.0,0.0,0.0,0.0,0.0,0.0,0.0,0.0,0.0,0.0,0.0,0.0,0.0,0.0,0.0,0.0,0.0,0.0,0.0,0.0,0.0,0.0,0.0,0.0,0.0,0.0,0.0,0.0,0.0,0.0,0.0,0.0,0.0,0.0,0.0,0.0,0.0,0.0,0.0,0.0,0.0,0.0,0.0,0.0,0.0,0.0,0.0,0.0,0.0,0.0,0.0,0.0,0.0,0.0,0.0,0.0,0.0,0.0,-2.5038,-2.7811,-2.9176,-2.9654,-2.9223,-2.6794,-2.4298,0.0,0.0,0.0,0.0,0.0,0.0,0.0,0.0,0.0,0.0,0.0,0.0,0.0,0.0,0.0,0.0,0.0,0.0,0.0,0.0,0.0,0.0,0.0,0.0,0.0,0.0,0.0,0.0,0.0,0.0,0.0,0.0,0.0,0.0,0.0,0.0,0.0,0.0,0.0,0.0,0.0,0.0,0.0,0.0,0.0,0.0,0.0,0.0,0.0,0.0,0.0,0.0,0.0,0.0,0.0,0.0,0.0,0.0,0.0,0.0,0.0,0.0,0.0,0.0,0.0,0.0,0.0,0.0,0.0,0.0,0.0,0.0,0.0,0.0,0.0,0.0,0.0,0.0,0.0,0.0,0.0,0.0,0.0,0.0,0.0,0.0,0.0,0.0,0.0,0.0,0.0,0.0,0.0,0.0,0.0,0.0,0.0,0.0,0.0,0.0,0.0,0.0,0.0,0.0,0.0,0.0,0.0,0.0,-2.6606,-2.9293,-2.9823,-3.0549,-3.1508,-2.8865,-2.6043,0.0,0.0,0.0,0.0,0.0,0.0,0.0,0.0,0.0,0.0,0.0,0.0,0.0,0.0,0.0,0.0,0.0,0.0,0.0,0.0,0.0,0.0,0.0,0.0,0.0,0.0,0.0,0.0,0.0,0.0,0.0,0.0,0.0,0.0,0.0,0.0,0.0,0.0,0.0,0.0,0.0,0.0,0.0,0.0,0.0,0.0,0.0,0.0,0.0,0.0,0.0,0.0,0.0,0.0,0.0,0.0,0.0,0.0,0.0,0.0,0.0,0.0,0.0,0.0,0.0,0.0,0.0,0.0,0.0,0.0,0.0,0.0,0.0,0.0,0.0,0.0,0.0,0.0,0.0,0.0,0.0,0.0,0.0,0.0,0.0,0.0,0.0,0.0,0.0,0.0,0.0,0.0,0.0,0.0,0.0,0.0,0.0,0.0,0.0,0.0,0.0,0.0,0.0,0.0,0.0,0.0,0.0,0.0,-2.8799,-3.1178,-3.1982,-3.2181,-3.1748,-2.8865,-2.6471,0.0,0.0,0.0,0.0,0.0,0.0,0.0,0.0,0.0,0.0,0.0,0.0,0.0,0.0,0.0,0.0,0.0,0.0,0.0,0.0,0.0,0.0,0.0,0.0,0.0,0.0,0.0,0.0,0.0,0.0,0.0,0.0,0.0,0.0,0.0,0.0,0.0,0.0,0.0,0.0,0.0,0.0,0.0,0.0,0.0,0.0,0.0,0.0,-1.3542,0.0,0.0,0.0,0.0,0.0,0.0,0.0,0.0,0.0,0.0,0.0,0.0,0.0,0.0,0.0,0.0,0.0,0.0,0.0,0.0,0.0,0.0,0.0,0.0,0.0,0.0,0.0,0.0,0.0,0.0,0.0,0.0,0.0,0.0,0.0,0.0,0.0,0.0,0.0,0.0,0.0,0.0,0.0,0.0,0.0,0.0,0.0,0.0,0.0,0.0,0.0,0.0,0.0,0.0,0.0,0.0,0.0,0.0,0.0,-3.0092,-3.2425,-3.2879,-3.2977,-3.2669,-3.0497,-2.7992,0.0,0.0,0.0,0.0,0.0,0.0,0.0,0.0,0.0,0.0,0.0,0.0,0.0,0.0,0.0,0.0,0.0,0.0,0.0,0.0,0.0,0.0,0.0,0.0,0.0,0.0,0.0,0.0,0.0,0.0,0.0,0.0,0.0,0.0,0.0,0.0,0.0,0.0,0.0,0.0,0.0,0.0,0.0,0.0,0.0,0.0,0.0,0.0,0.0,0.0,0.0,0.0,0.0,0.0,0.0,0.0,0.0,0.0,0.0,0.0,0.0,0.0,0.0,0.0,0.0,0.0,0.0,0.0,0.0,0.0,0.0,0.0,0.0,0.0,0.0,0.0,0.0,0.0,0.0,0.0,0.0,0.0,0.0,0.0,0.0,0.0,0.0,0.0,0.0,0.0,0.0,0.0,0.0,0.0,0.0,0.0,0.0,0.0,0.0,0.0,0.0,0.0,0.0,0.0,0.0,0.0,0.0,-2.8389,-3.1066,-3.341,-3.3475,-3.3573,-3.3802,-3.2481,-2.9798,-2.5607,0.0,0.0,0.0,0.0,0.0,0.0,0.0,0.0,0.0,0.0,0.0,0.0,0.0,0.0,0.0,0.0,0.0,0.0,0.0,0.0,0.0,0.0,0.0,0.0,0.0,0.0,0.0,0.0,0.0,0.0,0.0,0.0,0.0,0.0,0.0,0.0,0.0,0.0,-1.2295,-1.3391,0.0,0.0,0.0,0.0,0.0,0.0,0.0,0.0,-1.4296,0.0,0.0,0.0,0.0,0.0,0.0,0.0,0.0,0.0,0.0,0.0,0.0,0.0,0.0,0.0,0.0,0.0,0.0,0.0,0.0,0.0,0.0,0.0,0.0,0.0,0.0,0.0,0.0,0.0,0.0,0.0,0.0,0.0,0.0,0.0,0.0,0.0,0.0,0.0,0.0,0.0,0.0,0.0,0.0,0.0,0.0,0.0,0.0,0.0,0.0,0.0,0.0,0.0,0.0,0.0,0.0,-2.6538,-2.9808,-3.2541,-3.4561,-3.4835,-3.462,-3.3989,-3.3006,-3.0779,-2.7066,0.0,0.0,0.0,0.0,0.0,0.0,0.0,0.0,0.0,0.0,0.0,0.0,0.0,0.0,0.0,0.0,0.0,0.0,0.0,0.0,0.0,0.0,0.0,0.0,0.0,0.0,0.0,0.0,0.0,0.0,0.0,0.0,0.0,0.0,0.0,0.0,0.0,0.0,0.0,-1.532,-1.5694,0.0,0.0,0.0,0.0,0.0,0.0,0.0,0.0,-1.5919,0.0,0.0,0.0,0.0,0.0,0.0,0.0,0.0,0.0,0.0,0.0,0.0,0.0,0.0,0.0,0.0,0.0,0.0,0.0,0.0,0.0,0.0,0.0,0.0,0.0,0.0,0.0,0.0,0.0,0.0,0.0,0.0,0.0,0.0,0.0,0.0,0.0,0.0,0.0,0.0,0.0,0.0,0.0,0.0,0.0,0.0,0.0,0.0,0.0,0.0,0.0,0.0,0.0,0.0,0.0,-2.7426,-3.1234,-3.3915,-3.5335,-3.5346,-3.5031,-3.4469,-3.3321,-3.1011,0.0,0.0,0.0,0.0,0.0,0.0,0.0,0.0,0.0,0.0,0.0,0.0,0.0,0.0,0.0,0.0,0.0,0.0,0.0,0.0,0.0,0.0,0.0,0.0,0.0,0.0,0.0,0.0,0.0,0.0,0.0,0.0,0.0,0.0,0.0,0.0,0.0,0.0,0.0,0.0,-1.6563,-1.7146,-1.8102,0.0,0.0,0.0,0.0,0.0,0.0,-1.7478,-1.6768,0.0,0.0,0.0,0.0,0.0,0.0,0.0,0.0,0.0,0.0,0.0,0.0,0.0,0.0,0.0,0.0,0.0,0.0,0.0,0.0,0.0,0.0,0.0,0.0,0.0,0.0,0.0,0.0,0.0,0.0,0.0,0.0,0.0,0.0,0.0,0.0,0.0,0.0,0.0,0.0,0.0,0.0,0.0,0.0,0.0,0.0,0.0,0.0,0.0,0.0,0.0,0.0,0.0,0.0,0.0,-2.8252,-3.2301,-3.4894,-3.5843,-3.5509,-3.5158,-3.489,-3.3176,-3.0696,0.0,0.0,0.0,0.0,0.0,0.0,0.0,0.0,0.0,0.0,0.0,0.0,0.0,0.0,0.0,0.0,0.0,0.0,0.0,0.0,0.0,0.0,0.0,0.0,0.0,0.0,0.0,0.0,0.0,0.0,0.0,0.0,0.0,0.0,0.0,0.0,0.0,0.0,0.0,0.0,0.0,-1.8403,-1.969,-1.8296,0.0,0.0,0.0,0.0,-1.8731,-1.8599,0.0,0.0,0.0,0.0,0.0,0.0,0.0,0.0,0.0,0.0,0.0,0.0,0.0,0.0,0.0,0.0,0.0,0.0,0.0,0.0,0.0,0.0,0.0,0.0,0.0,0.0,0.0,0.0,0.0,0.0,0.0,0.0,0.0,0.0,0.0,0.0,0.0,0.0,0.0,0.0,0.0,0.0,0.0,0.0,0.0,0.0,0.0,0.0,0.0,0.0,0.0,0.0,0.0,0.0,0.0,0.0,-2.9026,-3.2581,-3.4911,-3.5805,-3.5509,-3.5175,-3.4873,-3.2216,-2.9665,0.0,0.0,0.0,0.0,0.0,0.0,0.0,0.0,0.0,0.0,0.0,0.0,0.0,0.0,0.0,0.0,0.0,0.0,0.0,0.0,0.0,0.0,0.0,0.0,0.0,0.0,0.0,0.0,0.0,0.0,0.0,0.0,0.0,0.0,0.0,0.0,0.0,0.0,0.0,0.0,0.0,-1.9144,-2.0408,-1.939,-1.8461,0.0,0.0,-2.0256,-2.0862,-2.1345,0.0,0.0,0.0,0.0,0.0,0.0,0.0,0.0,0.0,0.0,0.0,0.0,0.0,0.0,0.0,0.0,0.0,0.0,0.0,0.0,0.0,0.0,0.0,0.0,0.0,0.0,0.0,0.0,0.0,0.0,0.0,0.0,0.0,0.0,0.0,0.0,0.0,0.0,0.0,0.0,0.0,0.0,0.0,0.0,0.0,0.0,0.0,0.0,0.0,0.0,0.0,0.0,0.0,0.0,0.0,-2.6458,-2.9236,-3.3565,-3.5899,-3.5998,-3.5622,-3.5291,-3.5018,-3.2154,-2.9377,0.0,0.0,0.0,0.0,0.0,0.0,0.0,0.0,0.0,0.0,0.0,0.0,0.0,0.0,0.0,0.0,0.0,0.0,0.0,0.0,0.0,0.0,0.0,0.0,0.0,0.0,0.0,0.0,0.0,0.0,0.0,0.0,0.0,0.0,0.0,0.0,0.0,0.0,0.0,0.0,0.0,0.0,-2.1733,-2.1345,0.0,0.0,0.0,-2.1783,-2.1963,0.0,0.0,0.0,0.0,0.0,0.0,0.0,0.0,0.0,0.0,0.0,0.0,0.0,0.0,0.0,0.0,0.0,0.0,0.0,0.0,0.0,0.0,0.0,0.0,0.0,0.0,0.0,0.0,0.0,0.0,0.0,0.0,0.0,0.0,0.0,0.0,0.0,0.0,0.0,0.0,0.0,0.0,0.0,0.0,0.0,0.0,0.0,0.0,0.0,0.0,0.0,0.0,0.0,0.0,0.0,0.0,0.0,-2.9983,-3.4641,-3.693,-3.6697,-3.6,-3.561,-3.5528,-3.2804,0.0,0.0,0.0,0.0,0.0,0.0,0.0,0.0,0.0,0.0,0.0,0.0,0.0,0.0,0.0,0.0,0.0,0.0,0.0,0.0,0.0,0.0,0.0,0.0,0.0,0.0,0.0,-0.8879,0.0,0.0,0.0,0.0,0.0,0.0,0.0,0.0,0.0,0.0,0.0,0.0,0.0,0.0,-2.1466,-2.2909,-2.3146,-2.3325,0.0,0.0,-2.3379,-2.325,-2.3696,-2.3149,0.0,0.0,0.0,0.0,0.0,0.0,0.0,0.0,0.0,0.0,0.0,0.0,0.0,0.0,0.0,0.0,0.0,0.0,0.0,0.0,0.0,0.0,0.0,0.0,0.0,0.0,0.0,0.0,0.0,0.0,0.0,0.0,0.0,0.0,0.0,0.0,0.0,0.0,0.0,0.0,0.0,0.0,0.0,0.0,0.0,0.0,0.0,0.0,0.0,0.0,0.0,0.0,0.0,0.0,-2.8111,-3.1956,-3.5609,-3.7751,-3.8277,-3.6846,-3.6314,-3.6819,-3.4317,-3.152,0.0,0.0,0.0,0.0,0.0,0.0,0.0,0.0,0.0,0.0,0.0,0.0,0.0,0.0,0.0,0.0,0.0,0.0,0.0,0.0,0.0,0.0,0.0,0.0,0.0,0.0,0.0,0.0,0.0,0.0,0.0,0.0,0.0,0.0,0.0,0.0,0.0,0.0,0.0,0.0,0.0,-2.1786,-2.3654,-2.4235,-2.4485,0.0,-2.5023,-2.5359,-2.5227,-2.5738,-2.5091,-2.1813,0.0,0.0,0.0,0.0,0.0,0.0,0.0,0.0,0.0,0.0,0.0,0.0,0.0,0.0,0.0,0.0,0.0,0.0,0.0,0.0,0.0,0.0,0.0,0.0,0.0,0.0,0.0,0.0,0.0,0.0,0.0,0.0,0.0,0.0,0.0,0.0,0.0,0.0,0.0,0.0,0.0,0.0,0.0,0.0,0.0,0.0,0.0,0.0,0.0,0.0,0.0,0.0,0.0,-2.8551,-3.1826,-3.6541,-3.8978,-3.8969,-3.8377,-3.7983,-3.7859,-3.591,-3.3139,0.0,0.0,0.0,0.0,0.0,0.0,0.0,0.0,0.0,0.0,0.0,0.0,0.0,0.0,0.0,0.0,0.0,0.0,0.0,0.0,0.0,0.0,0.0,0.0,0.0,0.0,0.0,0.0,-1.8425,-1.9253,-1.8226,0.0,0.0,0.0,0.0,0.0,0.0,0.0,0.0,0.0,0.0,-2.4041,-2.5361,-2.5946,0.0,0.0,-2.6393,-2.6527,-2.5649,-2.6351,-2.5911,-2.2706,-2.103,0.0,0.0,0.0,0.0,0.0,0.0,0.0,0.0,0.0,0.0,0.0,0.0,0.0,0.0,0.0,0.0,0.0,0.0,0.0,0.0,0.0,0.0,0.0,0.0,0.0,0.0,0.0,0.0,0.0,0.0,0.0,0.0,0.0,0.0,0.0,0.0,0.0,0.0,0.0,0.0,0.0,0.0,0.0,0.0,0.0,0.0,0.0,0.0,0.0,0.0,0.0,0.0,-2.8971,-3.212,-3.7381,-4.0063,-4.002,-3.9666,-3.9385,-3.9138,-3.7767,-3.5311,0.0,0.0,0.0,0.0,0.0,0.0,0.0,0.0,0.0,0.0,0.0,0.0,0.0,0.0,0.0,0.0,0.0,0.0,0.0,0.0,0.0,0.0,0.0,0.0,0.0,0.0,0.0,0.0,-2.0174,-2.0108,-1.7403,0.0,0.0,0.0,0.0,0.0,0.0,0.0,0.0,0.0,0.0,-2.62,-2.7196,-2.7736,-2.7818,-2.7185,-2.7474,-2.7359,-2.6165,-2.6667,-2.6305,-2.3699,0.0,0.0,0.0,0.0,0.0,0.0,0.0,0.0,0.0,0.0,0.0,0.0,0.0,0.0,0.0,0.0,0.0,0.0,0.0,0.0,0.0,0.0,0.0,0.0,0.0,0.0,0.0,-1.5506,0.0,0.0,-1.4372,0.0,0.0,0.0,0.0,0.0,0.0,0.0,0.0,0.0,0.0,0.0,0.0,0.0,0.0,0.0,0.0,0.0,0.0,0.0,0.0,0.0,0.0,-2.9396,-3.3342,-3.8104,-4.089,-4.1559,-4.0519,-4.0253,-4.0869,-3.9835,-3.8206,-3.5983,0.0,0.0,0.0,0.0,0.0,0.0,0.0,0.0,0.0,0.0,0.0,0.0,0.0,0.0,0.0,0.0,0.0,0.0,0.0,0.0,0.0,0.0,0.0,0.0,0.0,0.0,-1.6614,-1.8477,-1.8834,0.0,0.0,0.0,0.0,0.0,0.0,0.0,0.0,0.0,-2.423,-2.6324,-2.7891,-2.9086,-2.9541,-2.9346,-2.836,-2.8186,-2.7859,-2.6935,-2.6826,-2.6311,0.0,0.0,0.0,0.0,0.0,0.0,0.0,0.0,0.0,0.0,0.0,0.0,0.0,0.0,0.0,0.0,0.0,0.0,0.0,0.0,0.0,0.0,0.0,0.0,0.0,0.0,0.0,-2.0536,-2.0255,0.0,0.0,0.0,0.0,0.0,0.0,0.0,0.0,0.0,0.0,0.0,-2.8625,-2.8848,0.0,0.0,0.0,0.0,0.0,0.0,0.0,0.0,0.0,0.0,0.0,0.0,-3.0713,-3.4262,-3.9423,-4.223,-4.2484,-4.2118,-4.1871,-4.1787,-4.1354,-3.9294,-3.5421,0.0,0.0,0.0,0.0,0.0,0.0,0.0,0.0,0.0,0.0,0.0,0.0,0.0,0.0,0.0,0.0,0.0,0.0,0.0,0.0,0.0,0.0,0.0,0.0,0.0,-1.7758,0.0,0.0,0.0,0.0,0.0,0.0,0.0,0.0,0.0,0.0,-2.0602,-2.3935,-2.6846,-2.8504,-2.9789,-3.0794,-3.0638,-3.0307,0.0,0.0,0.0,0.0,0.0,0.0,0.0,0.0,0.0,0.0,0.0,0.0,0.0,0.0,-1.9959,-1.7791,-1.6832,-1.6443,-1.6667,0.0,0.0,0.0,0.0,0.0,0.0,0.0,0.0,0.0,0.0,0.0,0.0,0.0,0.0,-2.4436,-2.3911,-2.3658,0.0,0.0,0.0,0.0,0.0,0.0,0.0,0.0,-3.0568,-3.2488,-3.3498,-3.3516,-3.3516,-3.3462,-3.2379,-2.9554,0.0,0.0,0.0,0.0,0.0,0.0,0.0,0.0,-3.1799,-3.5062,-4.022,-4.2919,-4.2919,-4.2919,-4.2768,-4.2458,-4.22,-4.048,-3.7088,-3.3865,-3.0266,0.0,0.0,0.0,0.0,0.0,0.0,0.0,0.0,0.0,0.0,0.0,0.0,0.0,0.0,0.0,0.0,0.0,0.0,0.0,0.0,0.0,0.0,0.0,-1.9576,0.0,0.0,0.0,0.0,0.0,0.0,0.0,0.0,0.0,-2.0641,-2.3881,-2.719,-2.9629,-3.0692,-3.1484,-3.2306,0.0,0.0,0.0,0.0,0.0,0.0,0.0,-2.7875,-2.6594,-2.6731,-2.6692,-2.5824,-2.53,-2.5211,-2.586,0.0,0.0,-2.2278,-2.1216,-2.0882,-2.1321,-2.1032,-2.1211,-2.2757,-2.3236,-2.3834,0.0,0.0,0.0,0.0,-2.4202,0.0,0.0,0.0,-2.8545,-2.8075,0.0,-2.7369,0.0,0.0,0.0,0.0,-2.4295,-2.8099,0.0,0.0,-3.6288,-3.8227,-3.8227,-3.8191,-3.8246,-3.8083,-3.5204,-3.4099,-3.4573,-3.1705,-2.8063,0.0,0.0,0.0,0.0,0.0,-3.2705,-3.5965,-4.0546,-4.2919,-4.2919,-4.2919,-4.2919,-4.2882,-4.2438,-4.1765,-4.0862,-3.7958,-3.5506,-3.3582,-2.7395,0.0,0.0,0.0,0.0,0.0,0.0,0.0,0.0,0.0,0.0,0.0,0.0,0.0,0.0,0.0,0.0,0.0,0.0,0.0,0.0,-1.9879,0.0,0.0,0.0,0.0,0.0,0.0,0.0,0.0,0.0,-2.4651,-2.4528,-2.6882,-2.9682,-3.2529,0.0,0.0,0.0,0.0,-3.3108,-3.1991,-3.1622,-3.11,-3.0011,-2.9554,-2.9449,-2.9766,0.0,0.0,-2.9636,-2.8573,-2.7914,-2.8577,-2.8652,-2.8068,-2.6153,-2.5202,-2.4739,-2.4754,-2.4724,-2.4963,-2.563,-2.6258,-2.6896,-3.3134,0.0,0.0,0.0,0.0,-2.9662,-3.1433,-3.3441,-3.4241,-3.4332,-3.3861,-3.2922,0.0,0.0,0.0,0.0,0.0,0.0,-3.4099,-3.5727,-3.7991,-3.9333,-3.984,-3.984,-4.0148,-4.0637,-3.9767,-3.9749,-4.0456,-3.9604,-3.5401,-2.819,0.0,0.0,0.0,0.0,-3.5168,-3.8337,-4.1361,-4.2919,-4.2919,-4.2919,-4.2919,-4.2919,-4.2438,-4.2088,-4.1836,-4.0644,-3.8765,-3.6155,-3.3196,0.0,0.0,0.0,0.0,0.0,0.0,0.0,0.0,0.0,0.0,0.0,0.0,0.0,0.0,0.0,0.0,0.0,0.0,0.0,-1.8386,-2.2043,-2.3011,0.0,0.0,0.0,0.0,0.0,0.0,0.0,0.0,0.0,-2.9796,-3.0532,-3.1696,0.0,0.0,-3.4008,-3.5036,-3.4724,-3.4602,-3.5274,-3.4258,0.0,-3.3648,-3.2573,-3.1535,-3.1094,-3.0607,-3.0402,-3.0853,-3.0657,-3.0434,-3.0629,-3.0673,-3.0464,-2.9911,-2.8921,-2.8203,-2.8173,-2.8173,-2.8368,-2.8966,-2.9265,-2.9564,-3.8799,-3.5923,-3.3901,-3.3106,-3.3332,-3.4261,-3.581,-3.77,-3.8172,-3.821,-3.7937,-3.7232,-3.5186,-3.2144,-3.1329,0.0,0.0,0.0,-3.7051,-3.8898,-3.9532,-4.0419,-4.1397,-4.1126,-4.1397,-4.2122,-4.1234,-4.1524,-4.2846,-4.1651,-3.8699,-3.4135,0.0,-3.2071,-3.294,-3.4987,-3.7431,-4.0274,-4.2321,-4.3516,-4.3842,-4.3535,-4.3245,-4.29,-4.2634,-4.2478,-4.2458,-4.2032,-4.1041,-3.9449,-3.7071,-3.3861,0.0,0.0,0.0,0.0,0.0,0.0,0.0,0.0,0.0,0.0,0.0,-1.5392,-1.5026,0.0,0.0,0.0,-1.9761,-2.0657,-2.384,-2.5305,0.0,0.0,0.0,0.0,0.0,0.0,0.0,-2.659,-2.9871,-3.2455,-3.3368,-3.3773,-3.4213,-3.4854,-3.4901,-3.5248,-3.6257,0.0,-3.5943,-3.6792,-3.5938,-3.5293,-3.5613,-3.4713,-3.365,-3.2779,-3.2328,-3.2068,-3.2198,-3.2273,-3.2273,-3.2288,-3.2288,-3.2288,-3.2273,-3.1659,-3.0926,-3.0462,-3.0357,-3.0492,-3.0851,-3.0911,-3.1017,-4.3406,-4.3003,-3.8469,-3.7378,-3.8638,-3.8657,-3.9439,-4.0673,-4.0691,-4.0311,-3.9731,-4.0329,-3.899,-3.6238,-3.5478,0.0,-3.7502,-3.8245,-3.9731,-4.1759,-4.1017,-4.147,-4.2847,-4.214,-4.2194,-4.2829,-4.0763,-4.0872,-4.281,-4.0184,-3.9478,-4.08,-3.9478,-3.792,-3.6437,-3.7739,-3.9641,-4.1958,-4.3444,-4.4548,-4.5273,-4.4584,-4.3806,-4.3046,-4.301,-4.2955,-4.29,-4.2496,-4.2458,-4.2754,-3.96,-3.7184,-3.5788,0.0,0.0,0.0,0.0,0.0,0.0,0.0,0.0,0.0,0.0,0.0,0.0,0.0,0.0,-2.4489,-2.6268,0.0,-3.1473,-2.897,0.0,0.0,0.0,-2.6048,-2.6032,-2.8113,-2.9786,-3.0444,0.0,0.0,-3.56,-3.6468,-3.6871,-3.6602,-3.6408,-3.6552,-3.7278,-3.7244,-3.7167,-3.718,-3.7018,-3.6829,-3.6694,-3.6169,-3.5506,-3.4554,-3.4443,-3.4085,-3.3532,-3.3425,-3.3469,-3.341,-3.3484,-3.3469,-3.3484,-3.335,-3.311,-3.1869,-3.166,-3.166,-3.1705,-3.172,-3.1735,-4.3406,-4.3279,-4.185,-4.147,-4.1814,-4.1814,-4.1995,-4.2321,-4.2321,-4.223,-4.2049,-4.1596,-4.0999,-4.0275,-4.0112,-4.0564,-4.1506,-4.1687,-4.2086,-4.2592,-4.2411,-4.2538,-4.2882,-4.2683,-4.272,-4.2901,-4.2936,-4.3244,-4.3788,-4.3679,-4.3788,-4.4114,-4.3788,-4.2502,-4.0383,-4.0673,-4.2049,-4.4421,-4.482,-4.5091,-4.5291,-4.511,-4.4639,-4.3842,-4.3806,-4.3516,-4.2937,-4.2806,-4.2769,-4.2864,-4.2045,-4.0581,-3.8346,-3.3988,0.0,0.0,0.0,0.0,0.0,0.0,0.0,0.0,0.0,-2.0316,-2.0921,0.0,-2.6147,0.0,-2.9995,-3.1002,-2.9021,-3.0106,0.0,0.0,-2.9717,-2.9871,-2.9888,-3.2341,-3.4078,-3.4264,-3.5791,-3.6958,-3.729,-3.8007,-3.8415,-3.8244,-3.7634,-3.741,-3.8011,-3.8033,-3.8119,-3.8583,-3.8656,-3.8636,-3.8447,-3.7638,-3.6554,-3.5375,-3.4765,-3.4177,-3.3622,-3.3499,-3.3499,-3.3499,-3.3499,-3.3499,-3.3544,-3.3499,-3.3425,-3.3095,-3.3021,-3.3021,-3.3036,-3.3021,-3.3021,-4.3406,-4.3371,-4.305,-4.2919,-4.2919,-4.2919,-4.2919,-4.2919,-4.2919,-4.2919,-4.2864,-4.2411,-4.2248,-4.2248,-4.223,-4.2466,-4.2901,-4.2919,-4.2919,-4.2919,-4.2919,-4.3063,-4.3445,-4.3425,-4.3625,-4.3969,-4.4421,-4.4639,-4.4657,-4.5091,-4.5291,-4.5291,-4.5291,-4.4639,-4.3352,-4.3317,-4.3625,-4.4222,-4.5653,-4.6196,-4.5852,-4.5834,-4.5291,-4.415,-4.4095,-4.3734,-4.2937,-4.2919,-4.2719,-4.2393,-4.2375,-4.1578,-3.9752,-3.5995,-3.2336,0.0,0.0,0.0,0.0,0.0,0.0,0.0,0.0,0.0,0.0,0.0,-3.0105,-3.0406,-3.2818,-3.352,-3.1458,-3.2476,-3.3241,-3.3102,-3.3457,-3.3829,-3.415,-3.5616,-3.6614,-3.6614,-3.7614,-3.8316,-3.8316,-3.8874,-3.9278,-3.9219,-3.874,-3.8521,-3.8811,-3.8754,-3.8841,-3.9232,-3.9315,-3.9315,-3.9315,-3.8694,-3.785,-3.6883,-3.6162,-3.5515,-3.4896,-3.457,-3.4397,-3.4382,-3.4397,-3.4397,-3.4397,-3.4397,-3.4397,-3.4382,-3.4382,-3.4173,-3.3634,-3.3499,-3.3499,-4.3718,-4.3664,-4.3214,-4.3064,-4.3027,-4.2955,-4.2919,-4.2919,-4.2919,-4.2919,-4.2919,-4.2919,-4.2919,-4.2919,-4.2919,-4.2919,-4.2919,-4.3028,-4.3064,-4.3045,-4.3154,-4.357,-4.424,-4.4258,-4.4621,-4.5291,-4.5399,-4.5454,-4.5454,-4.5562,-4.5599,-4.5599,-4.5617,-4.5472,-4.5182,-4.5454,-4.491,-4.357,-4.6178,-4.721,-4.654,-4.6395,-4.5635,-4.4186,-4.4095,-4.3789,-4.3081,-4.2936,-4.2574,-4.1886,-4.1741,-4.1379,-4.0619,-3.704,-3.4057,0.0,-2.8794,0.0,0.0,0.0,0.0,0.0,0.0,0.0,0.0,-3.2241,-3.324,-3.38,-3.4991,-3.5785,-3.5887,-3.5318,-3.547,-3.6778,-3.7032,-3.7354,-3.7956,-3.8125,-3.8176,-3.8176,-3.8645,-3.8958,-3.8992,-3.9412,-3.9729,-3.9627,-3.9506,-3.9435,-3.9575,-3.9402,-3.9265,-3.9315,-3.9315,-3.9315,-3.9315,-3.9299,-3.899,-3.8362,-3.7655,-3.7191,-3.64,-3.5817,-3.5459,-3.5444,-3.54,-3.5429,-3.5489,-3.5459,-3.5459,-3.54,-3.5385,-3.5055,-3.4143,-3.3888,-3.3754,-4.5352,-4.5242,-4.4286,-4.386,-4.3824,-4.3154,-4.2919,-4.2919,-4.2919,-4.2919,-4.2919,-4.2919,-4.2919,-4.2919,-4.2919,-4.2919,-4.2955,-4.3589,-4.3878,-4.3896,-4.4548,-4.491,-4.5073,-4.5073,-4.5146,-4.5327,-4.5979,-4.6269,-4.6305,-4.6939,-4.7226,-4.7246,-4.7265,-4.6269,-4.453,0.0,0.0,0.0,-4.6739,-4.6667,-4.6486,-4.587,-4.5073,-4.4132,-4.4095,0.0,-4.3842,-4.3263,-4.2829,-4.2647,-4.2067,0.0,0.0,0.0,0.0,0.0,0.0,0.0,0.0,0.0,0.0,0.0,-3.4468,-3.434,-3.3835,-3.4638,-3.545,-3.6084,-3.64,-3.6806,-3.7374,-3.7364,-3.7381,-3.7669,-3.8227,-3.8633,-3.8785,-3.9317,-3.969,-3.969,-3.9783,-3.9809,-3.9716,-3.9808,-3.9806,-3.9664,-3.9528,-3.9698,-4.0182,-3.974,-3.9332,-3.9315,-3.9398,-3.9332,-3.9315,-3.9332,-3.9077,-3.8407,-3.7793,-3.7175,-3.6554,-3.591,-3.5504,-3.5489,-3.5489,-3.5489,-3.5489,-3.5489,-3.5489,-3.5489,-3.5489,-3.5429,-3.519,-3.5115,-3.513,-4.568,-4.5773,-4.5032,-4.4675,0.0,-4.424,-4.4077,-4.4042,-4.3245,-4.2919,-4.2919,-4.2919,-4.3118,-4.3463,-4.3063,-4.3335,-4.4077,-4.4095,-4.4313,-4.4711,-4.511,-4.5526,-4.5888,-4.5906,-4.6087,-4.6504,-4.692,-4.7102,-4.712,-4.75,-4.7699,-4.7699,-4.7699,-4.6902,-4.5381,-4.6504,-4.7319,-4.7699,-4.7301,-4.7102,-4.7083,-4.6703,-4.6106,-4.5327,-4.5291,0.0,0.0,0.0,0.0,0.0,0.0,0.0,0.0,-4.0202,0.0,-3.821,-3.6636,-3.5734,-3.5752,-3.6013,-3.6866,-3.8382,-3.903,-3.8677,-3.7142,-3.7469,-3.8009,-3.8698,-3.8564,-3.8589,-3.8937,-3.8971,-3.8988,-3.9005,-3.9292,-3.9554,-3.9588,-3.9859,-4.0096,-4.0146,-4.0358,-4.05,-4.0361,-4.0635,-4.0668,-4.0469,-4.0458,-4.053,-4.0774,-4.031,-3.9945,-4.0276,-4.0028,-3.9846,-3.9812,-3.9497,-3.9218,-3.8772,-3.801,-3.734,-3.6966,-3.6101,-3.5489,-3.5489,-3.5489,-3.5489,-3.5489,-3.5489,-3.5489,-3.5489,-3.5489,-3.5489,-3.5489,-3.5489,-3.5489,-4.6119,-4.636,-4.5858,-4.5609,-4.5609,-4.5403,-4.5291,-4.5218,-4.3878,0.0,0.0,-4.3336,-4.3679,-4.424,-4.3607,-4.4041,-4.5236,-4.4765,-4.4874,-4.5526,-4.5671,-4.6069,-4.6703,-4.6721,-4.7065,-4.7699,-4.7699,-4.7699,-4.7699,-4.7699,-4.7699,-4.7699,-4.7699,-4.7373,-4.6757,-4.6721,-4.7047,-4.7642,-4.7572,-4.75,-4.7479,-4.7355,-4.6957,-4.6305,-4.6305,-4.6033,-4.5544,-4.5381,-4.4983,-4.4331,-4.4023,-4.3299,-4.1976,-4.1144,-4.022,-3.9134,-3.9042,-3.9007,-3.9042,-3.9658,-4.0619,-4.2031,-4.25,-4.1999,-4.0268,-4.0189,-4.0458,-4.1027,-4.0777,-4.0586,-4.0502,-4.0502,-4.0502,-4.0502,-4.0502,-4.0502,-4.0502,-4.0485,-4.057,-4.0527,-4.0948,-4.1153,-4.1044,-4.1376,-4.1655,-4.1437,-4.1309,-4.1463,-4.1491,-4.1011,-4.0729,-4.1143,-4.0829,-4.0564,-4.0481,-4.016,-3.9696,-3.9714,-3.8764,-3.7941,-3.7613,-3.6784,-3.6017,-3.5729,-3.5684,-3.5654,-3.5534,-3.5489,-3.5489,-3.5489,-3.5489,-3.5489,-3.5489,-3.5489,-3.5489,-4.8324,-4.8304,-4.7279,-4.6854,-4.6762,-4.5739,-4.5291,-4.5291,-4.5055,-4.4965,-4.4947,-4.4965,-4.5019,-4.5128,-4.5001,-4.5073,-4.5327,-4.5888,-4.6232,-4.6377,-4.7065,-4.7428,-4.7536,-4.7536,-4.7591,-4.7699,-4.7699,-4.7699,-4.7699,-4.7699,-4.7699,-4.7699,-4.7699,-4.7645,-4.7536,-4.7536,-4.7591,-4.7699,-4.7011,-4.6667,-4.6667,-4.5997,-4.5599,-4.5472,-4.549,-4.5761,-4.6305,-4.5689,-4.5254,-4.5091,-4.3806,-4.2936,-4.2719,-4.2013,-4.1723,-4.2213,-4.2231,-4.2231,-4.2231,-4.2339,-4.2792,-4.3697,-4.4453,-4.4088,-4.2361,-4.2249,-4.2217,-4.215,-4.2381,-4.2475,-4.207,-4.1957,-4.1907,-4.1931,-4.1948,-4.1965,-4.1897,-4.188,-4.188,-4.188,-4.195,-4.19,-4.177,-4.1783,-4.1777,-4.152,-4.1629,-4.1662,-4.2092,-4.1711,-4.1342,-4.1364,-4.1342,-4.1276,-4.1243,-4.121,-4.0994,-4.111,-4.041,-3.9636,-3.9119,-3.8354,-3.7536,-3.655,-3.6424,-3.6133,-3.5684,-3.5489,-3.5534,-3.5534,-3.5489,-3.5489,-3.5489,-3.5489,-3.5489,-4.8919,-4.9034,-4.8322,-4.7924,-4.77,-4.6923,-4.6595,-4.6613,-4.6595,-4.6106,-4.5327,-4.5291,-4.5544,-4.5906,-4.549,-4.5798,-4.6613,-4.654,-4.6739,-4.7174,-4.7536,-4.7699,-4.7699,-4.7699,-4.7699,-4.7699,-4.7699,-4.7699,-4.7699,-4.7699,-4.7699,-4.7699,-4.7699,-4.7699,-4.7699,-4.7699,-4.7699,-4.7699,-4.7355,-4.7156,-4.7135,-4.6794,-4.6613,-4.6613,-4.6613,-4.6757,-4.7138,-4.6794,-4.6613,-4.6613,-4.5472,-4.4856,-4.482,-4.3679,-4.3353,-4.4114,-4.3788,-4.3733,-4.4186,-4.4204,-4.4349,-4.4729,-4.5073,-4.5045,-4.4356,-4.3926,-4.3681,-4.3528,-4.3315,-4.2994,-4.2749,-4.2481,-4.2303,-4.2303,-4.2303,-4.2303,-4.2303,-4.2303,-4.2303,-4.2337,-4.254,-4.2656,-4.2535,-4.2717,-4.2824,-4.2618,-4.2572,-4.2738,-4.3035,-4.2833,-4.2572,-4.2555,-4.2258,-4.2026,-4.1976,-4.164,-4.1475,-4.1397,-4.0905,-4.0418,-3.9964,-3.9251,-3.8338,-3.7715,-3.7288,-3.6765,-3.6148,-3.6043,-3.5908,-3.5534,-3.5489,-3.5489,-3.5489,-3.5489,-3.5489,-4.9169,-4.9368,-4.8971,-4.855,-4.8149,-4.7845,-4.7699,-4.7699,-4.7699,-4.7011,-4.5943,-4.5834,-4.6196,-4.6685,-4.6106,-4.654,-4.7518,-4.7065,-4.7081,-4.7663,-4.7699,-4.7699,-4.7699,-4.7699,-4.7699,-4.7699,-4.7699,-4.7699,-4.7699,-4.7699,-4.7699,-4.7699,-4.7699,-4.7699,-4.7699,-4.7699,-4.7699,-4.7699,-4.7699,-4.7699,-4.7699,-4.7699,-4.7699,-4.7699,-4.7699,-4.7769,-4.795,-4.7971,-4.8061,-4.817,-4.7301,-4.6776,-4.6703,-4.5254,-4.4657,-4.5164,-4.4711,-4.4639,-4.5236,-4.5472,-4.558,-4.558,-4.5743,-4.5926,-4.6054,-4.5616,-4.5128,-4.4759,-4.4205,-4.3746,-4.3486,-4.3121,-4.2811,-4.2811,-4.2794,-4.2878,-4.2784,-4.274,-4.2757,-4.2753,-4.3087,-4.33,-4.3315,-4.3573,-4.368,-4.3545,-4.3615,-4.3615,-4.3615,-4.3615,-4.3615,-4.3499,-4.3102,-4.2771,-4.2704,-4.2324,-4.2009,-4.1893,-4.1608,-4.1214,-4.0788,-3.9802,-3.8932,-3.857,-3.8005,-3.7443,-3.6851,-3.6686,-3.6432,-3.5968,-3.5804,-3.5714,-3.5534,-3.5504,-3.5489,-4.9621,-4.9349,-4.8971,-4.8402,-4.7804,-4.7738,-4.7699,-4.7699,-4.7699,-4.7663,-4.7409,-4.7461,-4.7464,-4.7572,-4.7461,-4.7536,-4.7699,-4.7627,-4.7627,-4.7699,-4.7699,-4.7699,-4.7699,-4.7699,-4.7699,-4.7699,-4.7699,-4.7699,-4.7699,-4.7699,-4.7699,-4.7699,-4.7699,-4.7699,-4.7699,-4.7699,-4.7699,-4.7699,-4.7699,-4.7699,-4.7699,-4.7699,-4.7699,-4.7699,-4.7717,-4.8061,-4.8728,-4.8782,-4.913,-4.9695,-4.8369,-4.7591,-4.7464,-4.6069,-4.5218,-4.5327,-4.5254,-4.5236,-4.5363,-4.5979,-4.6395,-4.645,-4.7029,-4.7407,-4.7434,-4.7398,-4.6744,-4.567,-4.5606,-4.5352,-4.4593,-4.4366,-4.427,-4.4175,-4.4225,-4.4322,-4.4063,-4.4136,-4.4063,-4.3954,-4.3805,-4.3827,-4.3744,-4.3697,-4.3628,-4.3598,-4.3615,-4.3615,-4.3615,-4.3615,-4.3615,-4.3615,-4.3499,-4.3466,-4.3416,-4.3466,-4.3201,-4.3251,-4.3258,-4.2598,-4.1677,-4.1147,-4.0734,-3.9089,-3.8442,-3.8098,-3.7554,-3.73,-3.7105,-3.6552,-3.6312,-3.6193,-3.5699,-3.5564,-3.5609,-4.9166,-4.9038,-4.8867,-4.8513,-4.807,-4.7785,-4.7699,-4.7699,-4.7699,-4.7699,-4.7699,-4.7699,-4.7699,-4.7699,-4.7699,-4.7699,-4.7699,-4.7699,-4.7699,-4.7699,-4.7699,-4.7699,-4.7699,-4.7699,-4.7699,-4.7699,-4.7699,-4.7699,-4.7699,-4.7699,-4.7699,-4.7699,-4.7699,-4.7699,-4.7699,-4.7699,-4.7699,-4.7714,-4.8167,-4.8402,-4.8402,-4.8402,-4.8424,-4.8456,-4.8858,-4.9238,-4.9564,-4.9601,-4.9764,-4.9985,-4.8568,-4.7935,-4.8366,-4.6432,-4.5743,-4.6595,-4.6721,-4.6721,-4.6721,-4.7047,-4.7228,-4.7228,-4.75,-4.7699,-4.7699,-4.7699,-4.7258,-4.6478,-4.6436,-4.6262,-4.5572,-4.5222,-4.4906,-4.4665,-4.4598,-4.4514,-4.4338,-4.431,-4.4253,-4.4126,-4.3969,-4.3881,-4.3868,-4.3734,-4.3645,-4.3615,-4.3615,-4.3615,-4.3615,-4.3615,-4.3615,-4.3615,-4.3615,-4.3615,-4.3615,-4.3615,-4.3615,-4.3522,-4.3265,-4.2648,-4.2285,-4.1327,-4.0545,-3.9699,-3.9229,-3.8727,-3.8108,-3.7958,-3.7793,-3.7225,-3.6671,-3.6477,-3.6582,-3.6342,-3.6252,-4.8729,-4.8658,-4.8532,-4.8364,-4.813,-4.7806,-4.7699,-4.7699,-4.7699,-4.7699,-4.7699,-4.7699,-4.7699,-4.7699,-4.7699,-4.7699,-4.7699,-4.7699,-4.7699,-4.7699,-4.7699,-4.7699,-4.7699,-4.7699,-4.7699,-4.7699,-4.7699,-4.7699,-4.7699,-4.7699,-4.7699,-4.7699,-4.7699,-4.7699,-4.7699,-4.7699,-4.7826,-4.8058,-4.8619,-4.8999,-4.9238,-4.9456,-4.9456,-4.9311,-4.9782,-5.0202,-5.0397,-5.0438,-5.0565,-5.0728,-4.922,-4.8623,-4.9112,-4.7156,-4.6486,-4.7536,-4.7699,-4.7699,-4.7699,-4.7699,-4.7699,-4.7699,-4.7699,-4.7699,-4.7699,-4.7699,-4.7468,-4.6972,-4.6908,-4.6637,-4.595,-4.5537,-4.5125,-4.4665,-4.4598,-4.4514,-4.4281,-4.4253,-4.4167,-4.401,-4.3852,-4.3839,-4.3793,-4.3687,-4.3615,-4.3615,-4.3615,-4.3615,-4.3615,-4.3615,-4.3615,-4.3615,-4.3615,-4.3615,-4.3615,-4.3615,-4.3615,-4.3479,-4.3113,-4.2585,-4.2317,-4.1194,-4.032,-3.9733,-3.958,-3.9341,-3.8826,-3.8646,-3.8437,-3.7793,-3.724,-3.6926,-3.715,-3.6956,-3.6971,-4.8623,-4.8287,-4.7891,-4.7783,-4.772,-4.7699,-4.7699,-4.7699,-4.7699,-4.7699,-4.7699,-4.7699,-4.7699,-4.7699,-4.7699,-4.7699,-4.7699,-4.7699,-4.7699,-4.7699,-4.7699,-4.7699,-4.7699,-4.7699,-4.7699,-4.7699,-4.7699,-4.7699,-4.7699,-4.7699,-4.7699,-4.7699,-4.7753,-4.7735,-4.7772,-4.7844,-4.8116,-4.8822,-4.8981,-4.9311,-5.0035,-5.076,-5.0796,-5.018,-5.0108,-5.0546,-5.1162,-5.123,-5.1556,-5.2317,-5.0741,-4.9949,-4.9854,-4.8442,-4.7572,-4.7699,-4.7699,-4.7699,-4.7699,-4.7699,-4.7699,-4.7699,-4.7699,-4.7699,-4.7699,-4.7699,-4.749,-4.6976,-4.6931,-4.6501,-4.5622,-4.5381,-4.5098,-4.4637,-4.457,-4.4429,-4.4172,-4.4097,-4.3935,-4.3717,-4.3674,-4.3674,-4.3628,-4.3628,-4.3598,-4.3615,-4.3615,-4.3615,-4.3615,-4.3615,-4.3615,-4.3615,-4.3615,-4.3615,-4.3615,-4.3615,-4.3615,-4.3479,-4.3035,-4.2396,-4.1672,-4.0974,-4.0351,-3.9798,-3.9673,-3.9529,-3.9409,-3.9215,-3.8945,-3.8437,-3.7808,-3.7584,-3.7853,-3.7539,-3.7554,-4.8032,-4.7909,-4.7762,-4.7699,-4.7699,-4.7699,-4.7699,-4.7699,-4.7699,-4.7699,-4.7699,-4.7699,-4.7699,-4.7699,-4.7699,-4.7699,-4.7699,-4.7699,-4.7699,-4.7699,-4.7699,-4.7699,-4.7699,-4.7699,-4.7699,-4.7699,-4.7699,-4.7699,-4.7699,-4.7699,-4.7699,-4.7826,-4.8221,-4.8478,-4.8568,-4.8985,-4.9383,-4.9691,-5.0144,-5.0578,-5.0886,-5.1647,-5.1919,-5.1665,-5.1629,-5.1756,-5.2063,-5.2082,-5.1991,-5.1756,-5.0669,-4.9854,-4.9311,-4.8315,-4.7699,-4.7699,-4.7699,-4.7699,-4.7699,-4.7699,-4.7699,-4.7699,-4.7699,-4.7699,-4.7699,-4.7699,-4.7597,-4.7385,-4.7062,-4.6548,-4.595,-4.5537,-4.5072,-4.4564,-4.4412,-4.4298,-4.4056,-4.3969,-4.3881,-4.3658,-4.3615,-4.3615,-4.3615,-4.3615,-4.3615,-4.3615,-4.3615,-4.3615,-4.3615,-4.3615,-4.3615,-4.3615,-4.3615,-4.3615,-4.3615,-4.3615,-4.3568,-4.3402,-4.3035,-4.2365,-4.1655,-4.1345,-4.0806,-4.0037,-3.9813,-3.9903,-3.9858,-3.9664,-3.9409,-3.914,-3.8512,-3.8407,-3.8631,-3.8222,-3.8282,-4.7699,-4.7699,-4.7699,-4.7699,-4.7699,-4.7699,-4.7699,-4.7699,-4.7699,-4.7699,-4.7699,-4.7699,-4.7699,-4.7699,-4.7699,-4.7699,-4.7699,-4.7699,-4.7699,-4.7699,-4.7699,-4.7699,-4.7699,-4.7699,-4.7699,-4.7699,-4.7699,-4.7699,-4.7699,-4.7699,-4.7823,-4.8113,-4.8656,-4.9036,-4.9329,-4.9836,-5.0202,-5.0546,-5.1054,-5.1375,-5.1701,-5.219,-5.2498,-5.2498,-5.2498,-5.2498,-5.2498,-5.2498,-5.2118,-5.1321,-5.0546,-4.9619,-4.8601,-4.7986,-4.7699,-4.7699,-4.7699,-4.7699,-4.7699,-4.7699,-4.7699,-4.7699,-4.7699,-4.7699,-4.7699,-4.7699,-4.7636,-4.7407,-4.7129,-4.6683,-4.6217,-4.584,-4.5319,-4.453,-4.431,-4.4167,-4.3939,-4.3881,-4.3809,-4.3674,-4.3615,-4.3615,-4.3615,-4.3615,-4.3615,-4.3615,-4.3615,-4.3615,-4.3615,-4.3615,-4.3615,-4.3615,-4.3615,-4.3615,-4.3598,-4.3598,-4.3585,-4.3449,-4.315,-4.2445,-4.1988,-4.1669,-4.1214,-4.0444,-4.0187,-4.0307,-4.0277,-4.0098,-3.9918,-3.9753,-3.9499,-3.9305,-3.9194,-3.8868,-3.8883,-4.7699,-4.7699,-4.7699,-4.7699,-4.7699,-4.7699,-4.7699,-4.7699,-4.7699,-4.7699,-4.7699,-4.7699,-4.7699,-4.7699,-4.7699,-4.7699,-4.7699,-4.7699,-4.7699,-4.7699,-4.7699,-4.7699,-4.7699,-4.7699,-4.7699,-4.7699,-4.7699,-4.7699,-4.7699,-4.7787,-4.8149,-4.8768,-4.9018,-4.9528,-5.0112,-5.0271,-5.0637,-5.1158,-5.1411,-5.1737,-5.2389,-5.248,-5.2498,-5.2498,-5.2498,-5.2498,-5.2498,-5.2498,-5.21,-5.1249,-5.0488,-4.9347,-4.8061,-4.7717,-4.7699,-4.7699,-4.7699,-4.7699,-4.7699,-4.7699,-4.7699,-4.7699,-4.7699,-4.7699,-4.7699,-4.7699,-4.7533,-4.7191,-4.7043,-4.6772,-4.6376,-4.6378,-4.5963,-4.4649,-4.4552,-4.4406,-4.4069,-4.3898,-4.3809,-4.3645,-4.3615,-4.3615,-4.3615,-4.3615,-4.3615,-4.3615,-4.3615,-4.3615,-4.3615,-4.3615,-4.3615,-4.3615,-4.3615,-4.3615,-4.3598,-4.3598,-4.3585,-4.3498,-4.3139,-4.2638,-4.2351,-4.2074,-4.1729,-4.1091,-4.0868,-4.0935,-4.0905,-4.0756,-4.0681,-4.0516,-4.0322,-4.0016,-3.9666,-3.9354,-3.9266,-4.7699,-4.7699,-4.7699,-4.7699,-4.7699,-4.7699,-4.7699,-4.7699,-4.7699,-4.7699,-4.7699,-4.7699,-4.7699,-4.7699,-4.7699,-4.7699,-4.7699,-4.7699,-4.7699,-4.7699,-4.7699,-4.7699,-4.7699,-4.7699,-4.7699,-4.7699,-4.7699,-4.7717,-4.7844,-4.8279,-4.8713,-4.9018,-5.0017,-5.0633,-5.0923,-5.147,-5.1919,-5.2082,-5.2118,-5.2263,-5.248,-5.2498,-5.2498,-5.2498,-5.2498,-5.2498,-5.2498,-5.2498,-5.1828,-5.0578,-5.0238,-4.9365,-4.8061,-4.7699,-4.7699,-4.7699,-4.7699,-4.7699,-4.7699,-4.7699,-4.7699,-4.7717,-4.7717,-4.7699,-4.7699,-4.7735,-4.7672,-4.7493,-4.7613,-4.7483,-4.7036,-4.7099,-4.6735,-4.5736,-4.5645,-4.5319,-4.4693,-4.4125,-4.3721,-4.3628,-4.3615,-4.3615,-4.3631,-4.3648,-4.3714,-4.3681,-4.3681,-4.3698,-4.3664,-4.3764,-4.3615,-4.3615,-4.3615,-4.3747,-4.375,-4.3685,-4.3524,-4.3479,-4.3167,-4.2942,-4.2669,-4.2552,-4.2203,-4.1904,-4.1678,-4.1587,-4.1557,-4.1474,-4.1429,-4.1265,-4.1003,-4.0629,-4.0158,-3.9862,-3.9713,-4.8131,-4.8131,-4.8131,-4.8131,-4.8149,-4.8149,-4.795,-4.7769,-4.8025,-4.8007,-4.7772,-4.7699,-4.7699,-4.7699,-4.7699,-4.7699,-4.7699,-4.7699,-4.7699,-4.7699,-4.7699,-4.7699,-4.7699,-4.7699,-4.7895,-4.8113,-4.8149,-4.8315,-4.8605,-4.9094,-4.951,-4.9981,-5.0814,-5.147,-5.1719,-5.2208,-5.2498,-5.2498,-5.248,-5.2498,-5.2498,-5.2498,-5.2498,-5.2498,-5.2498,-5.2498,-5.2498,-5.2498,-5.1756,-5.0289,-4.9564,-4.8695,-4.779,-4.7699,-4.7699,-4.7699,-4.7699,-4.7699,-4.7699,-4.7699,-4.7699,-4.7735,-4.7989,-4.7989,-4.788,-4.7916,-4.8131,-4.8178,-4.8075,-4.8028,-4.7897,-4.7837,-4.7589,-4.7021,-4.6473,-4.6029,-4.5333,-4.4782,-4.4489,-4.4522,-4.4506,-4.4307,-4.4108,-4.434,-4.4257,-4.4141,-4.4274,-4.4423,-4.4423,-4.4473,-4.4406,-4.4406,-4.4589,-4.4475,-4.4081,-4.3814,-4.3523,-4.3396,-4.3234,-4.3099,-4.2911,-4.3056,-4.2884,-4.2658,-4.2417,-4.2447,-4.2432,-4.2357,-4.2243,-4.1989,-4.1599,-4.1088,-4.0588,-4.0282,-4.01,-4.8818,-4.8891,-4.8873,-4.8891,-4.8945,-4.8963,-4.8547,-4.7986,-4.8511,-4.8384,-4.7826,-4.7699,-4.7699,-4.7699,-4.7699,-4.7699,-4.7699,-4.7699,-4.7699,-4.7753,-4.7787,-4.7844,-4.7735,-4.7844,-4.8221,-4.871,-4.8891,-4.9311,-4.9822,-5.0053,-5.0546,-5.109,-5.1303,-5.1719,-5.2281,-5.2498,-5.2498,-5.2498,-5.2498,-5.2498,-5.2498,-5.2498,-5.2498,-5.2498,-5.2498,-5.2498,-5.2498,-5.2353,-5.1647,-5.0144,-4.8713,-4.788,-4.7717,-4.7699,-4.7699,-4.7699,-4.7699,-4.7699,-4.7699,-4.7699,-4.7699,-4.7753,-4.8312,-4.8601,-4.8058,-4.8529,-4.8945,-4.8902,-4.8568,-4.8443,-4.8748,-4.8645,-4.8369,-4.8065,-4.7083,-4.6352,-4.5943,-4.5765,-4.5533,-4.5616,-4.5715,-4.5533,-4.4821,-4.5284,-4.5235,-4.5052,-4.5265,-4.5433,-4.55,-4.5417,-4.5665,-4.5616,-4.5367,-4.5185,-4.4773,-4.3929,-4.3682,-4.3737,-4.3434,-4.3071,-4.3123,-4.3276,-4.332,-4.3115,-4.2981,-4.3125,-4.3046,-4.2812,-4.2585,-4.2292,-4.1838,-4.143,-4.1101,-4.0773,-4.0607,-4.8348,-4.8873,-4.8891,-4.9238,-4.9745,-4.9782,-4.9329,-4.8637,-4.8782,-4.8514,-4.7844,-4.7699,-4.7699,-4.7699,-4.7699,-4.7699,-4.7717,-4.7735,-4.7699,-4.7808,-4.833,-4.8185,-4.7932,-4.8312,-4.8692,-4.8999,-4.9546,-4.989,-5.0148,-5.0723,-5.1086,-5.1303,-5.1882,-5.2226,-5.248,-5.2498,-5.2498,-5.2498,-5.2498,-5.2498,-5.2498,-5.2498,-5.2498,-5.2498,-5.2498,-5.2498,-5.2426,-5.19,-5.1176,-5.013,-4.8568,-4.7717,-4.7717,-4.7699,-4.7699,-4.7699,-4.7699,-4.7699,-4.7699,-4.7699,-4.7699,-4.779,-4.8493,-4.8782,-4.8637,-4.9329,-4.9665,-4.9672,-4.9585,-4.9397,-4.917,-4.9062,-4.8817,-4.8222,-4.7419,-4.6878,-4.6606,-4.6129,-4.5798,-4.5798,-4.5864,-4.5765,-4.5665,-4.5715,-4.5798,-4.5632,-4.5748,-4.5947,-4.6096,-4.6063,-4.6162,-4.5897,-4.5698,-4.5632,-4.5268,-4.4347,-4.3931,-4.4062,-4.366,-4.2919,-4.3054,-4.3312,-4.3229,-4.3056,-4.2996,-4.3056,-4.2926,-4.2691,-4.2533,-4.244,-4.2315,-4.196,-4.1636,-4.1307,-4.1203,-4.9184,-4.9872,-4.9546,-4.9854,-5.056,-5.0619,-4.9945,-4.913,-4.9257,-4.8749,-4.7916,-4.7699,-4.7699,-4.7699,-4.7699,-4.7699,-4.7714,-4.8061,-4.8203,-4.8369,-4.9039,-4.913,-4.8912,-4.9257,-4.9564,-4.9945,-5.0361,-5.08,-5.1162,-5.1593,-5.1774,-5.1882,-5.2263,-5.248,-5.2498,-5.2498,-5.2498,-5.2498,-5.2498,-5.2498,-5.2498,-5.2498,-5.2498,-5.2498,-5.2498,-5.2498,-5.2389,-5.1719,-5.0945,-5.0057,-4.8912,-4.8061,-4.7735,-4.7699,-4.7699,-4.7699,-4.7699,-4.7699,-4.7699,-4.7699,-4.7699,-4.7935,-4.8713,-4.913,-4.918,-4.9828,-5.0439,-5.0068,-4.9895,-4.9529,-4.9194,-4.8954,-4.8606,-4.8161,-4.7781,-4.7517,-4.7355,-4.7007,-4.6758,-4.6709,-4.6709,-4.656,-4.6361,-4.6493,-4.6493,-4.6444,-4.6626,-4.6758,-4.6841,-4.6709,-4.6626,-4.6527,-4.6477,-4.6527,-4.6142,-4.5233,-4.4176,-4.4266,-4.3725,-4.2975,-4.2995,-4.325,-4.3189,-4.3076,-4.3036,-4.2915,-4.2769,-4.2622,-4.2603,-4.2545,-4.2607,-4.2397,-4.1964,-4.1715,-4.1638,-5.0434,-5.1104,-5.0311,-5.051,-5.1158,-5.1158,-5.0307,-4.9365,-4.9582,-4.9039,-4.7935,-4.7699,-4.7699,-4.7699,-4.7717,-4.7772,-4.7895,-4.8511,-4.8999,-4.9365,-4.989,-5.0202,-5.0361,-5.0198,-5.0524,-5.1031,-5.1303,-5.1756,-5.21,-5.2371,-5.2444,-5.2389,-5.2462,-5.2498,-5.2498,-5.2498,-5.2498,-5.2498,-5.2498,-5.2498,-5.2498,-5.2498,-5.2498,-5.2498,-5.2498,-5.2498,-5.2335,-5.1828,-5.1144,-5.0275,-4.9401,-4.8619,-4.8007,-4.7953,-4.7916,-4.8025,-4.8079,-4.795,-4.8025,-4.8188,-4.8061,-4.8369,-4.9474,-4.9908,-4.9698,-5.0412,-5.0827,-5.0375,-4.9573,-4.9148,-4.8859,-4.8386,-4.8147,-4.8017,-4.7951,-4.7984,-4.8001,-4.8001,-4.8001,-4.8001,-4.7968,-4.7636,-4.7438,-4.7487,-4.7719,-4.7106,-4.7289,-4.7404,-4.7471,-4.7438,-4.7487,-4.757,-4.757,-4.757,-4.6962,-4.6205,-4.5089,-4.4345,-4.3647,-4.3075,-4.2996,-4.3106,-4.3071,-4.2996,-4.2809,-4.2688,-4.2581,-4.25,-4.25,-4.2474,-4.2407,-4.2284,-4.2087,-4.1968,-4.1884,-4.9619,-5.0311,-4.9492,-4.9981,-5.1067,-5.0637,-5.0166,-4.9782,-4.9329,-4.8637,-4.7862,-4.7699,-4.7699,-4.7699,-4.779,-4.8043,-4.8586,-4.8945,-4.9506,-5.0778,-5.0904,-5.1452,-5.1647,-5.1339,-5.1158,-5.147,-5.1955,-5.2299,-5.248,-5.2498,-5.2498,-5.2498,-5.2498,-5.2498,-5.2498,-5.2498,-5.2498,-5.2498,-5.2498,-5.2498,-5.2498,-5.2498,-5.2498,-5.2498,-5.2498,-5.2498,-5.248,-5.2335,-5.1846,-5.0941,-4.9818,-4.9184,-4.9166,-4.8405,-4.8387,-4.9039,-4.8931,-4.8894,-4.9383,-4.9438,-4.9528,-4.9528,-5.0253,-5.0914,-5.0723,-5.0904,-5.1094,-5.0673,-4.9808,-4.8906,-4.8368,-4.8147,-4.8001,-4.8001,-4.8001,-4.8001,-4.8001,-4.8001,-4.8001,-4.8001,-4.8001,-4.7934,-4.7752,-4.7802,-4.7885,-4.7785,-4.7835,-4.7984,-4.8001,-4.8001,-4.8001,-4.8001,-4.7737,-4.7506,-4.709,-4.6185,-4.4909,-4.4088,-4.3449,-4.2996,-4.2915,-4.293,-4.285,-4.2743,-4.2555,-4.2433,-4.2392,-4.2269,-4.2242,-4.2216,-4.2175,-4.2133,-4.2133,-4.2092,-4.2092,-4.9927,-5.0506,-4.9401,-4.9601,-5.0583,-5.0293,-4.9872,-4.9528,-4.909,-4.8438,-4.7826,-4.7699,-4.7699,-4.7753,-4.8076,-4.8529,-4.9018,-4.9764,-5.0687,-5.1647,-5.1864,-5.21,-5.2317,-5.2136,-5.1864,-5.1937,-5.2245,-5.248,-5.2498,-5.2498,-5.2498,-5.2498,-5.2498,-5.2498,-5.2498,-5.2498,-5.2498,-5.2498,-5.2498,-5.2498,-5.2498,-5.2498,-5.2498,-5.2498,-5.2498,-5.2498,-5.2498,-5.248,-5.2263,-5.1683,-5.0705,-4.9981,-5.0003,-4.9311,-4.9365,-4.9764,-4.9764,-4.9619,-4.9999,-5.0112,-5.0075,-5.0166,-5.085,-5.109,-5.1148,-5.1204,-5.0981,-5.0452,-4.9612,-4.8714,-4.8115,-4.8001,-4.8001,-4.8001,-4.8001,-4.8001,-4.8001,-4.8001,-4.8001,-4.8001,-4.8001,-4.8001,-4.8001,-4.8001,-4.7984,-4.7885,-4.7885,-4.8001,-4.8001,-4.8001,-4.8001,-4.7902,-4.7555,-4.7237,-4.6949,-4.5992,-4.4471,-4.3674,-4.3121,-4.2809,-4.2662,-4.2662,-4.2622,-4.2514,-4.2407,-4.2325,-4.2257,-4.2133,-4.2092,-4.2133,-4.2133,-4.2092,-4.2092,-4.2092,-4.2092,-5.051,-5.0977,-4.9401,-4.9202,-4.9818,-4.9749,-4.9401,-4.8963,-4.8746,-4.8275,-4.7808,-4.7699,-4.779,-4.8022,-4.8547,-4.8927,-4.9673,-5.0687,-5.1828,-5.2281,-5.2353,-5.2408,-5.2462,-5.2426,-5.2389,-5.248,-5.248,-5.2498,-5.2498,-5.2498,-5.2498,-5.2498,-5.2498,-5.2498,-5.2498,-5.2498,-5.2498,-5.2498,-5.2498,-5.2498,-5.2498,-5.2498,-5.2498,-5.2498,-5.2498,-5.2498,-5.2498,-5.2498,-5.2462,-5.2462,-5.1828,-5.1158,-5.0615,-5.0148,-5.0347,-5.042,-5.0416,-5.0474,-5.0687,-5.0651,-5.0615,-5.0488,-5.1067,-5.1311,-5.1245,-5.0939,-5.0529,-4.9873,-4.911,-4.8497,-4.8066,-4.8001,-4.8001,-4.8001,-4.8001,-4.8001,-4.8001,-4.8001,-4.8001,-4.8001,-4.8001,-4.8001,-4.8001,-4.8001,-4.8001,-4.8001,-4.8001,-4.8001,-4.8001,-4.8001,-4.8001,-4.7787,-4.7454,-4.6499,-4.606,-4.5665,-4.4128,-4.3379,-4.2809,-4.2581,-4.2433,-4.2392,-4.2392,-4.2407,-4.2298,-4.2216,-4.2175,-4.2133,-4.2092,-4.2092,-4.2092,-4.2092,-4.2092,-4.2092,-4.2092,-5.0184,-5.0184,-4.8568,-4.8369,-4.8909,-4.8405,-4.846,-4.871,-4.8206,-4.7862,-4.7735,-4.7717,-4.8058,-4.8565,-4.8782,-4.9619,-5.0796,-5.1774,-5.2299,-5.248,-5.2498,-5.2498,-5.2498,-5.2498,-5.2498,-5.2498,-5.2498,-5.2498,-5.2498,-5.2498,-5.2498,-5.2498,-5.2498,-5.2498,-5.2498,-5.2498,-5.2498,-5.2498,-5.2498,-5.2498,-5.2498,-5.2498,-5.2498,-5.2498,-5.2498,-5.2498,-5.2498,-5.2498,-5.2498,-5.248,-5.2353,-5.219,-5.1756,-5.0854,-5.0927,-5.1502,-5.1375,-5.1307,-5.1719,-5.1955,-5.2045,-5.2136,-5.2072,-5.1778,-5.1279,-5.0619,-4.997,-4.9261,-4.8623,-4.8115,-4.8033,-4.8001,-4.8001,-4.8001,-4.8001,-4.8001,-4.8001,-4.8001,-4.8001,-4.8001,-4.8001,-4.8001,-4.8001,-4.8001,-4.8001,-4.8001,-4.8001,-4.8001,-4.8001,-4.8001,-4.8001,-4.7704,-4.7337,-4.6147,-4.5058,-4.4646,-4.3834,-4.3155,-4.2622,-4.2433,-4.2284,-4.216,-4.2175,-4.2216,-4.2216,-4.2133,-4.2092,-4.2092,-4.2092,-4.2092,-4.2092,-4.2092,-4.2092,-4.2092,-4.2092,-5.0112,-4.993,-4.8369,-4.7913,-4.817,-4.7859,-4.7916,-4.8206,-4.7862,-4.7699,-4.7699,-4.7753,-4.8149,-4.8837,-4.9401,-5.0416,-5.1701,-5.2263,-5.2498,-5.2498,-5.2498,-5.2498,-5.2498,-5.2498,-5.2498,-5.2498,-5.2498,-5.2498,-5.2498,-5.2498,-5.2498,-5.2498,-5.2498,-5.2498,-5.2498,-5.2498,-5.2498,-5.2498,-5.2498,-5.2498,-5.2498,-5.2498,-5.2498,-5.2498,-5.2498,-5.2498,-5.2498,-5.2498,-5.2498,-5.2498,-5.248,-5.2498,-5.2263,-5.1973,-5.1629,-5.2263,-5.2118,-5.2027,-5.2408,-5.2498,-5.2444,-5.2397,-5.2168,-5.1725,-5.1078,-5.0269,-4.9317,-4.8637,-4.8275,-4.8001,-4.8001,-4.8001,-4.8001,-4.8001,-4.8001,-4.8001,-4.8001,-4.8001,-4.8001,-4.8001,-4.8001,-4.8001,-4.8001,-4.8001,-4.8001,-4.8001,-4.8001,-4.8001,-4.8001,-4.8001,-4.8001,-4.7387,-4.6828,-4.552,-4.4396,-4.3834,-4.3576,-4.293,-4.2474,-4.2284,-4.2175,-4.2133,-4.2092,-4.2133,-4.2092,-4.2092,-4.2092,-4.2092,-4.2092,-4.2092,-4.2092,-4.2092,-4.2092,-4.2092,-4.2063,-5.0112,-4.9967,-4.8369,-4.7699,-4.7699,-4.7699,-4.7717,-4.7699,-4.7717,-4.7699,-4.7735,-4.7935,-4.8442,-4.9257,-5.0216,-5.1321,-5.248,-5.2498,-5.2498,-5.2498,-5.2498,-5.2498,-5.2498,-5.2462,-5.2389,-5.2136,-5.2462,-5.248,-5.2498,-5.2498,-5.2498,-5.2498,-5.2498,-5.2498,-5.2498,-5.2498,-5.2498,-5.2498,-5.2498,-5.2498,-5.2498,-5.2498,-5.2498,-5.2498,-5.2498,-5.2498,-5.2498,-5.2498,-5.2498,-5.2498,-5.2498,-5.2498,-5.2498,-5.2498,-5.248,-5.2498,-5.2498,-5.2498,-5.2498,-5.2498,-5.2475,-5.2428,-5.1732,-5.1294,-5.0643,-4.9688,-4.8637,-4.8147,-4.8001,-4.8001,-4.8001,-4.8001,-4.8001,-4.8001,-4.8001,-4.8001,-4.8001,-4.8001,-4.8001,-4.8001,-4.8001,-4.8001,-4.8001,-4.8001,-4.8001,-4.8001,-4.8001,-4.8001,-4.8001,-4.8001,-4.782,-4.7032,-4.6182,-4.4871,-4.3834,-4.3155,-4.297,-4.2729,-4.2392,-4.216,-4.2133,-4.2092,-4.2092,-4.2092,-4.2092,-4.2092,-4.2092,-4.2092,-4.2092,-4.2092,-4.2092,-4.2092,-4.2092,-4.2034,-4.1976,-5.0112,-4.9967,-4.8369,-4.7699,-4.7699,-4.7699,-4.7699,-4.7699,-4.7699,-4.7699,-4.7753,-4.8438,-4.9148,-5.0126,-5.1466,-5.2208,-5.2444,-5.2498,-5.2498,-5.2498,-5.2498,-5.2498,-5.248,-5.2498,-5.2027,-5.1719,-5.21,-5.2462,-5.2335,-5.2335,-5.2498,-5.2498,-5.2498,-5.2498,-5.2498,-5.2498,-5.2498,-5.2498,-5.2498,-5.2498,-5.2498,-5.2498,-5.2498,-5.2498,-5.2498,-5.2498,-5.2498,-5.2498,-5.2498,-5.2498,-5.2498,-5.2498,-5.2498,-5.2498,-5.2498,-5.2498,-5.2498,-5.2498,-5.2498,-5.2498,-5.2364,-5.2162,-5.159,-5.0929,-4.9998,-4.9067,-4.8195,-4.8066,-4.8001,-4.8001,-4.8001,-4.8001,-4.8001,-4.8001,-4.8001,-4.8001,-4.8001,-4.8001,-4.8001,-4.8001,-4.8001,-4.8001,-4.8001,-4.8001,-4.8001,-4.8001,-4.8001,-4.8001,-4.7935,-4.7853,-4.7118,-4.6202,-4.5608,-4.4396,-4.3536,-4.2784,-4.2581,-4.2514,-4.2284,-4.2092,-4.2092,-4.2092,-4.2092,-4.2092,-4.2092,-4.2092,-4.2092,-4.2092,-4.2092,-4.2092,-4.2092,-4.2092,-4.2092,-4.199,-4.1787,-4.9673,-4.9967,-4.8369,-4.7699,-4.7699,-4.7699,-4.7699,-4.7699,-4.7699,-4.7699,-4.7862,-4.8547,-4.9582,-5.085,-5.2027,-5.2462,-5.2498,-5.2498,-5.2498,-5.248,-5.248,-5.2462,-5.2353,-5.2045,-5.152,-5.1303,-5.1158,-5.0995,-5.1339,-5.2045,-5.248,-5.2426,-5.248,-5.2498,-5.2426,-5.248,-5.2498,-5.2498,-5.2498,-5.2498,-5.2498,-5.2498,-5.2498,-5.2498,-5.2498,-5.2498,-5.2498,-5.2498,-5.2498,-5.2498,-5.2498,-5.2498,-5.2498,-5.2498,-5.2498,-5.2498,-5.2498,-5.2498,-5.2498,-5.2457,-5.2186,-5.1658,-5.1025,-5.0122,-4.911,-4.8418,-4.8001,-4.8001,-4.8001,-4.8001,-4.8001,-4.8001,-4.8001,-4.8001,-4.8001,-4.8001,-4.8001,-4.8001,-4.8001,-4.8001,-4.8001,-4.8001,-4.8001,-4.8001,-4.8001,-4.8001,-4.7968,-4.7968,-4.7754,-4.7454,-4.6413,-4.5064,-4.4571,-4.3989,-4.3275,-4.2581,-4.2514,-4.2392,-4.2242,-4.2092,-4.2092,-4.2092,-4.2092,-4.2092,-4.2092,-4.2092,-4.2092,-4.2092,-4.2092,-4.2092,-4.2092,-4.2092,-4.2034,-4.1541,-4.1152,-4.9257,-4.9637,-4.8279,-4.7699,-4.7699,-4.7699,-4.7699,-4.7699,-4.7699,-4.7826,-4.8239,-4.909,-5.0343,-5.143,-5.219,-5.2498,-5.2498,-5.2498,-5.2498,-5.2462,-5.2299,-5.2154,-5.1864,-5.1411,-5.0868,-5.0741,-5.0492,-5.0144,-5.0325,-5.0977,-5.1737,-5.1919,-5.1973,-5.21,-5.2226,-5.2371,-5.2498,-5.2498,-5.2498,-5.2498,-5.2498,-5.2498,-5.2498,-5.2498,-5.2498,-5.2498,-5.2498,-5.2498,-5.2498,-5.2498,-5.2498,-5.2498,-5.2498,-5.2498,-5.2498,-5.2434,-5.2304,-5.2096,-5.2078,-5.203,-5.1732,-5.1051,-5.0289,-4.9376,-4.8386,-4.8001,-4.8001,-4.8001,-4.8001,-4.8001,-4.8001,-4.8001,-4.8001,-4.8001,-4.8001,-4.8001,-4.8001,-4.8001,-4.8001,-4.8001,-4.8001,-4.8001,-4.8001,-4.8001,-4.8001,-4.8001,-4.7968,-4.7902,-4.7454,-4.6931,-4.583,-4.4426,-4.3741,-4.3394,-4.297,-4.2474,-4.2392,-4.231,-4.216,-4.2092,-4.2092,-4.2092,-4.2092,-4.2092,-4.2092,-4.2092,-4.2092,-4.2092,-4.2092,-4.2092,-4.2092,-4.2092,-4.1918,-4.1352,-4.0601,-4.8927,-4.8891,-4.8079,-4.7699,-4.7699,-4.7699,-4.7699,-4.7735,-4.7735,-4.8203,-4.9112,-5.0325,-5.1411,-5.2208,-5.2371,-5.2498,-5.2498,-5.2498,-5.2389,-5.2154,-5.181,-5.143,-5.1104,-5.056,-4.9872,-4.9474,-4.9474,-4.9401,-4.9329,-4.9727,-5.0198,-5.0365,-5.1158,-5.1362,-5.1706,-5.2172,-5.2462,-5.2498,-5.2498,-5.2498,-5.2498,-5.2498,-5.2498,-5.2498,-5.2498,-5.2498,-5.2498,-5.2498,-5.2498,-5.2498,-5.2498,-5.2498,-5.2498,-5.2498,-5.2498,-5.2215,-5.1848,-5.154,-5.1302,-5.1276,-5.0929,-5.0195,-4.9436,-4.8776,-4.8115,-4.8001,-4.8001,-4.8001,-4.8001,-4.8001,-4.8001,-4.8001,-4.8001,-4.8001,-4.8001,-4.8001,-4.8001,-4.8001,-4.8001,-4.8001,-4.8001,-4.8001,-4.8001,-4.8001,-4.8001,-4.8001,-4.7605,-4.7488,-4.6673,-4.606,-4.5211,-4.4098,-4.314,-4.2703,-4.2555,-4.2325,-4.2242,-4.2201,-4.2133,-4.2092,-4.2092,-4.2092,-4.2092,-4.2092,-4.2092,-4.2092,-4.2092,-4.2092,-4.2092,-4.2092,-4.2063,-4.1961,-4.1541,-4.0916,-4.0083,-4.817,-4.8134,-4.7805,-4.7699,-4.7699,-4.7699,-4.7699,-4.7808,-4.8221,-4.9202,-5.0379,-5.1049,-5.1737,-5.2299,-5.2498,-5.2498,-5.2408,-5.1937,-5.1828,-5.1484,-5.1013,-5.0615,-5.0271,-4.9836,-4.922,-4.8873,-4.8822,-4.8568,-4.8257,-4.8659,-4.8586,-4.9075,-5.0343,-5.1126,-5.1579,-5.1937,-5.2371,-5.2498,-5.2498,-5.2498,-5.2498,-5.2498,-5.2498,-5.2498,-5.2498,-5.2498,-5.2498,-5.2498,-5.2498,-5.2498,-5.2498,-5.2498,-5.2457,-5.2457,-5.2233,-5.1873,-5.1378,-5.085,-5.0262,-5.0317,-5.0234,-4.9524,-4.8807,-4.826,-4.8001,-4.8001,-4.8001,-4.8001,-4.8001,-4.8001,-4.8001,-4.8001,-4.8001,-4.8001,-4.8001,-4.8001,-4.8001,-4.8001,-4.8001,-4.8001,-4.8001,-4.8001,-4.8001,-4.8001,-4.8001,-4.7968,-4.7488,-4.6947,-4.606,-4.5285,-4.4441,-4.3702,-4.2809,-4.2392,-4.2284,-4.2175,-4.2092,-4.2092,-4.2092,-4.2092,-4.2092,-4.2092,-4.2092,-4.2092,-4.2092,-4.2092,-4.2092,-4.2092,-4.2092,-4.2092,-4.1918,-4.1715,-4.1163,-4.0441,-3.9438,-4.7699,-4.7699,-4.7699,-4.7699,-4.7699,-4.7699,-4.7699,-4.7844,-4.8529,-4.9818,-5.1285,-5.1538,-5.1937,-5.2389,-5.2498,-5.2263,-5.2027,-5.1593,-5.1194,-5.0723,-5.018,-4.98,-4.9474,-4.9039,-4.8493,-4.8384,-4.8094,-4.7753,-4.7769,-4.7717,-4.7844,-4.846,-4.9492,-5.0271,-5.0723,-5.1593,-5.2226,-5.2444,-5.2498,-5.2498,-5.2498,-5.2498,-5.2498,-5.2498,-5.2498,-5.2498,-5.2498,-5.2498,-5.2498,-5.2498,-5.2498,-5.2498,-5.241,-5.2233,-5.1848,-5.1378,-5.0779,-5.0122,-4.9583,-4.9184,-4.9317,-4.8745,-4.8386,-4.8082,-4.8001,-4.8001,-4.8001,-4.8001,-4.8001,-4.8001,-4.8001,-4.8001,-4.8001,-4.8001,-4.8001,-4.8001,-4.8001,-4.8001,-4.8001,-4.8001,-4.8001,-4.8001,-4.782,-4.7737,-4.7454,-4.7454,-4.727,-4.6429,-4.5264,-4.4479,-4.3843,-4.314,-4.2474,-4.2242,-4.2133,-4.2092,-4.2092,-4.2092,-4.2092,-4.2092,-4.2092,-4.2092,-4.2092,-4.2092,-4.2092,-4.2092,-4.2092,-4.2092,-4.2092,-4.2092,-4.1802,-4.1439,-4.0538,-3.978,-3.8657,-4.7699,-4.7699,-4.7699,-4.7696,-4.779,-4.7735,-4.7772,-4.7971,-4.8764,-4.9981,-5.1411,-5.2082,-5.2371,-5.2462,-5.2408,-5.2009,-5.1502,-5.1194,-5.0741,-5.0017,-4.9311,-4.8985,-4.8674,-4.8257,-4.7968,-4.779,-4.7699,-4.7699,-4.7699,-4.7699,-4.7699,-4.7862,-4.8637,-4.9347,-4.9202,-5.056,-5.1683,-5.2389,-5.248,-5.2498,-5.2498,-5.2498,-5.2498,-5.2498,-5.2498,-5.2498,-5.2498,-5.2498,-5.2498,-5.2498,-5.2498,-5.2434,-5.2322,-5.1782,-5.1378,-5.1078,-4.9924,-4.9287,-4.905,-4.8433,-4.826,-4.8227,-4.8049,-4.8033,-4.8001,-4.8001,-4.8001,-4.8001,-4.8001,-4.8001,-4.8001,-4.8001,-4.8001,-4.8001,-4.8001,-4.8001,-4.8001,-4.8001,-4.8001,-4.8001,-4.8001,-4.7968,-4.7704,-4.7438,-4.6999,-4.6811,-4.6811,-4.5989,-4.4646,-4.3819,-4.326,-4.2809,-4.2242,-4.216,-4.2092,-4.2092,-4.2092,-4.2092,-4.2092,-4.2092,-4.2092,-4.2092,-4.2092,-4.2092,-4.2092,-4.2092,-4.2092,-4.2092,-4.2092,-4.2034,-4.1512,-4.0978,-4.004,-3.9061,-3.7949,-4.7699,-4.7699,-4.7699,-4.8004,-4.8438,-4.8514,-4.8493,-4.8749,-4.9908,-5.1086,-5.1955,-5.2426,-5.2498,-5.2371,-5.1937,-5.152,-5.1158,-4.9927,-4.942,-4.9257,-4.8511,-4.8206,-4.8007,-4.7916,-4.7699,-4.7699,-4.7699,-4.7699,-4.7699,-4.7699,-4.7699,-4.7844,-4.8113,-4.9021,-5.018,-5.1212,-5.1683,-5.2353,-5.2498,-5.2498,-5.248,-5.2498,-5.2498,-5.2498,-5.2498,-5.2498,-5.2498,-5.2498,-5.2498,-5.2498,-5.2498,-5.2322,-5.2006,-5.1396,-5.0894,-5.0324,-4.9248,-4.8883,-4.8528,-4.8082,-4.8033,-4.8001,-4.8001,-4.8001,-4.8001,-4.8001,-4.8001,-4.8001,-4.8001,-4.8001,-4.8001,-4.8001,-4.8001,-4.8001,-4.8001,-4.8001,-4.8001,-4.8001,-4.8001,-4.8001,-4.8001,-4.7935,-4.7754,-4.6965,-4.6448,-4.5758,-4.5613,-4.5211,-4.4051,-4.3379,-4.2769,-4.2514,-4.2133,-4.2133,-4.2092,-4.2092,-4.2092,-4.2092,-4.2092,-4.2092,-4.2092,-4.2092,-4.2092,-4.2092,-4.2092,-4.2092,-4.2092,-4.2092,-4.2092,-4.1918,-4.116,-4.0253,-3.9242,-3.8277,-3.7282,-4.7699,-4.7699,-4.7699,-4.817,-4.8818,-4.8891,-4.9162,-4.9818,-5.0868,-5.1737,-5.2353,-5.248,-5.2281,-5.1991,-5.1574,-5.076,-5.0434,-4.951,-4.8623,-4.8475,-4.7986,-4.7826,-4.7753,-4.7699,-4.7699,-4.7699,-4.7699,-4.7699,-4.7699,-4.7699,-4.7699,-4.7699,-4.7735,-4.8695,-4.9854,-5.0379,-5.0923,-5.1593,-5.1991,-5.2172,-5.2353,-5.2498,-5.2498,-5.2498,-5.2498,-5.2498,-5.2498,-5.2498,-5.2498,-5.2498,-5.2387,-5.2162,-5.1633,-5.0999,-5.0417,-4.9571,-4.8855,-4.8513,-4.8147,-4.8033,-4.8001,-4.8001,-4.8001,-4.8001,-4.8001,-4.8001,-4.8001,-4.8001,-4.8001,-4.8001,-4.8001,-4.8001,-4.8001,-4.8001,-4.8001,-4.8001,-4.8001,-4.8001,-4.8001,-4.8001,-4.7886,-4.7853,-4.7521,-4.6638,-4.583,-4.5064,-4.4343,-4.3897,-4.356,-4.3036,-4.25,-4.2284,-4.2107,-4.2092,-4.2092,-4.2092,-4.2092,-4.2092,-4.2092,-4.2092,-4.2092,-4.2092,-4.2092,-4.2092,-4.2092,-4.2092,-4.2092,-4.2078,-4.184,-4.1258,-4.0449,-3.9479,-3.8406,-3.7326,-3.6266,-4.7699,-4.7699,-4.7714,-4.8242,-4.8891,-4.9199,-5.0017,-5.1249,-5.1339,-5.1828,-5.2498,-5.2426,-5.2027,-5.1411,-5.1212,-5.0361,-4.9271,-4.8891,-4.8405,-4.7989,-4.7753,-4.7699,-4.7699,-4.7699,-4.7699,-4.7699,-4.7699,-4.7699,-4.7699,-4.7699,-4.7699,-4.7699,-4.7699,-4.8442,-4.8981,-4.9434,-5.0162,-5.1122,-5.1792,-5.2063,-5.2389,-5.2498,-5.2498,-5.2498,-5.2498,-5.2498,-5.2498,-5.2498,-5.2498,-5.2475,-5.2387,-5.1915,-5.1302,-5.0564,-4.9827,-4.911,-4.8371,-4.8147,-4.8033,-4.8001,-4.8001,-4.8001,-4.8001,-4.8001,-4.8001,-4.8001,-4.8001,-4.8001,-4.8001,-4.8001,-4.8001,-4.8001,-4.8001,-4.8001,-4.8001,-4.8001,-4.8001,-4.8001,-4.8001,-4.7935,-4.777,-4.7521,-4.6896,-4.6115,-4.5085,-4.4426,-4.3702,-4.318,-4.285,-4.2809,-4.2392,-4.2201,-4.2092,-4.2092,-4.2092,-4.2092,-4.2092,-4.2092,-4.2092,-4.2092,-4.2092,-4.2092,-4.2092,-4.2092,-4.2092,-4.2092,-4.2092,-4.1769,-4.1334,-4.0627,-3.9717,-3.8463,-3.7305,-3.602,-3.4944,-4.7699,-4.7772,-4.8333,-4.9021,-4.9854,-5.0959,-5.1756,-5.2136,-5.2154,-5.2317,-5.2444,-5.1882,-5.152,-5.1212,-5.0126,-4.9401,-4.8818,-4.8348,-4.8004,-4.7772,-4.7699,-4.7699,-4.7699,-4.7699,-4.7699,-4.7699,-4.7699,-4.7699,-4.7699,-4.7699,-4.7699,-4.7699,-4.7699,-4.8185,-4.8619,-4.8909,-5.0017,-5.0977,-5.1683,-5.2118,-5.2371,-5.2498,-5.2498,-5.2498,-5.2498,-5.2498,-5.2498,-5.2498,-5.2452,-5.2317,-5.1891,-5.1327,-5.0769,-4.9901,-4.908,-4.8418,-4.8082,-4.8001,-4.8001,-4.8001,-4.8001,-4.8001,-4.8001,-4.8001,-4.8001,-4.8001,-4.8001,-4.8001,-4.8001,-4.8001,-4.8001,-4.8001,-4.8001,-4.8001,-4.8001,-4.8001,-4.8001,-4.8001,-4.7968,-4.7704,-4.7555,-4.6896,-4.6272,-4.5217,-4.4259,-4.3672,-4.3126,-4.2622,-4.2325,-4.2366,-4.2325,-4.2133,-4.2092,-4.2092,-4.2092,-4.2092,-4.2092,-4.2092,-4.2092,-4.2092,-4.2092,-4.2092,-4.2092,-4.2092,-4.2092,-4.2092,-4.2092,-4.163,-4.0957,-3.9857,-3.886,-3.7499,-3.6164,-3.5008,-3.4102,-4.7898,-4.8242,-4.8692,-4.9546,-5.0709,-5.1937,-5.2498,-5.2498,-5.2498,-5.2498,-5.2408,-5.1665,-5.1104,-5.0615,-4.9564,-4.8746,-4.8369,-4.8025,-4.7735,-4.7735,-4.7699,-4.7699,-4.7699,-4.7699,-4.7699,-4.7699,-4.7699,-4.7699,-4.7699,-4.7699,-4.7699,-4.7699,-4.7699,-4.8206,-4.8746,-4.9311,-5.0108,-5.0995,-5.1701,-5.2136,-5.2371,-5.2498,-5.2498,-5.2498,-5.2498,-5.2498,-5.2498,-5.2498,-5.2298,-5.2,-5.1404,-5.0823,-5.0118,-4.911,-4.8606,-4.8049,-4.8033,-4.8001,-4.8001,-4.8001,-4.8001,-4.8001,-4.8001,-4.8001,-4.8001,-4.8001,-4.8001,-4.8001,-4.8001,-4.8001,-4.8001,-4.8001,-4.8001,-4.8001,-4.8001,-4.8001,-4.8001,-4.8001,-4.7787,-4.7454,-4.6947,-4.6272,-4.5416,-4.4335,-4.3515,-4.3046,-4.2714,-4.2433,-4.2216,-4.2216,-4.2216,-4.2148,-4.2092,-4.2092,-4.2092,-4.2092,-4.2092,-4.2092,-4.2092,-4.2092,-4.2092,-4.2092,-4.2092,-4.2092,-4.2092,-4.1953,-4.166,-4.1113,-4.0419,-3.9255,-3.8021,-3.6677,-3.5487,-3.4435,-3.3674,-4.8242,-4.8873,-4.9036,-5.0071,-5.1393,-5.2208,-5.2498,-5.2498,-5.2498,-5.2498,-5.2335,-5.1538,-5.0764,-5.0144,-4.913,-4.8348,-4.8043,-4.7753,-4.7699,-4.7699,-4.7699,-4.7699,-4.7699,-4.7699,-4.7699,-4.7699,-4.7699,-4.7699,-4.7699,-4.7699,-4.7699,-4.7699,-4.7699,-4.8206,-4.913,-4.9401,-5.0216,-5.143,-5.1611,-5.1774,-5.2317,-5.2498,-5.2498,-5.2498,-5.2498,-5.2498,-5.2457,-5.2322,-5.2078,-5.1572,-5.0955,-5.0335,-4.9304,-4.8543,-4.8163,-4.8033,-4.8001,-4.8001,-4.8001,-4.8001,-4.8001,-4.8001,-4.8001,-4.8001,-4.8001,-4.8001,-4.8001,-4.8001,-4.8001,-4.8001,-4.8001,-4.8001,-4.8001,-4.8001,-4.8001,-4.8001,-4.8001,-4.7935,-4.7671,-4.7236,-4.6397,-4.5706,-4.4728,-4.3726,-4.3006,-4.2541,-4.231,-4.2133,-4.2133,-4.2133,-4.2133,-4.2107,-4.2092,-4.2092,-4.2092,-4.2092,-4.2092,-4.2092,-4.2092,-4.2092,-4.2092,-4.2092,-4.2092,-4.1995,-4.1856,-4.1381,-4.0972,-4.0303,-3.9508,-3.8448,-3.7198,-3.5915,-3.4818,-3.3946,-3.3424,-4.871,-4.9018,-5.0216,-5.1321,-5.2154,-5.2408,-5.2498,-5.2498,-5.2498,-5.2462,-5.2226,-5.1108,-5.0293,-4.9872,-4.8641,-4.7898,-4.779,-4.7699,-4.7699,-4.7699,-4.7699,-4.7699,-4.7699,-4.7699,-4.7699,-4.7699,-4.7699,-4.7699,-4.7699,-4.7699,-4.7699,-4.7699,-4.7753,-4.8297,-4.9456,-4.9619,-5.0198,-5.1719,-5.1719,-5.181,-5.2371,-5.2498,-5.2498,-5.2498,-5.2498,-5.2457,-5.2345,-5.2024,-5.1768,-5.1355,-5.0304,-4.9368,-4.8339,-4.8195,-4.8115,-4.8033,-4.8001,-4.8001,-4.8001,-4.8001,-4.8001,-4.8001,-4.8001,-4.8001,-4.8001,-4.8001,-4.8001,-4.8001,-4.8001,-4.8001,-4.8001,-4.8001,-4.8001,-4.8001,-4.8001,-4.8001,-4.7968,-4.7754,-4.7571,-4.6742,-4.5869,-4.4995,-4.4021,-4.3245,-4.2581,-4.2242,-4.2201,-4.2092,-4.2092,-4.2092,-4.2092,-4.2092,-4.2092,-4.2092,-4.2092,-4.2092,-4.2092,-4.2092,-4.2092,-4.2092,-4.2092,-4.2092,-4.2051,-4.1814,-4.1535,-4.0972,-4.0216,-3.9121,-3.8262,-3.7502,-3.6509,-3.5302,-3.4584,-3.3753,-3.3351,-4.9329,-5.009,-5.1303,-5.2082,-5.2444,-5.2498,-5.2498,-5.2426,-5.2118,-5.1955,-5.1792,-5.0687,-4.9908,-4.951,-4.8242,-4.7699,-4.7699,-4.7699,-4.7699,-4.7699,-4.7699,-4.7699,-4.7699,-4.7699,-4.7699,-4.7699,-4.7699,-4.7699,-4.7699,-4.7699,-4.7699,-4.7699,-4.7808,-4.8315,-4.9474,-4.9528,-5.018,-5.181,-5.1756,-5.2063,-5.248,-5.2498,-5.2498,-5.2498,-5.2498,-5.241,-5.2048,-5.1669,-5.12,-5.0497,-4.9385,-4.8779,-4.8179,-4.8082,-4.8066,-4.8033,-4.8001,-4.8001,-4.8001,-4.8001,-4.8001,-4.8001,-4.8001,-4.8001,-4.8001,-4.8001,-4.8001,-4.8001,-4.8001,-4.8001,-4.8001,-4.8001,-4.8001,-4.8001,-4.7935,-4.7886,-4.7588,-4.7253,-4.6569,-4.5593,-4.4825,-4.422,-4.3403,-4.2809,-4.2242,-4.216,-4.2092,-4.2092,-4.2092,-4.2092,-4.2092,-4.2092,-4.2092,-4.2092,-4.2092,-4.2092,-4.2092,-4.2092,-4.2092,-4.2092,-4.2092,-4.2092,-4.1995,-4.1717,-4.1212,-4.0532,-3.9637,-3.8509,-3.7658,-3.7019,-3.5935,-3.4783,-3.4177,-3.3676,-3.3146,-4.9999,-5.1484,-5.219,-5.248,-5.2498,-5.2498,-5.2498,-5.2371,-5.1665,-5.123,-5.1031,-5.0275,-4.9528,-4.8858,-4.8076,-4.7862,-4.7699,-4.7699,-4.7699,-4.7699,-4.7699,-4.7699,-4.7699,-4.7699,-4.7699,-4.7699,-4.7699,-4.7699,-4.7699,-4.7699,-4.7699,-4.7699,-4.788,-4.817,-4.8985,-4.9619,-5.0416,-5.1484,-5.1919,-5.2263,-5.2426,-5.2498,-5.2498,-5.2498,-5.2434,-5.2162,-5.1768,-5.1278,-5.0634,-4.9751,-4.8748,-4.8292,-4.8066,-4.8033,-4.8033,-4.8001,-4.8001,-4.8001,-4.8001,-4.8001,-4.8001,-4.8001,-4.8001,-4.8001,-4.8001,-4.8001,-4.8001,-4.8001,-4.8001,-4.8001,-4.8001,-4.8001,-4.8001,-4.8001,-4.7886,-4.7671,-4.722,-4.6777,-4.5809,-4.4759,-4.4074,-4.3491,-4.2941,-4.2351,-4.2175,-4.2092,-4.2092,-4.2092,-4.2092,-4.2092,-4.2092,-4.2092,-4.2092,-4.2092,-4.2092,-4.2092,-4.2092,-4.2092,-4.2092,-4.2092,-4.2092,-4.2092,-4.1912,-4.1535,-4.0986,-4.0043,-3.9108,-3.8024,-3.7256,-3.664,-3.5537,-3.4545,-3.4225,-3.3643,-3.289,-5.0796,-5.2281,-5.2444,-5.2498,-5.2498,-5.2498,-5.2498,-5.2371,-5.1629,-5.0959,-5.0271,-4.9546,-4.8963,-4.8837,-4.8058,-4.7735,-4.7699,-4.7699,-4.7699,-4.7699,-4.7699,-4.7699,-4.7699,-4.7699,-4.7699,-4.7699,-4.7699,-4.7699,-4.7699,-4.7699,-4.7699,-4.7699,-4.7699,-4.8333,-4.9528,-4.9981,-5.0198,-5.1339,-5.181,-5.1973,-5.2426,-5.2498,-5.2498,-5.2498,-5.2498,-5.1988,-5.1472,-5.0929,-5.0265,-4.9462,-4.8656,-4.8212,-4.8033,-4.8001,-4.8001,-4.8001,-4.8001,-4.8001,-4.8001,-4.8001,-4.8001,-4.8001,-4.8001,-4.8001,-4.8001,-4.8001,-4.8001,-4.8001,-4.8001,-4.8001,-4.8001,-4.8001,-4.8001,-4.8001,-4.7935,-4.7454,-4.6931,-4.6448,-4.5722,-4.469,-4.375,-4.3205,-4.2648,-4.2284,-4.2133,-4.2092,-4.2092,-4.2092,-4.2092,-4.2092,-4.2092,-4.2092,-4.2092,-4.2092,-4.2092,-4.2092,-4.2092,-4.2092,-4.2092,-4.2092,-4.2092,-4.2092,-4.1856,-4.1296,-4.0317,-3.9299,-3.8373,-3.7625,-3.7036,-3.6326,-3.524,-3.4396,-3.4115,-3.3551,-3.2757]},{"header":{"parameterUnit":"m.s-1","parameterCategory":1,"la1":31.0,"la2":29.5877,"lo1":-88.7671,"lo2":-86.6584,"dx":0.0162,"dy":0.0185,"nx":115,"ny":88,"refTime":"2023-01-06T06:00:00:Z","depth":0,"parameterNumber":3,"parameterNumberName":"V-component_of_WINDS"},"data":[0.0,0.0,0.0,0.0,0.0,0.0,0.0,0.0,0.0,0.0,0.0,0.0,0.0,0.0,0.0,0.0,0.0,0.0,0.0,0.0,0.0,0.0,0.0,0.0,0.0,0.0,0.0,0.0,0.0,0.0,0.0,0.0,0.0,0.0,0.0,0.0,0.0,0.0,0.0,0.0,0.0,0.0,0.0,0.0,0.0,0.0,0.0,0.0,0.0,0.0,0.0,0.0,0.0,0.0,0.0,0.0,0.0,0.0,0.0,0.0,0.0,0.0,0.0,0.0,0.0,0.0,0.0,0.0,0.0,0.0,0.0,0.0,0.0,0.0,0.0,0.0,0.0,0.0,0.0,0.0,0.0,0.0,0.0,0.0,0.0,0.0,0.0,0.0,0.0,0.0,0.0,0.0,0.0,0.0,0.0,0.0,0.0,0.0,0.0,0.0,0.0,0.0,0.0,0.0,0.0,0.0,0.0,0.0,0.0,0.0,0.0,0.0,0.0,0.0,0.0,0.0,0.0,0.0,0.0,0.0,0.0,0.0,0.0,0.0,0.0,0.0,0.0,0.0,0.0,0.0,0.0,0.0,0.0,0.0,0.0,0.0,0.0,0.0,0.0,0.0,0.0,0.0,0.0,0.0,0.0,0.0,0.0,0.0,0.0,0.0,0.0,0.0,0.0,0.0,0.0,0.0,0.0,0.0,0.0,0.0,0.0,0.0,0.0,0.0,0.0,0.0,0.0,0.0,0.0,0.0,0.0,0.0,0.0,0.0,0.0,0.0,0.0,0.0,0.0,0.0,0.0,0.0,0.0,0.0,0.0,0.0,0.0,0.0,0.0,0.0,0.0,0.0,0.0,0.0,0.0,0.0,0.0,0.0,0.0,0.0,0.0,0.0,0.0,0.0,0.0,0.0,0.0,0.0,0.0,0.0,0.0,0.0,0.0,0.0,0.0,0.0,0.0,0.0,0.0,0.0,0.0,0.0,0.0,0.0,0.0,0.0,0.0,0.0,0.0,0.0,0.0,0.0,0.0,0.0,0.0,0.0,0.0,0.0,0.0,0.0,0.0,0.0,0.0,0.0,0.0,0.0,0.0,0.0,0.0,0.0,0.0,0.0,0.0,0.0,0.0,0.0,0.0,0.0,0.0,0.0,0.0,0.0,0.0,0.0,0.0,0.0,0.0,0.0,0.0,0.0,0.0,0.0,0.0,0.0,0.0,0.0,0.0,0.0,0.0,0.0,0.0,0.0,0.0,0.0,0.0,0.0,0.0,0.0,0.0,0.0,0.0,0.0,0.0,0.0,0.0,0.0,0.0,0.0,0.0,0.0,0.0,0.0,0.0,0.0,0.0,0.0,0.0,0.0,0.0,0.0,0.0,0.0,0.0,0.0,0.0,0.0,0.0,0.0,0.0,0.0,0.0,0.0,0.0,0.0,0.0,0.0,0.0,0.0,0.0,0.0,0.0,0.0,0.0,0.0,0.0,0.0,0.0,0.0,0.0,0.0,0.0,0.0,0.0,0.0,0.0,0.0,0.0,0.0,0.0,0.0,0.0,0.0,0.0,0.0,0.0,0.0,0.0,0.0,0.0,0.0,0.0,0.0,0.0,0.0,0.0,0.0,0.0,0.0,0.0,0.0,0.0,0.0,0.0,0.0,0.0,0.0,0.0,0.0,0.0,0.0,0.0,0.0,0.0,0.0,0.0,0.0,0.0,0.0,0.0,0.0,0.0,0.0,0.0,0.0,0.0,0.0,0.0,0.0,0.0,0.0,0.0,0.0,0.0,0.0,0.0,0.0,0.0,0.0,0.0,0.0,0.0,0.0,0.0,0.0,0.0,0.0,0.0,0.0,0.0,0.0,0.0,0.0,0.0,0.0,0.0,0.0,0.0,0.0,0.0,0.0,0.0,0.0,0.0,0.0,0.0,0.0,0.0,0.0,0.0,0.0,0.0,0.0,0.0,0.0,0.0,0.0,0.0,0.0,0.0,0.0,0.0,0.0,0.0,0.0,0.0,0.0,0.0,0.0,0.0,0.0,0.0,0.0,0.0,0.0,0.0,0.0,0.0,0.0,0.0,0.0,0.0,0.0,0.0,0.0,0.0,0.0,0.0,0.0,0.0,0.0,0.0,0.0,0.0,0.0,0.0,0.0,0.0,0.0,0.0,0.0,0.0,0.0,0.0,0.0,0.0,0.0,0.0,0.0,0.0,0.0,0.0,0.0,0.0,0.0,0.0,0.0,0.0,0.0,0.0,0.0,0.0,0.0,0.0,0.0,0.0,0.0,0.0,0.0,0.0,0.0,0.0,0.0,0.0,0.0,0.0,0.0,0.0,0.0,0.0,0.0,0.0,0.0,0.0,0.0,0.0,0.0,0.0,0.0,0.0,0.0,0.0,0.0,0.0,0.0,0.0,0.0,0.0,0.0,0.0,0.0,0.0,0.0,0.0,0.0,0.0,0.0,0.0,0.0,0.0,0.0,0.0,0.0,0.0,0.0,0.0,0.0,0.0,0.0,0.0,0.0,0.0,0.0,0.0,0.0,0.0,0.0,0.0,0.0,0.0,0.0,0.0,0.0,0.0,0.0,0.0,0.0,0.0,0.0,0.0,0.0,0.0,0.0,0.0,0.0,0.0,0.0,0.0,0.0,0.0,0.0,0.0,0.0,0.0,0.0,0.0,0.0,0.0,0.0,0.0,0.0,0.0,0.0,0.0,0.0,0.0,0.0,0.0,0.0,0.0,0.0,0.0,0.0,0.0,0.0,0.0,0.0,0.0,0.0,0.0,0.0,0.0,0.0,0.0,0.0,0.0,0.0,0.0,0.0,0.0,0.0,0.0,0.0,0.0,0.0,0.0,0.0,0.0,0.0,0.0,0.0,0.0,0.0,0.0,0.0,0.0,0.0,0.0,0.0,0.0,0.0,0.0,0.0,0.0,0.0,0.0,0.0,0.0,0.0,0.0,0.0,0.0,0.0,0.0,0.0,0.0,0.0,0.0,0.0,0.0,0.0,0.0,0.0,0.0,0.0,0.0,0.0,0.0,0.0,0.0,0.0,0.0,0.0,0.0,0.0,0.0,0.0,0.0,0.0,0.0,0.0,0.0,0.0,0.0,0.0,0.0,0.0,0.0,0.0,0.0,0.0,0.0,0.0,0.0,0.0,0.0,0.0,0.0,0.0,0.0,0.0,0.0,0.0,0.0,0.0,0.0,0.0,0.0,0.0,0.0,0.0,0.0,0.0,0.0,0.0,0.0,0.0,0.0,0.0,0.0,0.0,0.0,0.0,0.0,0.0,0.0,0.0,0.0,0.0,0.0,0.0,0.0,0.0,0.0,0.0,0.0,0.0,0.0,0.0,0.0,0.0,0.0,0.0,0.0,0.0,0.0,0.0,0.0,0.0,0.0,0.0,0.0,0.0,0.0,0.0,0.0,0.0,0.0,0.0,0.0,0.0,0.0,0.0,0.0,0.0,0.0,0.0,0.0,0.0,0.0,0.0,0.0,0.0,0.0,0.0,0.0,0.0,0.0,0.0,0.0,0.0,0.0,0.0,0.0,0.0,0.0,0.0,0.0,0.0,0.0,0.0,0.0,0.0,0.0,0.0,0.0,0.0,0.0,0.0,0.0,0.0,0.0,0.0,0.0,0.0,0.0,0.0,0.0,0.0,0.0,0.0,0.0,0.0,0.0,0.0,0.0,0.0,0.0,0.0,0.0,0.0,0.0,0.0,0.0,0.0,0.0,0.0,0.0,0.0,0.0,0.0,0.0,0.0,0.0,0.0,0.0,0.0,0.0,0.0,0.0,0.0,0.0,0.0,0.0,0.0,0.0,0.0,0.0,0.0,0.0,0.0,0.0,0.0,0.0,0.0,0.0,0.0,0.0,0.0,0.0,0.0,0.0,0.0,0.0,0.0,0.0,0.0,0.0,0.0,0.0,0.0,0.0,0.0,0.0,0.0,0.0,0.0,0.0,0.0,0.0,0.0,0.0,0.0,0.0,0.0,0.0,0.0,0.0,0.0,0.0,0.0,0.0,0.0,0.0,0.0,0.0,0.0,0.0,0.0,0.0,0.0,0.0,0.0,0.0,0.0,0.0,0.0,0.0,0.0,0.0,0.0,0.0,0.0,0.0,0.0,0.0,0.0,0.0,0.0,0.0,0.0,0.0,0.0,0.0,0.0,0.0,0.0,0.0,0.0,0.0,0.0,0.0,0.0,0.0,0.0,0.0,0.0,0.0,0.0,0.0,0.0,0.0,0.0,0.745,0.0,0.0,0.0,0.8729,0.0,0.0,0.0,0.0,0.0,0.0,0.0,0.0,0.0,0.0,0.0,0.0,0.0,0.0,0.0,0.0,0.0,0.0,0.0,0.0,0.0,0.0,0.0,0.0,0.0,0.0,0.0,0.0,0.0,0.0,0.0,0.0,0.0,0.0,0.0,0.0,0.0,0.0,0.0,0.0,0.0,0.0,0.0,0.0,0.0,0.0,0.0,0.0,0.0,0.0,0.0,0.0,0.0,0.0,0.0,0.0,0.0,0.0,0.0,0.0,0.0,0.0,0.0,0.0,0.0,0.0,0.0,0.0,0.0,0.0,0.0,0.0,0.0,0.0,0.0,0.0,0.0,0.0,0.0,0.0,0.0,0.0,0.0,0.0,0.0,0.0,0.0,0.0,0.0,0.0,0.0,0.0,0.0,0.0,0.0,0.0,0.0,0.0,0.0,0.0,0.0,0.0,0.0,0.0,0.0,0.0,0.0,0.0,0.0,0.0,0.7415,0.7756,0.8062,0.8354,0.8622,0.0,0.0,0.0,0.0,0.0,0.0,0.0,0.0,0.0,0.0,0.0,0.0,0.0,0.0,0.0,0.0,0.0,0.0,0.0,0.0,0.0,0.0,0.0,0.0,0.0,0.0,0.0,0.0,0.0,0.0,0.0,0.0,0.0,0.0,0.0,0.0,0.0,0.0,0.0,0.0,0.0,0.0,0.0,0.0,0.0,0.0,0.0,0.0,0.0,0.0,0.0,0.0,0.0,0.0,0.0,0.0,0.0,0.0,0.0,0.0,0.0,0.0,0.0,0.0,0.0,0.0,0.0,0.0,0.0,0.0,0.0,0.0,0.0,0.0,0.0,0.0,0.0,0.0,0.0,0.0,0.0,0.0,0.0,0.0,0.0,0.0,0.0,0.0,0.0,0.0,0.0,0.0,0.0,0.0,0.0,0.0,0.0,0.0,0.0,0.0,0.0,0.0,0.0,0.0,0.0,0.0,0.0,0.0,0.0,0.0,0.0,0.0,0.8081,0.8475,0.8692,0.0,0.0,0.0,0.0,0.0,0.0,0.0,0.0,0.0,0.0,0.0,0.0,0.0,0.0,0.0,0.0,0.0,0.0,0.0,0.0,0.0,0.0,0.0,0.0,0.0,0.0,0.0,0.0,0.0,0.0,0.0,0.0,0.0,0.0,0.0,0.0,0.0,0.0,0.0,0.0,0.0,0.0,0.0,0.0,0.0,0.0,0.0,0.0,0.0,0.0,0.0,0.0,0.0,0.0,0.0,0.0,0.0,0.0,0.0,0.0,0.0,0.0,0.0,0.0,0.0,0.0,0.0,0.0,0.0,0.0,0.0,0.0,0.0,0.0,0.0,0.0,0.0,0.0,0.0,0.0,0.0,0.0,0.0,0.0,0.0,0.0,0.0,0.0,0.0,0.0,0.0,0.0,0.0,0.0,0.0,0.0,0.0,0.0,0.0,0.0,0.0,0.0,0.0,0.0,0.0,0.0,0.0,0.0,0.0,0.0,0.7243,0.7911,0.8255,0.0,0.9116,0.0,0.0,0.0,0.0,0.0,0.0,0.0,0.0,0.0,0.0,0.0,0.0,0.0,0.0,0.0,0.0,0.0,0.0,0.0,0.0,0.0,0.0,0.0,0.0,0.0,0.0,0.0,0.0,0.0,0.0,0.0,0.0,0.0,0.0,0.0,0.0,0.0,0.0,0.0,0.0,0.0,0.0,0.0,0.0,0.0,0.0,0.0,0.0,0.0,0.0,0.0,0.0,0.0,0.0,0.0,0.0,0.0,0.0,0.0,0.0,0.0,0.0,0.0,0.0,0.0,0.0,0.0,0.0,0.0,0.0,0.0,0.0,0.0,0.0,0.0,0.0,0.0,0.0,0.0,0.0,0.0,0.0,0.0,0.0,0.0,0.0,0.0,0.0,0.0,0.0,0.0,0.0,0.0,0.0,0.0,0.0,0.0,0.0,0.0,0.0,0.0,0.0,0.0,0.0,0.0,0.0,0.0,0.0,0.0,0.0,0.7714,0.8329,0.896,0.9379,0.0,0.0,0.0,0.0,0.0,0.0,0.0,0.0,0.0,0.0,0.0,0.0,0.0,0.0,0.0,0.0,0.0,0.0,0.0,0.0,0.0,0.0,0.0,0.0,0.0,0.0,0.0,0.0,0.0,0.0,0.0,0.0,0.0,0.0,0.0,0.0,0.0,0.0,0.0,0.0,0.0,0.0,0.0,0.0,0.0,0.0,0.0,0.0,0.0,0.0,0.0,0.0,0.0,0.0,0.0,0.0,0.0,0.0,0.0,0.0,0.0,0.0,0.0,0.0,0.0,0.0,0.0,0.0,0.0,0.0,0.0,0.0,0.0,0.0,0.0,0.0,0.0,0.0,0.0,0.0,0.0,0.0,0.0,0.0,0.0,0.0,0.0,0.0,0.0,0.0,0.0,0.0,0.0,0.0,0.0,0.0,0.0,0.0,0.0,0.0,0.0,0.0,0.0,0.0,0.0,0.0,0.0,0.0,0.0,0.0,0.73,0.804,0.8736,0.9456,0.979,0.9674,0.0,0.0,0.0,0.0,0.0,0.0,0.0,0.0,0.0,0.0,0.0,0.0,0.0,0.0,0.0,0.0,0.0,0.0,0.0,0.0,0.0,0.0,0.0,0.0,0.0,0.0,0.0,0.0,0.0,0.0,0.0,0.0,0.0,0.0,0.0,0.0,0.0,0.0,0.0,0.0,0.0,0.0,0.0,0.0,0.0,0.0,0.0,0.0,0.0,0.0,0.0,0.0,0.0,0.0,0.0,0.0,0.0,0.0,0.0,0.0,0.0,0.0,0.0,0.0,0.0,0.0,0.0,0.0,0.0,0.0,0.0,0.0,0.0,0.0,0.0,0.0,0.0,0.0,0.0,0.0,0.0,0.0,0.0,0.0,0.0,0.0,0.0,0.0,0.0,0.0,0.0,0.0,0.0,0.0,0.0,0.0,0.0,0.0,0.0,0.0,0.0,0.0,0.0,0.0,0.0,0.0,0.0,0.0,0.7039,0.7332,0.8001,0.9148,0.9533,0.9596,0.0,0.0,0.0,0.0,0.0,0.0,0.0,0.0,0.0,0.0,0.0,0.0,0.0,0.0,0.0,0.0,0.0,0.0,0.0,0.0,0.0,0.0,0.0,0.0,0.0,0.0,0.0,0.0,0.0,0.0,0.0,0.0,0.0,0.0,0.0,0.0,0.0,0.0,0.0,0.0,0.0,0.0,0.0,0.0,0.0,0.0,0.0,0.0,0.0,0.0,0.0,0.0,0.0,0.0,0.0,0.0,0.0,0.0,0.0,0.0,0.0,0.0,0.0,0.0,0.0,0.0,0.0,0.0,0.0,0.0,0.0,0.0,0.0,0.0,0.0,0.0,0.0,0.0,0.0,0.0,0.0,0.0,0.0,0.0,0.0,0.0,0.0,0.0,0.0,0.0,0.0,0.0,0.0,0.0,0.0,0.0,0.0,0.0,0.0,0.0,0.0,0.0,0.0,0.0,0.0,0.0,0.0,0.0,0.0,0.7301,0.8403,0.9325,0.994,1.0003,0.9887,0.0,0.0,0.0,0.0,0.0,0.0,0.0,0.0,0.0,0.0,0.0,0.0,0.0,0.0,0.0,0.0,0.0,0.0,0.0,0.0,0.0,0.0,0.0,0.0,0.0,0.0,0.0,0.0,0.0,0.0,0.0,0.0,0.0,0.0,0.0,0.0,0.0,0.0,0.0,0.0,0.0,0.0,0.0,0.0,0.0,0.0,0.0,0.0,0.0,0.0,0.0,0.0,0.0,0.0,0.0,0.0,0.0,0.0,0.0,0.0,0.0,0.0,0.0,0.0,0.0,0.0,0.0,0.0,0.0,0.0,0.0,0.0,0.0,0.0,0.0,0.0,0.0,0.0,0.0,0.0,0.0,0.0,0.0,0.0,0.0,0.0,0.0,0.0,0.0,0.0,0.0,0.0,0.0,0.0,0.0,0.0,0.0,0.0,0.0,0.0,0.0,0.0,0.0,0.0,0.0,0.0,0.0,0.0,0.0,0.7812,0.9281,1.0176,1.0431,1.0443,1.0156,0.0,0.0,0.0,0.0,0.0,0.0,0.0,0.0,0.0,0.0,0.0,0.0,0.0,0.0,0.0,0.0,0.0,0.0,0.0,0.0,0.0,0.0,0.0,0.0,0.0,0.0,0.0,0.0,0.0,0.0,0.0,0.0,0.0,0.0,0.0,0.0,0.0,0.0,0.0,0.0,0.0,0.0,0.0,0.0,0.0,0.0,0.0,0.0,0.0,0.0,0.0,0.0,0.0,0.0,0.0,0.0,0.0,0.0,0.0,0.0,0.0,0.0,0.0,0.0,0.0,0.0,0.0,0.0,0.0,0.0,0.0,0.0,0.0,0.0,0.0,0.0,0.0,0.0,0.0,0.0,0.0,0.0,0.0,0.0,0.0,0.0,0.0,0.0,0.0,0.0,0.0,0.0,0.0,0.0,0.0,0.0,0.0,0.0,0.0,0.0,0.0,0.0,0.0,0.0,0.0,0.0,0.0,0.0,0.7115,0.8668,0.9754,1.0452,1.0615,1.0794,1.0371,0.0,0.0,0.0,0.0,0.0,0.0,0.0,0.0,0.0,0.0,0.0,0.0,0.0,0.0,0.0,0.0,0.0,0.0,0.0,0.0,0.0,0.0,0.0,0.0,0.0,0.0,0.0,0.0,0.0,0.0,0.0,0.0,0.0,0.0,0.0,0.0,0.0,0.0,0.0,0.0,0.0,0.0,0.0,0.0,0.0,0.0,0.0,0.0,0.0,0.0,0.0,0.0,0.0,0.0,0.0,0.0,0.0,0.0,0.0,0.0,0.0,0.0,0.0,0.0,0.0,0.0,0.0,0.0,0.0,0.0,0.0,0.0,0.0,0.0,0.0,0.0,0.0,0.0,0.0,0.0,0.0,0.0,0.0,0.0,0.0,0.0,0.0,0.0,0.0,0.0,0.0,0.0,0.0,0.0,0.0,0.0,0.0,0.0,0.0,0.0,0.0,0.0,0.0,0.0,0.0,0.0,0.0,0.0,0.0,0.9593,1.0695,1.1358,1.1528,1.1261,1.0686,0.0,0.0,0.0,0.0,0.0,0.0,0.0,0.0,0.0,0.0,0.0,0.0,0.0,0.0,0.0,0.0,0.0,0.0,0.0,0.0,0.0,0.0,0.0,0.0,0.0,0.0,0.0,0.0,0.0,0.0,0.0,0.0,0.0,0.0,0.0,0.0,0.0,0.0,0.0,0.0,0.0,0.0,0.0,0.0,0.0,0.0,0.0,0.0,0.0,0.0,0.0,0.0,0.0,0.0,0.0,0.0,0.0,0.0,0.0,0.0,0.0,0.0,0.0,0.0,0.0,0.0,0.0,0.0,0.0,0.0,0.0,0.0,0.0,0.0,0.0,0.0,0.0,0.0,0.0,0.0,0.0,0.0,0.0,0.0,0.0,0.0,0.0,0.0,0.0,0.0,0.0,0.0,0.0,0.0,0.0,0.0,0.0,0.0,0.0,0.0,0.0,0.0,0.0,0.0,0.0,0.0,0.0,0.0,0.0,1.1273,1.2069,1.2611,1.29,1.2451,1.1689,1.0615,0.0,0.0,0.0,0.0,0.0,0.0,0.0,0.0,0.0,0.0,0.0,0.0,0.0,0.0,0.0,0.0,0.0,0.0,0.0,0.0,0.0,0.0,0.0,0.0,0.0,0.0,0.0,0.0,0.0,0.0,0.0,0.0,0.0,0.0,0.0,0.0,0.0,0.0,0.0,0.0,0.0,0.0,0.0,0.0,0.0,0.0,0.0,0.0,0.0,0.0,0.0,0.0,0.0,0.0,0.0,0.0,0.0,0.0,0.0,0.0,0.0,0.0,0.0,0.0,0.0,0.0,0.0,0.0,0.0,0.0,0.0,0.0,0.0,0.0,0.0,0.0,0.0,0.0,0.0,0.0,0.0,0.0,0.0,0.0,0.0,0.0,0.0,0.0,0.0,0.0,0.0,0.0,0.0,0.0,0.0,0.0,0.0,0.0,0.0,0.0,0.0,0.0,0.0,0.0,0.0,0.0,0.0,0.0,1.3533,1.3862,1.4181,1.45,1.4126,1.3175,0.0,0.0,0.0,0.0,0.0,0.0,0.0,0.0,0.0,0.0,0.0,0.0,0.0,0.0,0.0,0.0,0.0,0.0,0.0,0.0,0.0,0.0,0.0,0.0,0.0,0.0,0.0,0.0,0.0,0.0,0.0,0.0,0.0,0.0,0.0,0.0,0.0,0.0,0.0,0.0,0.0,0.0,0.0,0.0,0.0,0.0,0.0,0.0,0.0,0.0,0.0,0.0,0.0,0.0,0.0,0.0,0.0,0.0,0.0,0.0,0.0,0.0,0.0,0.0,0.0,0.0,0.0,0.0,0.0,0.0,0.0,0.0,0.0,0.0,0.0,0.0,0.0,0.0,0.0,0.0,0.0,0.0,0.0,0.0,0.0,0.0,0.0,0.0,0.0,0.0,0.0,0.0,0.0,0.0,0.0,0.0,0.0,0.0,0.0,0.0,0.0,0.0,0.0,0.0,0.0,0.0,0.0,0.0,0.0,1.4467,1.5803,1.6323,1.6005,1.5087,1.392,0.0,0.0,0.0,0.0,0.0,0.0,0.0,0.0,0.0,0.0,0.0,0.0,0.0,0.0,0.0,0.0,0.0,0.0,0.0,0.0,0.0,0.0,0.0,0.0,0.0,0.0,0.0,0.0,0.0,0.0,0.0,0.0,0.0,0.0,0.0,0.0,0.0,0.0,0.0,0.0,0.0,0.0,0.0,0.0,0.0,0.0,0.0,0.0,0.0,0.0,0.0,0.0,0.0,0.0,0.0,0.0,0.0,0.0,0.0,0.0,0.0,0.0,0.0,0.0,0.0,0.0,0.0,0.0,0.0,0.0,0.0,0.0,0.0,0.0,0.0,0.0,0.0,0.0,0.0,0.0,0.0,0.0,0.0,0.0,0.0,0.0,0.0,0.0,0.0,0.0,0.0,0.0,0.0,0.0,0.0,0.0,0.0,0.0,0.0,0.0,0.0,0.0,0.0,0.0,0.0,0.0,0.0,0.0,1.3524,1.5495,1.6887,1.773,1.7952,1.6459,1.4963,0.0,0.0,0.0,0.0,0.0,0.0,0.0,0.0,0.0,0.0,0.0,0.0,0.0,0.0,0.0,0.0,0.0,0.0,0.0,0.0,0.0,0.0,0.0,0.0,0.0,0.0,0.0,0.0,0.0,0.0,0.0,0.0,0.0,0.0,0.0,0.0,0.0,0.0,0.0,0.0,0.0,0.0,0.0,0.0,0.0,0.0,0.0,0.0,0.0,0.0,0.0,0.0,0.0,0.0,0.0,0.0,0.0,0.0,0.0,0.0,0.0,0.0,0.0,0.0,0.0,0.0,0.0,0.0,0.0,0.0,0.0,0.0,0.0,0.0,0.0,0.0,0.0,0.0,0.0,0.0,0.0,0.0,0.0,0.0,0.0,0.0,0.0,0.0,0.0,0.0,0.0,0.0,0.0,0.0,0.0,0.0,0.0,0.0,0.0,0.0,0.0,0.0,0.0,0.0,0.0,0.0,0.0,0.0,1.4484,1.6405,1.7523,1.8629,1.9641,1.7862,1.6077,0.0,0.0,0.0,0.0,0.0,0.0,0.0,0.0,0.0,0.0,0.0,0.0,0.0,0.0,0.0,0.0,0.0,0.0,0.0,0.0,0.0,0.0,0.0,0.0,0.0,0.0,0.0,0.0,0.0,0.0,0.0,0.0,0.0,0.0,0.0,0.0,0.0,0.0,0.0,0.0,0.0,0.0,0.0,0.0,0.0,0.0,0.0,0.0,0.0,0.0,0.0,0.0,0.0,0.0,0.0,0.0,0.0,0.0,0.0,0.0,0.0,0.0,0.0,0.0,0.0,0.0,0.0,0.0,0.0,0.0,0.0,0.0,0.0,0.0,0.0,0.0,0.0,0.0,0.0,0.0,0.0,0.0,0.0,0.0,0.0,0.0,0.0,0.0,0.0,0.0,0.0,0.0,0.0,0.0,0.0,0.0,0.0,0.0,0.0,0.0,0.0,0.0,0.0,0.0,0.0,0.0,0.0,0.0,1.5313,1.6621,1.8511,1.948,1.9551,1.7862,1.6461,0.0,0.0,0.0,0.0,0.0,0.0,0.0,0.0,0.0,0.0,0.0,0.0,0.0,0.0,0.0,0.0,0.0,0.0,0.0,0.0,0.0,0.0,0.0,0.0,0.0,0.0,0.0,0.0,0.0,0.0,0.0,0.0,0.0,0.0,0.0,0.0,0.0,0.0,0.0,0.0,0.0,0.0,0.0,0.0,0.0,0.0,0.0,0.0,1.2193,0.0,0.0,0.0,0.0,0.0,0.0,0.0,0.0,0.0,0.0,0.0,0.0,0.0,0.0,0.0,0.0,0.0,0.0,0.0,0.0,0.0,0.0,0.0,0.0,0.0,0.0,0.0,0.0,0.0,0.0,0.0,0.0,0.0,0.0,0.0,0.0,0.0,0.0,0.0,0.0,0.0,0.0,0.0,0.0,0.0,0.0,0.0,0.0,0.0,0.0,0.0,0.0,0.0,0.0,0.0,0.0,0.0,0.0,0.0,1.6127,1.7927,1.9223,2.0011,2.0216,1.9011,1.7491,0.0,0.0,0.0,0.0,0.0,0.0,0.0,0.0,0.0,0.0,0.0,0.0,0.0,0.0,0.0,0.0,0.0,0.0,0.0,0.0,0.0,0.0,0.0,0.0,0.0,0.0,0.0,0.0,0.0,0.0,0.0,0.0,0.0,0.0,0.0,0.0,0.0,0.0,0.0,0.0,0.0,0.0,0.0,0.0,0.0,0.0,0.0,0.0,0.0,0.0,0.0,0.0,0.0,0.0,0.0,0.0,0.0,0.0,0.0,0.0,0.0,0.0,0.0,0.0,0.0,0.0,0.0,0.0,0.0,0.0,0.0,0.0,0.0,0.0,0.0,0.0,0.0,0.0,0.0,0.0,0.0,0.0,0.0,0.0,0.0,0.0,0.0,0.0,0.0,0.0,0.0,0.0,0.0,0.0,0.0,0.0,0.0,0.0,0.0,0.0,0.0,0.0,0.0,0.0,0.0,0.0,0.0,1.4622,1.6911,1.9241,1.9866,2.0423,2.102,2.0296,1.862,1.6001,0.0,0.0,0.0,0.0,0.0,0.0,0.0,0.0,0.0,0.0,0.0,0.0,0.0,0.0,0.0,0.0,0.0,0.0,0.0,0.0,0.0,0.0,0.0,0.0,0.0,0.0,0.0,0.0,0.0,0.0,0.0,0.0,0.0,0.0,0.0,0.0,0.0,0.0,1.0294,1.1236,0.0,0.0,0.0,0.0,0.0,0.0,0.0,0.0,1.2844,0.0,0.0,0.0,0.0,0.0,0.0,0.0,0.0,0.0,0.0,0.0,0.0,0.0,0.0,0.0,0.0,0.0,0.0,0.0,0.0,0.0,0.0,0.0,0.0,0.0,0.0,0.0,0.0,0.0,0.0,0.0,0.0,0.0,0.0,0.0,0.0,0.0,0.0,0.0,0.0,0.0,0.0,0.0,0.0,0.0,0.0,0.0,0.0,0.0,0.0,0.0,0.0,0.0,0.0,0.0,0.0,1.241,1.5065,1.7303,1.9108,2.0366,2.0956,2.0828,2.0524,1.9186,1.6872,0.0,0.0,0.0,0.0,0.0,0.0,0.0,0.0,0.0,0.0,0.0,0.0,0.0,0.0,0.0,0.0,0.0,0.0,0.0,0.0,0.0,0.0,0.0,0.0,0.0,0.0,0.0,0.0,0.0,0.0,0.0,0.0,0.0,0.0,0.0,0.0,0.0,0.0,0.0,1.2826,1.314,0.0,0.0,0.0,0.0,0.0,0.0,0.0,0.0,1.4428,0.0,0.0,0.0,0.0,0.0,0.0,0.0,0.0,0.0,0.0,0.0,0.0,0.0,0.0,0.0,0.0,0.0,0.0,0.0,0.0,0.0,0.0,0.0,0.0,0.0,0.0,0.0,0.0,0.0,0.0,0.0,0.0,0.0,0.0,0.0,0.0,0.0,0.0,0.0,0.0,0.0,0.0,0.0,0.0,0.0,0.0,0.0,0.0,0.0,0.0,0.0,0.0,0.0,0.0,0.0,1.268,1.5488,1.7796,1.9486,2.0613,2.1257,2.1278,2.072,1.9331,0.0,0.0,0.0,0.0,0.0,0.0,0.0,0.0,0.0,0.0,0.0,0.0,0.0,0.0,0.0,0.0,0.0,0.0,0.0,0.0,0.0,0.0,0.0,0.0,0.0,0.0,0.0,0.0,0.0,0.0,0.0,0.0,0.0,0.0,0.0,0.0,0.0,0.0,0.0,0.0,1.3898,1.4387,1.5223,0.0,0.0,0.0,0.0,0.0,0.0,1.5497,1.5032,0.0,0.0,0.0,0.0,0.0,0.0,0.0,0.0,0.0,0.0,0.0,0.0,0.0,0.0,0.0,0.0,0.0,0.0,0.0,0.0,0.0,0.0,0.0,0.0,0.0,0.0,0.0,0.0,0.0,0.0,0.0,0.0,0.0,0.0,0.0,0.0,0.0,0.0,0.0,0.0,0.0,0.0,0.0,0.0,0.0,0.0,0.0,0.0,0.0,0.0,0.0,0.0,0.0,0.0,0.0,1.2987,1.5842,1.8116,1.9817,2.076,2.1387,2.1749,2.0731,1.9135,0.0,0.0,0.0,0.0,0.0,0.0,0.0,0.0,0.0,0.0,0.0,0.0,0.0,0.0,0.0,0.0,0.0,0.0,0.0,0.0,0.0,0.0,0.0,0.0,0.0,0.0,0.0,0.0,0.0,0.0,0.0,0.0,0.0,0.0,0.0,0.0,0.0,0.0,0.0,0.0,0.0,1.5442,1.6522,1.5387,0.0,0.0,0.0,0.0,1.6499,1.6383,0.0,0.0,0.0,0.0,0.0,0.0,0.0,0.0,0.0,0.0,0.0,0.0,0.0,0.0,0.0,0.0,0.0,0.0,0.0,0.0,0.0,0.0,0.0,0.0,0.0,0.0,0.0,0.0,0.0,0.0,0.0,0.0,0.0,0.0,0.0,0.0,0.0,0.0,0.0,0.0,0.0,0.0,0.0,0.0,0.0,0.0,0.0,0.0,0.0,0.0,0.0,0.0,0.0,0.0,0.0,0.0,1.3266,1.5935,1.8125,1.9847,2.076,2.1397,2.1738,2.0131,1.8537,0.0,0.0,0.0,0.0,0.0,0.0,0.0,0.0,0.0,0.0,0.0,0.0,0.0,0.0,0.0,0.0,0.0,0.0,0.0,0.0,0.0,0.0,0.0,0.0,0.0,0.0,0.0,0.0,0.0,0.0,0.0,0.0,0.0,0.0,0.0,0.0,0.0,0.0,0.0,0.0,0.0,1.5957,1.7124,1.6271,1.5525,0.0,0.0,1.7454,1.8215,1.8761,0.0,0.0,0.0,0.0,0.0,0.0,0.0,0.0,0.0,0.0,0.0,0.0,0.0,0.0,0.0,0.0,0.0,0.0,0.0,0.0,0.0,0.0,0.0,0.0,0.0,0.0,0.0,0.0,0.0,0.0,0.0,0.0,0.0,0.0,0.0,0.0,0.0,0.0,0.0,0.0,0.0,0.0,0.0,0.0,0.0,0.0,0.0,0.0,0.0,0.0,0.0,0.0,0.0,0.0,0.0,1.1299,1.3324,1.619,1.8341,1.9698,2.0566,2.1205,2.1617,1.9897,1.8223,0.0,0.0,0.0,0.0,0.0,0.0,0.0,0.0,0.0,0.0,0.0,0.0,0.0,0.0,0.0,0.0,0.0,0.0,0.0,0.0,0.0,0.0,0.0,0.0,0.0,0.0,0.0,0.0,0.0,0.0,0.0,0.0,0.0,0.0,0.0,0.0,0.0,0.0,0.0,0.0,0.0,0.0,1.8035,1.7831,0.0,0.0,0.0,1.8523,1.8883,0.0,0.0,0.0,0.0,0.0,0.0,0.0,0.0,0.0,0.0,0.0,0.0,0.0,0.0,0.0,0.0,0.0,0.0,0.0,0.0,0.0,0.0,0.0,0.0,0.0,0.0,0.0,0.0,0.0,0.0,0.0,0.0,0.0,0.0,0.0,0.0,0.0,0.0,0.0,0.0,0.0,0.0,0.0,0.0,0.0,0.0,0.0,0.0,0.0,0.0,0.0,0.0,0.0,0.0,0.0,0.0,0.0,1.3232,1.6154,1.8112,1.9052,2.0058,2.0819,2.1189,1.9808,0.0,0.0,0.0,0.0,0.0,0.0,0.0,0.0,0.0,0.0,0.0,0.0,0.0,0.0,0.0,0.0,0.0,0.0,0.0,0.0,0.0,0.0,0.0,0.0,0.0,0.0,0.0,0.5835,0.0,0.0,0.0,0.0,0.0,0.0,0.0,0.0,0.0,0.0,0.0,0.0,0.0,0.0,1.75,1.8759,1.9208,1.9572,0.0,0.0,1.9661,1.9813,2.0373,1.999,0.0,0.0,0.0,0.0,0.0,0.0,0.0,0.0,0.0,0.0,0.0,0.0,0.0,0.0,0.0,0.0,0.0,0.0,0.0,0.0,0.0,0.0,0.0,0.0,0.0,0.0,0.0,0.0,0.0,0.0,0.0,0.0,0.0,0.0,0.0,0.0,0.0,0.0,0.0,0.0,0.0,0.0,0.0,0.0,0.0,0.0,0.0,0.0,0.0,0.0,0.0,0.0,0.0,0.0,1.1393,1.3033,1.5529,1.7105,1.7646,1.8977,1.9974,2.0514,2.0013,1.8986,0.0,0.0,0.0,0.0,0.0,0.0,0.0,0.0,0.0,0.0,0.0,0.0,0.0,0.0,0.0,0.0,0.0,0.0,0.0,0.0,0.0,0.0,0.0,0.0,0.0,0.0,0.0,0.0,0.0,0.0,0.0,0.0,0.0,0.0,0.0,0.0,0.0,0.0,0.0,0.0,0.0,1.7446,1.9112,2.0067,2.0591,0.0,2.1043,2.1373,2.1498,2.1982,2.1477,1.8878,0.0,0.0,0.0,0.0,0.0,0.0,0.0,0.0,0.0,0.0,0.0,0.0,0.0,0.0,0.0,0.0,0.0,0.0,0.0,0.0,0.0,0.0,0.0,0.0,0.0,0.0,0.0,0.0,0.0,0.0,0.0,0.0,0.0,0.0,0.0,0.0,0.0,0.0,0.0,0.0,0.0,0.0,0.0,0.0,0.0,0.0,0.0,0.0,0.0,0.0,0.0,0.0,0.0,1.1863,1.3797,1.6126,1.7661,1.8379,1.8977,1.9668,2.0609,2.0059,1.9085,0.0,0.0,0.0,0.0,0.0,0.0,0.0,0.0,0.0,0.0,0.0,0.0,0.0,0.0,0.0,0.0,0.0,0.0,0.0,0.0,0.0,0.0,0.0,0.0,0.0,0.0,0.0,0.0,1.1682,1.2236,1.1667,0.0,0.0,0.0,0.0,0.0,0.0,0.0,0.0,0.0,0.0,1.8075,1.9725,2.0592,0.0,0.0,2.2146,2.2259,2.1665,2.2407,2.2081,1.9307,1.7961,0.0,0.0,0.0,0.0,0.0,0.0,0.0,0.0,0.0,0.0,0.0,0.0,0.0,0.0,0.0,0.0,0.0,0.0,0.0,0.0,0.0,0.0,0.0,0.0,0.0,0.0,0.0,0.0,0.0,0.0,0.0,0.0,0.0,0.0,0.0,0.0,0.0,0.0,0.0,0.0,0.0,0.0,0.0,0.0,0.0,0.0,0.0,0.0,0.0,0.0,0.0,0.0,1.2074,1.405,1.6205,1.7628,1.8344,1.8549,1.905,1.9942,1.966,1.9122,0.0,0.0,0.0,0.0,0.0,0.0,0.0,0.0,0.0,0.0,0.0,0.0,0.0,0.0,0.0,0.0,0.0,0.0,0.0,0.0,0.0,0.0,0.0,0.0,0.0,0.0,0.0,0.0,1.2606,1.2565,1.0848,0.0,0.0,0.0,0.0,0.0,0.0,0.0,0.0,0.0,0.0,1.8731,2.0216,2.1091,2.1783,2.2261,2.2648,2.2603,2.1809,2.2426,2.222,1.9886,0.0,0.0,0.0,0.0,0.0,0.0,0.0,0.0,0.0,0.0,0.0,0.0,0.0,0.0,0.0,0.0,0.0,0.0,0.0,0.0,0.0,0.0,0.0,0.0,0.0,0.0,0.0,0.6304,0.0,0.0,0.5825,0.0,0.0,0.0,0.0,0.0,0.0,0.0,0.0,0.0,0.0,0.0,0.0,0.0,0.0,0.0,0.0,0.0,0.0,0.0,0.0,0.0,0.0,1.1914,1.3513,1.5492,1.6625,1.7002,1.7461,1.7922,1.841,1.8787,1.9101,1.9233,0.0,0.0,0.0,0.0,0.0,0.0,0.0,0.0,0.0,0.0,0.0,0.0,0.0,0.0,0.0,0.0,0.0,0.0,0.0,0.0,0.0,0.0,0.0,0.0,0.0,0.0,1.0156,1.1378,1.1655,0.0,0.0,0.0,0.0,0.0,0.0,0.0,0.0,0.0,1.5511,1.7589,1.9349,2.0604,2.1611,2.2265,2.2357,2.242,2.236,2.2105,2.2114,2.1786,0.0,0.0,0.0,0.0,0.0,0.0,0.0,0.0,0.0,0.0,0.0,0.0,0.0,0.0,0.0,0.0,0.0,0.0,0.0,0.0,0.0,0.0,0.0,0.0,0.0,0.0,0.0,0.8297,0.8209,0.0,0.0,0.0,0.0,0.0,0.0,0.0,0.0,0.0,0.0,0.0,1.1529,1.1655,0.0,0.0,0.0,0.0,0.0,0.0,0.0,0.0,0.0,0.0,0.0,0.0,1.2409,1.3843,1.5928,1.7062,1.7165,1.7338,1.7827,1.8605,1.8901,1.9059,1.9082,0.0,0.0,0.0,0.0,0.0,0.0,0.0,0.0,0.0,0.0,0.0,0.0,0.0,0.0,0.0,0.0,0.0,0.0,0.0,0.0,0.0,0.0,0.0,0.0,0.0,1.0644,0.0,0.0,0.0,0.0,0.0,0.0,0.0,0.0,0.0,0.0,1.2843,1.5029,1.6857,1.829,1.9717,2.1263,2.1453,2.1718,0.0,0.0,0.0,0.0,0.0,0.0,0.0,0.0,0.0,0.0,0.0,0.0,0.0,0.0,1.6748,1.4895,1.4124,1.3797,1.3986,0.0,0.0,0.0,0.0,0.0,0.0,0.0,0.0,0.0,0.0,0.0,0.0,0.0,0.0,0.9904,0.9691,0.9589,0.0,0.0,0.0,0.0,0.0,0.0,0.0,0.0,1.235,1.3126,1.3492,1.3499,1.3499,1.3477,1.3082,1.1941,0.0,0.0,0.0,0.0,0.0,0.0,0.0,0.0,1.2848,1.421,1.625,1.7286,1.7286,1.7286,1.7606,1.8241,1.8734,1.893,1.8846,1.8387,1.6906,0.0,0.0,0.0,0.0,0.0,0.0,0.0,0.0,0.0,0.0,0.0,0.0,0.0,0.0,0.0,0.0,0.0,0.0,0.0,0.0,0.0,0.0,0.0,1.1675,0.0,0.0,0.0,0.0,0.0,0.0,0.0,0.0,0.0,1.2556,1.467,1.6784,1.8335,1.9178,2.0154,2.1434,0.0,0.0,0.0,0.0,0.0,0.0,0.0,2.2775,2.2118,2.238,2.2397,2.1669,2.123,2.1154,2.1747,0.0,0.0,1.8694,1.7802,1.7561,1.789,1.7687,1.7838,1.9095,1.9497,1.9999,0.0,0.0,0.0,0.0,0.9381,0.0,0.0,0.0,1.1569,1.1379,0.0,1.1092,0.0,0.0,0.0,0.0,0.9785,1.1317,0.0,0.0,1.4615,1.5396,1.5396,1.5382,1.5452,1.5387,1.4223,1.3777,1.4012,1.2769,1.1303,0.0,0.0,0.0,0.0,0.0,1.3214,1.4531,1.6382,1.7286,1.7286,1.7286,1.7286,1.7326,1.8288,1.8704,1.8568,1.9029,1.8336,1.6243,1.4375,0.0,0.0,0.0,0.0,0.0,0.0,0.0,0.0,0.0,0.0,0.0,0.0,0.0,0.0,0.0,0.0,0.0,0.0,0.0,0.0,1.1622,0.0,0.0,0.0,0.0,0.0,0.0,0.0,0.0,0.0,1.4412,1.4811,1.6352,1.81,1.9885,0.0,0.0,0.0,0.0,2.1707,2.2038,2.2193,2.2389,2.2615,2.2987,2.353,2.432,0.0,0.0,2.4813,2.3923,2.3371,2.3979,2.4042,2.3552,2.1945,2.1194,2.0805,2.0817,2.0792,2.0993,2.1506,2.2033,2.2518,1.1693,0.0,0.0,0.0,0.0,1.1722,1.2501,1.3426,1.3791,1.3827,1.3638,1.3301,0.0,0.0,0.0,0.0,0.0,0.0,1.3777,1.4389,1.5301,1.5891,1.6096,1.6096,1.6221,1.647,1.6067,1.606,1.6345,1.5951,1.4258,1.1354,0.0,0.0,0.0,0.0,1.4209,1.5489,1.6711,1.7286,1.7286,1.7286,1.7286,1.7286,1.8288,1.8794,1.8736,1.9495,1.9117,1.7293,1.6146,0.0,0.0,0.0,0.0,0.0,0.0,0.0,0.0,0.0,0.0,0.0,0.0,0.0,0.0,0.0,0.0,0.0,0.0,0.0,1.0615,1.2758,1.3386,0.0,0.0,0.0,0.0,0.0,0.0,0.0,0.0,0.0,1.7683,1.8165,1.8998,0.0,0.0,2.1096,2.2213,2.2122,2.2203,2.2962,2.2836,0.0,2.318,2.3883,2.4417,2.4348,2.4895,2.5511,2.5946,2.5724,2.5594,2.5757,2.5795,2.5619,2.5154,2.4268,2.3665,2.364,2.364,2.3803,2.4305,2.4556,2.4808,1.4122,1.3342,1.3056,1.2999,1.3172,1.3582,1.4287,1.5136,1.5374,1.5438,1.5279,1.5043,1.4216,1.2987,1.2658,0.0,0.0,0.0,1.497,1.5716,1.5972,1.633,1.6726,1.6668,1.6726,1.7018,1.666,1.6777,1.7311,1.6775,1.5635,1.3792,0.0,1.2958,1.3309,1.4136,1.5123,1.6272,1.7099,1.7582,1.7713,1.7534,1.7417,1.7333,1.7878,1.8195,1.8241,1.9155,1.8974,1.7615,1.7041,1.57,0.0,0.0,0.0,0.0,0.0,0.0,0.0,0.0,0.0,0.0,0.0,0.8887,0.8544,0.0,0.0,0.0,1.1438,1.1956,1.3903,1.4647,0.0,0.0,0.0,0.0,0.0,0.0,0.0,1.5352,1.7246,1.8785,1.9508,1.9745,2.0153,2.1098,2.1283,2.1653,2.2656,0.0,2.2788,2.3383,2.3339,2.336,2.3796,2.4419,2.4956,2.5266,2.5715,2.6317,2.7017,2.714,2.714,2.7153,2.7153,2.7153,2.714,2.6565,2.595,2.5561,2.5473,2.5586,2.5887,2.5937,2.6084,1.5798,1.5705,1.4671,1.4677,1.5366,1.5374,1.5784,1.6485,1.6492,1.6287,1.6052,1.6294,1.5802,1.4687,1.4379,0.0,1.5104,1.5403,1.6052,1.6925,1.6624,1.6755,1.7257,1.7026,1.7047,1.725,1.6469,1.6513,1.7242,1.6235,1.595,1.6536,1.595,1.5321,1.4768,1.5248,1.6016,1.7005,1.7552,1.7999,1.8291,1.8013,1.7699,1.7337,1.7323,1.7355,1.7333,1.8203,1.8241,1.7382,1.7321,1.6555,1.4961,0.0,0.0,0.0,0.0,0.0,0.0,0.0,0.0,0.0,0.0,0.0,0.0,0.0,0.0,1.4068,1.5128,0.0,1.8493,1.6853,0.0,0.0,0.0,1.5039,1.5067,1.619,1.7197,1.7621,0.0,0.0,2.0605,2.1055,2.1449,2.183,2.2039,2.229,2.2788,2.3104,2.3338,2.3573,2.3754,2.3974,2.4287,2.4684,2.5326,2.6514,2.6849,2.7052,2.7826,2.8047,2.8084,2.8034,2.8097,2.8084,2.8097,2.7984,2.7783,2.6801,2.6625,2.6625,2.6663,2.6675,2.6688,1.5798,1.5859,1.6327,1.665,1.6788,1.6788,1.6914,1.7099,1.7099,1.7062,1.6989,1.6859,1.6617,1.6323,1.6257,1.6389,1.6717,1.6843,1.695,1.7208,1.7135,1.7186,1.7326,1.7245,1.7206,1.7279,1.7347,1.7472,1.7691,1.7647,1.7691,1.7823,1.7691,1.7172,1.6367,1.6485,1.6989,1.7947,1.8108,1.8218,1.8299,1.8225,1.8035,1.7713,1.7699,1.7582,1.7293,1.7512,1.7552,1.7318,1.7308,1.6913,1.6031,1.4252,0.0,0.0,0.0,0.0,0.0,0.0,0.0,0.0,0.0,1.1088,1.1241,0.0,1.4906,0.0,1.7187,1.7944,1.6882,1.7425,0.0,0.0,1.72,1.7246,1.7256,1.8672,1.9725,1.9832,2.0664,2.1338,2.1584,2.1943,2.2291,2.2584,2.2501,2.2645,2.3236,2.3536,2.3878,2.4168,2.4272,2.4377,2.4493,2.4736,2.5536,2.7145,2.704,2.7125,2.7963,2.8109,2.8109,2.8109,2.8109,2.8109,2.8147,2.8109,2.8047,2.777,2.7708,2.7708,2.772,2.7708,2.7708,1.5798,1.5893,1.685,1.7286,1.7286,1.7286,1.7286,1.7286,1.7286,1.7286,1.7318,1.7135,1.7069,1.7069,1.7062,1.7157,1.7279,1.7286,1.7286,1.7286,1.7286,1.7399,1.7498,1.7545,1.7625,1.7765,1.7947,1.8035,1.8043,1.8218,1.8299,1.8299,1.8299,1.8035,1.757,1.7501,1.7625,1.7867,1.8445,1.8664,1.8525,1.8518,1.8299,1.7838,1.7816,1.7614,1.7293,1.7286,1.726,1.7128,1.7121,1.6904,1.6415,1.4818,1.3394,0.0,0.0,0.0,0.0,0.0,0.0,0.0,0.0,0.0,0.0,0.0,1.7033,1.7334,1.89,1.9402,1.8208,1.875,1.9143,1.9111,1.9316,1.9531,1.9717,2.0615,2.1192,2.1192,2.1881,2.2345,2.2345,2.2784,2.3137,2.3275,2.3277,2.3375,2.3725,2.404,2.4271,2.4456,2.4507,2.4507,2.4507,2.4651,2.5231,2.6491,2.6881,2.7252,2.8133,2.8624,2.8863,2.885,2.8863,2.8863,2.8863,2.8863,2.8863,2.885,2.885,2.8674,2.8222,2.8109,2.8109,1.5912,1.6001,1.6968,1.7344,1.7384,1.7301,1.7286,1.7286,1.7286,1.7286,1.7286,1.7286,1.7286,1.7286,1.7286,1.7286,1.7286,1.733,1.7344,1.7391,1.7435,1.7604,1.7874,1.7882,1.8028,1.8299,1.8343,1.8364,1.8364,1.8408,1.8423,1.8423,1.843,1.8372,1.8255,1.8364,1.8145,1.7604,1.8657,1.9074,1.8803,1.8745,1.8438,1.7852,1.7816,1.7636,1.7406,1.7347,1.7201,1.6976,1.6917,1.6771,1.6463,1.5153,1.3933,0.0,1.189,0.0,0.0,0.0,0.0,0.0,0.0,0.0,0.0,1.7734,1.8711,1.9465,2.0253,2.0713,2.0772,2.0391,2.0478,2.1181,2.1327,2.1512,2.1914,2.2012,2.2041,2.2041,2.2594,2.2948,2.2968,2.3448,2.3754,2.381,2.3973,2.4166,2.4311,2.4442,2.4476,2.4507,2.4507,2.4507,2.4507,2.4497,2.484,2.5694,2.655,2.7395,2.8311,2.9199,2.9754,2.9741,2.9704,2.9729,2.9779,2.9754,2.9754,2.9704,2.9691,2.9415,2.8649,2.8436,2.8323,1.6619,1.6691,1.7389,1.7721,1.7706,1.7435,1.7286,1.7286,1.7286,1.7286,1.7286,1.7286,1.7286,1.7286,1.7286,1.7286,1.7301,1.7556,1.7728,1.7735,1.7999,1.8145,1.8211,1.8211,1.824,1.8313,1.8577,1.8694,1.8708,1.8964,1.914,1.9089,1.9096,1.8694,1.7991,0.0,0.0,0.0,1.8884,1.8855,1.8782,1.8533,1.8211,1.783,1.7816,0.0,1.7713,1.7425,1.725,1.723,1.6996,0.0,0.0,0.0,0.0,0.0,0.0,0.0,0.0,0.0,0.0,0.0,1.5211,1.5968,1.7054,1.8807,2.0159,2.0781,2.1016,2.125,2.1633,2.1572,2.1582,2.1748,2.207,2.2305,2.2393,2.2643,2.2857,2.2857,2.2969,2.3158,2.3394,2.3507,2.3741,2.4128,2.4163,2.4446,2.4926,2.4712,2.4518,2.4507,2.4559,2.4518,2.4507,2.4518,2.4775,2.5663,2.6524,2.7383,2.8303,2.9209,2.9792,2.9779,2.9779,2.9779,2.9779,2.9779,2.9779,2.9779,2.9779,2.9729,2.9528,2.9465,2.9478,1.7193,1.6773,1.7682,1.805,0.0,1.7874,1.7808,1.7738,1.7417,1.7286,1.7286,1.7286,1.7421,1.7505,1.7399,1.7508,1.7808,1.7816,1.7904,1.8064,1.8225,1.8394,1.854,1.8547,1.8621,1.8789,1.8957,1.903,1.9038,1.9191,1.9272,1.9272,1.9272,1.895,1.8335,1.8789,1.9118,1.9272,1.9111,1.903,1.9023,1.8869,1.8628,1.8313,1.8299,0.0,0.0,0.0,0.0,0.0,0.0,0.0,0.0,1.6243,0.0,1.5438,1.4849,1.4528,1.4535,1.4825,1.5318,1.5996,1.6869,1.7474,1.7765,1.9557,2.0906,2.1395,2.1874,2.2223,2.248,2.25,2.251,2.2519,2.2685,2.2779,2.2799,2.2955,2.3091,2.312,2.3418,2.3678,2.3953,2.4295,2.4618,2.4982,2.5036,2.5142,2.5416,2.5127,2.49,2.5106,2.4952,2.4838,2.4817,2.4621,2.4625,2.5179,2.6246,2.7191,2.773,2.891,2.9779,2.9779,2.9779,2.9779,2.9779,2.9779,2.9779,2.9779,2.9779,2.9779,2.9779,2.9779,2.9779,1.7301,1.6588,1.7603,1.8081,1.8081,1.8229,1.8299,1.8269,1.7728,0.0,0.0,1.7454,1.7647,1.7874,1.7618,1.7794,1.8277,1.8086,1.813,1.8394,1.8452,1.8613,1.8869,1.8877,1.9016,1.9272,1.9272,1.9272,1.9272,1.9272,1.9272,1.9272,1.9272,1.914,1.8891,1.8877,1.9008,1.9309,1.922,1.9191,1.9243,1.9133,1.8972,1.8708,1.8708,1.8599,1.8401,1.8335,1.8174,1.7911,1.7786,1.7494,1.7013,1.6675,1.625,1.5811,1.5725,1.576,1.5725,1.5973,1.6411,1.7035,1.8095,1.8754,1.8831,2.0202,2.1342,2.2102,2.272,2.3138,2.3325,2.3325,2.3325,2.3325,2.3325,2.3325,2.3325,2.3315,2.3364,2.3398,2.388,2.4302,2.4601,2.5108,2.5589,2.583,2.5813,2.5972,2.5927,2.5627,2.5451,2.5709,2.5513,2.5347,2.5295,2.5034,2.4745,2.4937,2.6147,2.7126,2.7579,2.8739,2.9756,2.998,2.9942,2.9917,2.9817,2.9779,2.9779,2.9779,2.9779,2.9779,2.9779,2.9779,2.9779,1.6169,1.6104,1.6917,1.7286,1.731,1.8017,1.8299,1.8299,1.8203,1.8167,1.816,1.8167,1.8189,1.8233,1.8182,1.8211,1.8313,1.854,1.8679,1.8738,1.9016,1.9162,1.9206,1.9206,1.9228,1.9272,1.9272,1.9272,1.9272,1.9272,1.9272,1.9272,1.9272,1.925,1.9206,1.9206,1.9228,1.9272,1.8994,1.8855,1.8855,1.8584,1.8423,1.8372,1.8379,1.8489,1.8708,1.846,1.8284,1.8218,1.7699,1.7347,1.726,1.6974,1.691,1.7001,1.7009,1.7009,1.7009,1.7106,1.7289,1.7655,1.813,1.8999,2.0432,2.0663,2.1685,2.3666,2.3251,2.3242,2.4045,2.4163,2.4134,2.4209,2.4219,2.4228,2.4189,2.418,2.418,2.418,2.4526,2.4804,2.5098,2.5417,2.5726,2.5881,2.6076,2.6096,2.6366,2.6127,2.5834,2.591,2.5834,2.5792,2.5771,2.5751,2.5616,2.5689,2.6494,2.7432,2.8097,2.9165,2.9992,3.0398,3.0428,3.0319,2.9942,2.9779,2.9817,2.9817,2.9779,2.9779,2.9779,2.9779,2.9779,1.5541,1.5108,1.6051,1.6794,1.742,1.8424,1.8825,1.8833,1.8825,1.8628,1.8313,1.8299,1.8401,1.8547,1.8379,1.8503,1.8833,1.8803,1.8884,1.906,1.9206,1.9272,1.9272,1.9272,1.9272,1.9272,1.9272,1.9272,1.9272,1.9272,1.9272,1.9272,1.9272,1.9272,1.9272,1.9272,1.9272,1.9272,1.9133,1.9052,1.9104,1.8906,1.8833,1.8833,1.8833,1.8891,1.9045,1.8906,1.8833,1.8833,1.8372,1.8123,1.8108,1.7647,1.7516,1.7823,1.7691,1.7669,1.7852,1.786,1.7918,1.8072,1.8211,1.8947,2.0507,2.0366,2.066,2.1821,2.2369,2.2981,2.3514,2.4034,2.4424,2.4424,2.4424,2.4424,2.4424,2.4424,2.4424,2.4443,2.4871,2.5252,2.5494,2.5985,2.6371,2.663,2.6667,2.677,2.6957,2.6765,2.6667,2.6656,2.647,2.6324,2.6293,2.602,2.5916,2.593,2.6628,2.7327,2.7918,2.8978,2.9953,3.0269,3.067,3.0781,3.0331,3.0244,3.0131,2.9817,2.9779,2.9779,2.9779,2.9779,2.9779,1.4798,1.4331,1.5441,1.6717,1.8062,1.8907,1.9272,1.9272,1.9272,1.8994,1.8562,1.8518,1.8664,1.8862,1.8628,1.8803,1.9199,1.9016,1.9082,1.9257,1.9272,1.9272,1.9272,1.9272,1.9272,1.9272,1.9272,1.9272,1.9272,1.9272,1.9272,1.9272,1.9272,1.9272,1.9272,1.9272,1.9272,1.9272,1.9272,1.9272,1.9272,1.9272,1.9272,1.9272,1.9272,1.936,1.9434,1.9381,1.9418,1.9462,1.9111,1.8899,1.8869,1.8284,1.8043,1.8247,1.8064,1.8035,1.8277,1.8372,1.8416,1.8416,1.8482,1.8964,1.9965,1.9894,2.0033,2.0753,2.204,2.2894,2.355,2.4211,2.4717,2.4717,2.4707,2.4756,2.4763,2.48,2.481,2.4933,2.5444,2.5889,2.6091,2.6571,2.703,2.721,2.732,2.732,2.732,2.732,2.732,2.7247,2.6998,2.6791,2.675,2.6511,2.6314,2.6241,2.6763,2.7473,2.8033,2.9251,3.0144,3.0543,3.1121,3.1279,3.0922,3.0783,3.057,3.0181,3.0043,2.9967,2.9817,2.9792,2.9779,1.3354,1.4326,1.5441,1.714,1.9011,1.9227,1.9272,1.9272,1.9272,1.9257,1.9155,1.9236,1.9177,1.922,1.9236,1.9206,1.9272,1.9242,1.9242,1.9272,1.9272,1.9272,1.9272,1.9272,1.9272,1.9272,1.9272,1.9272,1.9272,1.9272,1.9272,1.9272,1.9272,1.9272,1.9272,1.9272,1.9272,1.9272,1.9272,1.9272,1.9272,1.9272,1.9272,1.9272,1.9279,1.9418,1.9749,1.9771,1.985,2.0015,1.9542,1.9228,1.9177,1.8613,1.8269,1.8313,1.8284,1.8277,1.8328,1.8577,1.8745,1.8767,1.9001,1.9214,1.9406,1.9391,2.0629,2.2646,2.2863,2.3233,2.5101,2.5421,2.5431,2.544,2.5469,2.5654,2.5826,2.5933,2.602,2.628,2.6451,2.6791,2.674,2.704,2.7262,2.7309,2.732,2.732,2.732,2.732,2.732,2.732,2.7247,2.7226,2.7195,2.7226,2.7061,2.7092,2.7228,2.7929,2.9047,2.9826,3.0486,3.1302,3.1972,3.1897,3.1512,3.1298,3.1135,3.067,3.047,3.0369,2.9955,2.9842,2.988,1.4739,1.5227,1.5701,1.6823,1.8272,1.9004,1.9272,1.9272,1.9272,1.9272,1.9272,1.9272,1.9272,1.9272,1.9272,1.9272,1.9272,1.9272,1.9272,1.9272,1.9272,1.9272,1.9272,1.9272,1.9272,1.9272,1.9272,1.9272,1.9272,1.9272,1.9272,1.9272,1.9272,1.9272,1.9272,1.9272,1.9272,1.9338,1.9522,1.9617,1.9617,1.9617,1.9564,1.9639,1.974,1.9894,2.0025,2.004,2.0106,2.0132,1.9623,1.9367,1.9603,1.876,1.8482,1.8825,1.8877,1.8877,1.8877,1.9008,1.9081,1.9081,1.9191,1.9272,1.9272,1.9272,2.0181,2.1735,2.1777,2.219,2.366,2.4362,2.502,2.5528,2.5684,2.583,2.6052,2.61,2.6197,2.6448,2.6747,2.689,2.6948,2.7129,2.7272,2.732,2.732,2.732,2.732,2.732,2.732,2.732,2.732,2.732,2.732,2.732,2.732,2.7394,2.7762,2.8631,2.913,3.0441,3.1252,3.1791,3.2338,3.2423,3.1976,3.1851,3.1712,3.1235,3.0771,3.0608,3.0696,3.0495,3.0419,1.6127,1.6399,1.6711,1.7305,1.8115,1.8952,1.9272,1.9272,1.9272,1.9272,1.9272,1.9272,1.9272,1.9272,1.9272,1.9272,1.9272,1.9272,1.9272,1.9272,1.9272,1.9272,1.9272,1.9272,1.9272,1.9272,1.9272,1.9272,1.9272,1.9272,1.9272,1.9272,1.9272,1.9272,1.9272,1.9272,1.9323,1.9478,1.9705,1.9859,1.9894,1.9981,1.9981,1.9923,2.0113,2.0219,2.0362,2.0314,2.0365,2.0431,1.9886,1.9645,1.9842,1.9052,1.8782,1.9206,1.9272,1.9272,1.9272,1.9272,1.9272,1.9272,1.9272,1.9272,1.9272,1.9272,1.9783,2.079,2.0885,2.1438,2.2785,2.3642,2.4501,2.5528,2.5684,2.583,2.6149,2.6197,2.6342,2.664,2.6938,2.6996,2.7034,2.7167,2.732,2.732,2.732,2.732,2.732,2.732,2.732,2.732,2.732,2.732,2.732,2.732,2.732,2.7499,2.7998,2.8724,2.9084,3.0621,3.1857,3.2247,3.2772,3.2938,3.2579,3.2428,3.2252,3.1712,3.1248,3.0984,3.1173,3.1009,3.1022,1.6505,1.7635,1.8684,1.9063,1.922,1.9272,1.9272,1.9272,1.9272,1.9272,1.9272,1.9272,1.9272,1.9272,1.9272,1.9272,1.9272,1.9272,1.9272,1.9272,1.9272,1.9272,1.9272,1.9272,1.9272,1.9272,1.9272,1.9272,1.9272,1.9272,1.9272,1.9272,1.9294,1.9286,1.9301,1.933,1.944,1.9725,1.9852,1.9923,2.0216,2.0508,2.0523,2.0274,2.0245,2.0358,2.0606,2.0698,2.083,2.1137,2.0501,2.0117,2.0142,1.9572,1.922,1.9272,1.9272,1.9272,1.9272,1.9272,1.9272,1.9272,1.9272,1.9272,1.9272,1.9272,1.9732,2.0731,2.0834,2.1684,2.3434,2.3939,2.455,2.5577,2.5732,2.5975,2.641,2.6496,2.6726,2.7119,2.7225,2.7225,2.7262,2.7262,2.7309,2.732,2.732,2.732,2.732,2.732,2.732,2.732,2.732,2.732,2.732,2.732,2.732,2.7499,2.8081,2.9002,3.0,3.0946,3.1881,3.2661,3.2996,3.3169,3.3068,3.2905,3.2679,3.2252,3.1725,3.1537,3.1763,3.1499,3.1512,1.8318,1.8691,1.9116,1.9272,1.9272,1.9272,1.9272,1.9272,1.9272,1.9272,1.9272,1.9272,1.9272,1.9272,1.9272,1.9272,1.9272,1.9272,1.9272,1.9272,1.9272,1.9272,1.9272,1.9272,1.9272,1.9272,1.9272,1.9272,1.9272,1.9272,1.9272,1.9323,1.9544,1.9586,1.9623,1.9791,1.9952,2.0077,2.0259,2.0435,2.0559,2.0867,2.0976,2.0874,2.0859,2.0911,2.1035,2.1042,2.1006,2.0911,2.0472,2.0142,1.9923,1.952,1.9272,1.9272,1.9272,1.9272,1.9272,1.9272,1.9272,1.9272,1.9272,1.9272,1.9272,1.9272,1.9472,1.9931,2.0585,2.1582,2.2785,2.3642,2.4599,2.5664,2.5965,2.6159,2.6602,2.6747,2.689,2.7214,2.732,2.732,2.732,2.732,2.732,2.732,2.732,2.732,2.732,2.732,2.732,2.732,2.732,2.732,2.732,2.732,2.7357,2.7584,2.8081,2.9048,3.0057,3.1298,3.2313,3.3077,3.3407,3.3483,3.3445,3.3282,3.3068,3.2842,3.2315,3.2227,3.2416,3.2143,3.2194,1.9272,1.9272,1.9272,1.9272,1.9272,1.9272,1.9272,1.9272,1.9272,1.9272,1.9272,1.9272,1.9272,1.9272,1.9272,1.9272,1.9272,1.9272,1.9272,1.9272,1.9272,1.9272,1.9272,1.9272,1.9272,1.9272,1.9272,1.9272,1.9272,1.9272,1.9382,1.95,1.972,1.9874,1.993,2.0135,2.0219,2.0358,2.0562,2.0757,2.0889,2.1086,2.1211,2.1211,2.1211,2.1211,2.1211,2.1211,2.1057,2.0735,2.0358,2.0047,1.9698,1.9448,1.9272,1.9272,1.9272,1.9272,1.9272,1.9272,1.9272,1.9272,1.9272,1.9272,1.9272,1.9272,1.9428,1.9879,2.0431,2.1336,2.2417,2.3609,2.4798,2.5839,2.61,2.6342,2.6794,2.689,2.7044,2.7225,2.732,2.732,2.732,2.732,2.732,2.732,2.732,2.732,2.732,2.732,2.732,2.732,2.732,2.732,2.7309,2.7309,2.7367,2.7547,2.8156,2.9104,3.0297,3.1614,3.271,3.3413,3.3721,3.3822,3.3796,3.3646,3.3495,3.3357,3.3144,3.298,3.296,3.2832,3.2844,1.9272,1.9272,1.9272,1.9272,1.9272,1.9272,1.9272,1.9272,1.9272,1.9272,1.9272,1.9272,1.9272,1.9272,1.9272,1.9272,1.9272,1.9272,1.9272,1.9272,1.9272,1.9272,1.9272,1.9272,1.9272,1.9272,1.9272,1.9272,1.9272,1.9368,1.9514,1.9703,1.9867,2.0011,2.0183,2.0311,2.0394,2.0669,2.0772,2.0903,2.1167,2.1203,2.1211,2.1211,2.1211,2.1211,2.1211,2.1211,2.105,2.0706,2.0398,1.9938,1.9418,1.9279,1.9272,1.9272,1.9272,1.9272,1.9272,1.9272,1.9272,1.9272,1.9272,1.9272,1.9272,1.9272,1.9628,2.0336,2.0822,2.1377,2.2494,2.3886,2.5086,2.5908,2.6112,2.655,2.6807,2.69,2.7044,2.7272,2.732,2.732,2.732,2.732,2.732,2.732,2.732,2.732,2.732,2.732,2.732,2.732,2.732,2.732,2.7309,2.7309,2.7367,2.7578,2.8351,2.9236,3.0629,3.1921,3.3193,3.3948,3.4216,3.4349,3.4324,3.4198,3.4135,3.3997,3.3834,3.3652,3.3431,3.3316,3.3389,1.9272,1.9272,1.9272,1.9272,1.9272,1.9272,1.9272,1.9272,1.9272,1.9272,1.9272,1.9272,1.9272,1.9272,1.9272,1.9272,1.9272,1.9272,1.9272,1.9272,1.9272,1.9272,1.9272,1.9272,1.9272,1.9272,1.9272,1.9279,1.933,1.9506,1.9681,1.9867,2.0208,2.0457,2.0574,2.073,2.0976,2.1042,2.1057,2.1115,2.1203,2.1211,2.1211,2.1211,2.1211,2.1211,2.1211,2.1211,2.094,2.0435,2.0234,1.9945,1.9418,1.9272,1.9272,1.9272,1.9272,1.9272,1.9272,1.9272,1.9272,1.9279,1.9279,1.9272,1.9272,1.9286,1.9442,1.9976,2.0641,2.1702,2.2878,2.4193,2.5178,2.5417,2.6486,2.7231,2.7321,2.7239,2.7187,2.7262,2.732,2.732,2.733,2.734,2.7382,2.7361,2.7361,2.7372,2.7351,2.7413,2.732,2.732,2.732,2.7403,2.7471,2.783,2.8332,2.8438,2.8979,2.9999,3.1286,3.2357,3.357,3.4466,3.474,3.4818,3.4793,3.4801,3.4763,3.4625,3.4482,3.4167,3.3847,3.3895,3.4069,1.9507,1.9507,1.9507,1.9507,1.9514,1.9514,1.9434,1.936,1.9403,1.9396,1.9301,1.9272,1.9272,1.9272,1.9272,1.9272,1.9272,1.9272,1.9272,1.9272,1.9272,1.9272,1.9272,1.9272,1.9412,1.95,1.9514,1.952,1.9638,1.9835,2.0003,2.0194,2.053,2.073,2.0896,2.1094,2.1211,2.1211,2.1203,2.1211,2.1211,2.1211,2.1211,2.1211,2.1211,2.1211,2.1211,2.1211,2.0911,2.0318,2.0025,1.9674,1.9308,1.9272,1.9272,1.9272,1.9272,1.9272,1.9272,1.9272,1.9272,1.9286,1.9389,1.9389,1.9345,1.936,1.9507,1.9649,2.0655,2.1824,2.2846,2.4637,2.557,2.5797,2.6967,2.7794,2.7848,2.7847,2.78,2.7821,2.781,2.7686,2.7562,2.7707,2.7655,2.7583,2.7665,2.7759,2.7759,2.779,2.7748,2.7748,2.7862,2.7859,2.7679,2.8317,2.9219,2.9478,2.9783,3.1027,3.2336,3.3113,3.4188,3.5087,3.5592,3.5617,3.5604,3.5542,3.5525,3.5311,3.5138,3.5015,3.4819,3.4785,3.4935,1.9786,1.9815,1.9808,1.9815,1.9837,1.9845,1.9676,1.9448,1.9661,1.961,1.9323,1.9272,1.9272,1.9272,1.9272,1.9272,1.9272,1.9272,1.9272,1.9294,1.9368,1.933,1.9286,1.933,1.9544,1.9742,1.9815,1.9923,2.0066,2.0223,2.0358,2.0577,2.0728,2.0896,2.1123,2.1211,2.1211,2.1211,2.1211,2.1211,2.1211,2.1211,2.1211,2.1211,2.1211,2.1211,2.1211,2.1152,2.0867,2.0259,1.9681,1.9345,1.9279,1.9272,1.9272,1.9272,1.9272,1.9272,1.9272,1.9272,1.9272,1.9294,1.958,1.9698,1.9478,1.9669,1.9837,1.9944,2.0992,2.1949,2.3056,2.4987,2.6467,2.7055,2.7665,2.8127,2.8569,2.8597,2.8452,2.8504,2.8566,2.8452,2.8007,2.8297,2.8266,2.8152,2.8216,2.839,2.8431,2.838,2.8535,2.8504,2.8349,2.8235,2.8046,2.9421,3.0303,3.0839,3.1196,3.2383,3.3314,3.4039,3.4768,3.57,3.6225,3.6267,3.6361,3.6243,3.621,3.6041,3.5971,3.5935,3.5808,3.5679,3.569,1.9595,1.9808,1.9815,1.9894,2.0098,2.0113,1.993,1.9713,1.9771,1.9601,1.933,1.9272,1.9272,1.9272,1.9272,1.9272,1.9279,1.9286,1.9272,1.9316,1.9588,1.9529,1.9426,1.958,1.9735,1.9859,2.0018,2.0157,2.0197,2.0494,2.064,2.0728,2.0962,2.1101,2.1203,2.1211,2.1211,2.1211,2.1211,2.1211,2.1211,2.1211,2.1211,2.1211,2.1211,2.1211,2.1181,2.0969,2.0676,2.019,1.9623,1.9279,1.9279,1.9272,1.9272,1.9272,1.9272,1.9272,1.9272,1.9272,1.9272,1.9308,1.9654,1.9771,1.9713,1.993,2.0192,2.0638,2.1689,2.31,2.4381,2.6087,2.7549,2.8618,2.8704,2.8727,2.8982,2.8825,2.8618,2.8618,2.8659,2.8597,2.8535,2.8566,2.8618,2.8514,2.8587,2.8711,2.8804,2.8783,2.8845,2.868,2.8556,2.8514,2.8908,3.0337,3.1408,3.216,3.29,3.3987,3.4632,3.4996,3.5715,3.653,3.648,3.653,3.6743,3.6866,3.6811,3.6649,3.6703,3.6636,3.6353,3.6225,3.6373,1.9872,2.015,2.0018,2.0142,2.0428,2.0387,2.0179,1.985,1.9901,1.9696,1.936,1.9272,1.9272,1.9272,1.9272,1.9272,1.9338,1.9418,1.9536,1.9542,1.9813,1.985,1.9762,1.9901,2.0025,2.0179,2.0347,2.046,2.0606,2.0845,2.0918,2.0962,2.1115,2.1203,2.1211,2.1211,2.1211,2.1211,2.1211,2.1211,2.1211,2.1211,2.1211,2.1211,2.1211,2.1211,2.1167,2.0896,2.0518,2.0161,1.9762,1.9418,1.9286,1.9272,1.9272,1.9272,1.9272,1.9272,1.9272,1.9272,1.9272,1.9367,1.9681,1.985,1.9933,2.0258,2.0828,2.1705,2.3002,2.4492,2.6088,2.7626,2.8774,2.9513,2.9496,2.9404,2.9591,2.9373,2.9218,2.9187,2.9187,2.9094,2.897,2.9052,2.9052,2.9021,2.9135,2.9218,2.927,2.9187,2.9135,2.9073,2.9042,2.9073,2.9608,3.0943,3.217,3.2905,3.4162,3.5347,3.56,3.5812,3.616,3.6628,3.6675,3.6815,3.7015,3.7214,3.7116,3.7065,3.7201,3.7263,3.7045,3.6826,3.7001,2.0377,2.0647,2.0263,2.0343,2.0669,2.0669,2.0325,1.9945,2.0033,1.9813,1.9367,1.9272,1.9272,1.9272,1.9279,1.9301,1.9412,1.9661,1.9859,1.9945,2.0157,2.0219,2.0347,2.0281,2.0413,2.0618,2.0728,2.0911,2.105,2.1159,2.1189,2.1167,2.1196,2.1211,2.1211,2.1211,2.1211,2.1211,2.1211,2.1211,2.1211,2.1211,2.1211,2.1211,2.1211,2.1211,2.1145,2.094,2.0599,2.0249,1.9959,1.9705,1.9396,1.9374,1.936,1.9403,1.9425,1.9434,1.9403,1.9469,1.9418,1.9542,1.9989,2.0164,2.0269,2.0946,2.1968,2.2891,2.4447,2.6133,2.7714,2.9217,2.9722,2.9931,2.9963,2.9984,2.9994,2.9994,2.9994,2.9994,2.9973,2.9766,2.9642,2.9673,2.9818,2.9435,2.9549,2.9622,2.9663,2.9642,2.9673,2.9725,2.9725,2.9725,3.0498,3.146,3.2609,3.3645,3.5109,3.6144,3.6238,3.6411,3.6543,3.6722,3.6968,3.7108,3.7261,3.7353,3.7353,3.7413,3.7518,3.7657,3.773,3.7541,3.7547,2.0047,2.0263,1.9996,2.0194,2.0633,2.0394,2.0205,2.0113,1.993,1.9713,1.9338,1.9272,1.9272,1.9272,1.9308,1.9411,1.963,1.9837,2.0065,2.0516,2.0567,2.0723,2.0867,2.0742,2.0669,2.073,2.0991,2.113,2.1203,2.1211,2.1211,2.1211,2.1211,2.1211,2.1211,2.1211,2.1211,2.1211,2.1211,2.1211,2.1211,2.1211,2.1211,2.1211,2.1211,2.1211,2.1203,2.1145,2.0947,2.0581,2.0128,1.9872,1.9864,1.9557,1.955,1.9813,1.9769,1.9755,1.9952,1.9974,2.0011,2.0011,2.0303,2.07,2.101,2.2134,2.315,2.4238,2.5928,2.767,2.9134,2.9722,2.9994,2.9994,2.9994,2.9994,2.9994,2.9994,2.9994,2.9994,2.9994,2.9953,2.9839,2.987,2.9922,2.986,2.9891,2.9984,2.9994,2.9994,2.9994,2.9994,3.0266,3.0338,3.0874,3.204,3.3611,3.4523,3.5817,3.6722,3.6815,3.6828,3.6922,3.7074,3.732,3.7459,3.7505,3.7644,3.7703,3.7762,3.7808,3.7854,3.7854,3.79,3.79,2.0172,2.0406,1.9959,2.004,2.0373,2.0256,2.015,2.0011,1.9896,1.9632,1.9323,1.9272,1.9272,1.9294,1.9485,1.9669,1.9867,2.0106,2.0479,2.0867,2.0955,2.105,2.1137,2.1064,2.0955,2.0984,2.1108,2.1203,2.1211,2.1211,2.1211,2.1211,2.1211,2.1211,2.1211,2.1211,2.1211,2.1211,2.1211,2.1211,2.1211,2.1211,2.1211,2.1211,2.1211,2.1211,2.1211,2.1203,2.1115,2.0881,2.0486,2.0194,2.0139,1.9923,1.9945,2.0106,2.0106,2.0047,2.0201,2.0183,2.0168,2.0205,2.0545,2.0836,2.1514,2.2664,2.4044,2.5223,2.6797,2.8552,2.9774,2.9994,2.9994,2.9994,2.9994,2.9994,2.9994,2.9994,2.9994,2.9994,2.9994,2.9994,2.9994,2.9994,2.9984,2.9922,2.9922,2.9994,2.9994,2.9994,2.9994,3.0151,3.0588,3.097,3.137,3.2655,3.4667,3.5604,3.6424,3.6968,3.7168,3.7168,3.7214,3.7366,3.7518,3.7611,3.7716,3.7854,3.79,3.7854,3.7854,3.79,3.79,3.79,3.79,2.0343,2.0596,1.9959,1.9879,2.0128,2.0037,1.9959,1.9845,1.9757,1.9566,1.9316,1.9272,1.9308,1.9463,1.9676,1.983,2.0069,2.0479,2.094,2.1123,2.1152,2.1174,2.1196,2.1181,2.1167,2.1203,2.1203,2.1211,2.1211,2.1211,2.1211,2.1211,2.1211,2.1211,2.1211,2.1211,2.1211,2.1211,2.1211,2.1211,2.1211,2.1211,2.1211,2.1211,2.1211,2.1211,2.1211,2.1211,2.1196,2.1196,2.094,2.0669,2.045,2.0197,2.0278,2.0307,2.0369,2.0329,2.0479,2.0464,2.045,2.0398,2.0633,2.1123,2.1884,2.3349,2.4849,2.6309,2.7785,2.8996,2.9889,2.9994,2.9994,2.9994,2.9994,2.9994,2.9994,2.9994,2.9994,2.9994,2.9994,2.9994,2.9994,2.9994,2.9994,2.9994,2.9994,2.9994,2.9994,2.9994,2.9994,3.0297,3.0744,3.2033,3.2627,3.3178,3.5259,3.6238,3.6968,3.7261,3.7459,3.7505,3.7505,3.7518,3.767,3.7762,3.7808,3.7854,3.79,3.79,3.79,3.79,3.79,3.79,3.79,2.0212,2.0212,1.9623,1.9542,1.9823,1.9557,1.9579,1.9742,1.9477,1.9338,1.9286,1.9279,1.9478,1.9683,1.9771,2.0047,2.0523,2.0918,2.113,2.1203,2.1211,2.1211,2.1211,2.1211,2.1211,2.1211,2.1211,2.1211,2.1211,2.1211,2.1211,2.1211,2.1211,2.1211,2.1211,2.1211,2.1211,2.1211,2.1211,2.1211,2.1211,2.1211,2.1211,2.1211,2.1211,2.1211,2.1211,2.1211,2.1211,2.1203,2.1152,2.1086,2.0911,2.0482,2.0511,2.0808,2.0757,2.0664,2.0896,2.0991,2.1028,2.1064,2.1171,2.1979,2.3167,2.462,2.6082,2.7517,2.8784,2.9774,2.9942,2.9994,2.9994,2.9994,2.9994,2.9994,2.9994,2.9994,2.9994,2.9994,2.9994,2.9994,2.9994,2.9994,2.9994,2.9994,2.9994,2.9994,2.9994,2.9994,2.9994,3.0391,3.0888,3.2538,3.403,3.4569,3.5655,3.6534,3.7214,3.7459,3.7657,3.7795,3.7808,3.7762,3.7762,3.7854,3.79,3.79,3.79,3.79,3.79,3.79,3.79,3.79,3.79,2.0183,2.011,1.9542,1.9419,1.9462,1.9397,1.936,1.9477,1.9338,1.9272,1.9272,1.9294,1.9514,1.9793,1.9959,2.0369,2.0889,2.1115,2.1211,2.1211,2.1211,2.1211,2.1211,2.1211,2.1211,2.1211,2.1211,2.1211,2.1211,2.1211,2.1211,2.1211,2.1211,2.1211,2.1211,2.1211,2.1211,2.1211,2.1211,2.1211,2.1211,2.1211,2.1211,2.1211,2.1211,2.1211,2.1211,2.1211,2.1211,2.1211,2.1203,2.1211,2.1115,2.0998,2.0859,2.1115,2.1057,2.102,2.1174,2.1211,2.1189,2.1303,2.1809,2.2692,2.4022,2.5544,2.7337,2.8721,2.9438,2.9994,2.9994,2.9994,2.9994,2.9994,2.9994,2.9994,2.9994,2.9994,2.9994,2.9994,2.9994,2.9994,2.9994,2.9994,2.9994,2.9994,2.9994,2.9994,2.9994,2.9994,2.9994,3.0847,3.1586,3.3377,3.4921,3.5655,3.6001,3.6828,3.7413,3.7657,3.7808,3.7854,3.79,3.7854,3.79,3.79,3.79,3.79,3.79,3.79,3.79,3.79,3.79,3.79,3.7874,2.0183,2.0124,1.9542,1.9272,1.9272,1.9272,1.9279,1.9272,1.9279,1.9272,1.9286,1.9367,1.9572,1.9901,2.0289,2.0735,2.1203,2.1211,2.1211,2.1211,2.1211,2.1211,2.1211,2.1196,2.1167,2.1064,2.1196,2.1203,2.1211,2.1211,2.1211,2.1211,2.1211,2.1211,2.1211,2.1211,2.1211,2.1211,2.1211,2.1211,2.1211,2.1211,2.1211,2.1211,2.1211,2.1211,2.1211,2.1211,2.1211,2.1211,2.1211,2.1211,2.1211,2.1211,2.1203,2.1211,2.1211,2.1211,2.1211,2.1211,2.1268,2.1382,2.2628,2.3511,2.4837,2.6698,2.8721,2.9722,2.9994,2.9994,2.9994,2.9994,2.9994,2.9994,2.9994,2.9994,2.9994,2.9994,2.9994,2.9994,2.9994,2.9994,2.9994,2.9994,2.9994,2.9994,2.9994,2.9994,2.9994,2.9994,3.0245,3.1351,3.2488,3.4276,3.5655,3.6534,3.6781,3.7062,3.7505,3.7795,3.7854,3.79,3.79,3.79,3.79,3.79,3.79,3.79,3.79,3.79,3.79,3.79,3.79,3.7848,3.7795,2.0183,2.0124,1.9542,1.9272,1.9272,1.9272,1.9272,1.9272,1.9272,1.9272,1.9294,1.9632,1.9857,2.0252,2.0794,2.1094,2.1189,2.1211,2.1211,2.1211,2.1211,2.1211,2.1203,2.1211,2.102,2.0896,2.105,2.1196,2.1145,2.1145,2.1211,2.1211,2.1211,2.1211,2.1211,2.1211,2.1211,2.1211,2.1211,2.1211,2.1211,2.1211,2.1211,2.1211,2.1211,2.1211,2.1211,2.1211,2.1211,2.1211,2.1211,2.1211,2.1211,2.1211,2.1211,2.1211,2.1211,2.1211,2.1211,2.1211,2.1489,2.1873,2.2902,2.4156,2.6027,2.7902,2.9606,2.9889,2.9994,2.9994,2.9994,2.9994,2.9994,2.9994,2.9994,2.9994,2.9994,2.9994,2.9994,2.9994,2.9994,2.9994,2.9994,2.9994,2.9994,2.9994,2.9994,2.9994,3.0099,3.0193,3.1187,3.2426,3.3289,3.4921,3.6048,3.7028,3.7261,3.7366,3.7657,3.79,3.79,3.79,3.79,3.79,3.79,3.79,3.79,3.79,3.79,3.79,3.79,3.79,3.79,3.7808,3.7625,2.0069,2.0124,1.9542,1.9272,1.9272,1.9272,1.9272,1.9272,1.9272,1.9272,1.9338,1.9676,2.0033,2.0545,2.102,2.1196,2.1211,2.1211,2.1211,2.1203,2.1203,2.1196,2.1152,2.1028,2.0815,2.0728,2.0669,2.0603,2.0742,2.1028,2.1203,2.1181,2.1203,2.1211,2.1181,2.1203,2.1211,2.1211,2.1211,2.1211,2.1211,2.1211,2.1211,2.1211,2.1211,2.1211,2.1211,2.1211,2.1211,2.1211,2.1211,2.1211,2.1211,2.1211,2.1211,2.1211,2.1211,2.1211,2.1211,2.1261,2.1816,2.2797,2.3997,2.5745,2.7785,2.9164,2.9994,2.9994,2.9994,2.9994,2.9994,2.9994,2.9994,2.9994,2.9994,2.9994,2.9994,2.9994,2.9994,2.9994,2.9994,2.9994,2.9994,2.9994,2.9994,2.9994,3.0047,3.0047,3.0349,3.0744,3.2123,3.3958,3.4666,3.5463,3.6392,3.7261,3.7366,3.7505,3.7703,3.79,3.79,3.79,3.79,3.79,3.79,3.79,3.79,3.79,3.79,3.79,3.79,3.79,3.7848,3.7403,3.7135,1.9901,2.0055,1.9506,1.9272,1.9272,1.9272,1.9272,1.9272,1.9272,1.9323,1.9551,1.9896,2.034,2.0779,2.1086,2.1211,2.1211,2.1211,2.1211,2.1196,2.113,2.1072,2.0955,2.0772,2.0552,2.0501,2.0336,2.0259,2.0333,2.0596,2.0903,2.0976,2.0998,2.105,2.1101,2.1159,2.1211,2.1211,2.1211,2.1211,2.1211,2.1211,2.1211,2.1211,2.1211,2.1211,2.1211,2.1211,2.1211,2.1211,2.1211,2.1211,2.1211,2.1211,2.1211,2.1318,2.1531,2.1979,2.1972,2.2085,2.2628,2.3941,2.5417,2.7229,2.9217,2.9994,2.9994,2.9994,2.9994,2.9994,2.9994,2.9994,2.9994,2.9994,2.9994,2.9994,2.9994,2.9994,2.9994,2.9994,2.9994,2.9994,2.9994,2.9994,2.9994,2.9994,3.0047,3.0151,3.0744,3.1432,3.2917,3.4788,3.5738,3.625,3.6781,3.7413,3.7505,3.7598,3.7795,3.79,3.79,3.79,3.79,3.79,3.79,3.79,3.79,3.79,3.79,3.79,3.79,3.79,3.7743,3.7233,3.6637,1.983,1.9815,1.9425,1.9272,1.9272,1.9272,1.9272,1.9286,1.9286,1.9536,1.9842,2.0333,2.0772,2.1094,2.1159,2.1211,2.1211,2.1211,2.1167,2.1072,2.0933,2.0779,2.0647,2.0428,2.015,1.9989,1.9989,1.9959,1.993,2.0091,2.0281,2.0285,2.0669,2.0686,2.0825,2.1079,2.1196,2.1211,2.1211,2.1211,2.1211,2.1211,2.1211,2.1211,2.1211,2.1211,2.1211,2.1211,2.1211,2.1211,2.1211,2.1211,2.1211,2.1211,2.1211,2.1695,2.241,2.3015,2.3447,2.3503,2.4156,2.5645,2.7121,2.8445,2.9774,2.9994,2.9994,2.9994,2.9994,2.9994,2.9994,2.9994,2.9994,2.9994,2.9994,2.9994,2.9994,2.9994,2.9994,2.9994,2.9994,2.9994,2.9994,2.9994,2.9994,2.9994,3.0547,3.0692,3.1779,3.2627,3.3761,3.5234,3.6521,3.7121,3.732,3.7611,3.7703,3.7749,3.7854,3.79,3.79,3.79,3.79,3.79,3.79,3.79,3.79,3.79,3.79,3.79,3.7874,3.7782,3.7403,3.6841,3.6249,1.9462,1.9447,1.9375,1.9272,1.9272,1.9272,1.9272,1.9316,1.9544,1.9879,2.0355,2.0625,2.0903,2.113,2.1211,2.1211,2.1174,2.0984,2.094,2.0801,2.0611,2.045,2.0311,2.0135,1.9886,1.9808,1.9725,1.9623,1.9558,1.9659,1.963,1.9828,2.034,2.0591,2.0774,2.0984,2.1159,2.1211,2.1211,2.1211,2.1211,2.1211,2.1211,2.1211,2.1211,2.1211,2.1211,2.1211,2.1211,2.1211,2.1211,2.1211,2.1261,2.1261,2.1702,2.2353,2.3279,2.4322,2.5472,2.5362,2.5526,2.6959,2.8392,2.9501,2.9994,2.9994,2.9994,2.9994,2.9994,2.9994,2.9994,2.9994,2.9994,2.9994,2.9994,2.9994,2.9994,2.9994,2.9994,2.9994,2.9994,2.9994,2.9994,2.9994,2.9994,3.0047,3.0692,3.1443,3.2627,3.3662,3.48,3.5786,3.6968,3.7505,3.7657,3.7808,3.79,3.79,3.79,3.79,3.79,3.79,3.79,3.79,3.79,3.79,3.79,3.79,3.79,3.79,3.7743,3.756,3.7063,3.6493,3.6059,1.9272,1.9272,1.9272,1.9272,1.9272,1.9272,1.9272,1.933,1.9669,2.0128,2.072,2.0823,2.0984,2.1167,2.1211,2.1115,2.102,2.0845,2.0684,2.0494,2.0274,2.012,1.9989,1.9813,1.9654,1.961,1.9492,1.9294,1.936,1.9279,1.933,1.9579,1.9996,2.0311,2.0494,2.0845,2.1101,2.1189,2.1211,2.1211,2.1211,2.1211,2.1211,2.1211,2.1211,2.1211,2.1211,2.1211,2.1211,2.1211,2.1211,2.1211,2.1375,2.1702,2.241,2.3279,2.4425,2.5745,2.6851,2.7615,2.7337,2.8499,2.9217,2.9827,2.9994,2.9994,2.9994,2.9994,2.9994,2.9994,2.9994,2.9994,2.9994,2.9994,2.9994,2.9994,2.9994,2.9994,2.9994,2.9994,2.9994,2.9994,3.0245,3.0339,3.0744,3.0744,3.0991,3.2134,3.3723,3.4751,3.5582,3.6521,3.7413,3.7703,3.7854,3.79,3.79,3.79,3.79,3.79,3.79,3.79,3.79,3.79,3.79,3.79,3.79,3.79,3.79,3.79,3.7639,3.7312,3.6823,3.6292,3.6127,1.9272,1.9272,1.9272,1.9331,1.9308,1.9286,1.9301,1.9381,1.9764,2.0194,2.0772,2.1042,2.1159,2.1196,2.1174,2.1013,2.0808,2.0684,2.0501,2.0208,1.9923,1.9791,1.9727,1.9558,1.9441,1.9308,1.9272,1.9272,1.9272,1.9272,1.9272,1.9338,1.9713,1.9938,1.9879,2.0428,2.0881,2.1167,2.1203,2.1211,2.1211,2.1211,2.1211,2.1211,2.1211,2.1211,2.1211,2.1211,2.1211,2.1211,2.1211,2.1318,2.1539,2.2515,2.3279,2.3886,2.6127,2.7391,2.7892,2.9102,2.9501,2.9554,2.9879,2.9942,2.9994,2.9994,2.9994,2.9994,2.9994,2.9994,2.9994,2.9994,2.9994,2.9994,2.9994,2.9994,2.9994,2.9994,2.9994,2.9994,2.9994,3.0047,3.0391,3.0733,3.133,3.1575,3.1575,3.2728,3.4569,3.5642,3.638,3.6968,3.7703,3.7795,3.79,3.79,3.79,3.79,3.79,3.79,3.79,3.79,3.79,3.79,3.79,3.79,3.79,3.79,3.79,3.7848,3.7377,3.6978,3.6529,3.6266,3.6249,1.9272,1.9272,1.9272,1.9456,1.9632,1.9601,1.9654,1.9696,2.0164,2.064,2.0991,2.1181,2.1211,2.1159,2.0984,2.0815,2.0669,2.0172,1.9967,1.9901,1.9661,1.9477,1.9396,1.936,1.9272,1.9272,1.9272,1.9272,1.9272,1.9272,1.9272,1.933,1.95,1.9806,2.0274,2.0691,2.0881,2.1152,2.1211,2.1211,2.1203,2.1211,2.1211,2.1211,2.1211,2.1211,2.1211,2.1211,2.1211,2.1211,2.1211,2.1539,2.2142,2.3287,2.4275,2.5434,2.758,2.8223,2.8943,2.9827,2.9942,2.9994,2.9994,2.9994,2.9994,2.9994,2.9994,2.9994,2.9994,2.9994,2.9994,2.9994,2.9994,2.9994,2.9994,2.9994,2.9994,2.9994,2.9994,2.9994,2.9994,3.0099,3.0349,3.1381,3.2072,3.3017,3.3216,3.3761,3.5355,3.6238,3.7015,3.7366,3.7854,3.7854,3.79,3.79,3.79,3.79,3.79,3.79,3.79,3.79,3.79,3.79,3.79,3.79,3.79,3.79,3.79,3.7743,3.7387,3.7047,3.6674,3.6642,3.6797,1.9272,1.9272,1.9272,1.9462,1.9786,1.9815,1.9925,2.0128,2.0552,2.0903,2.1152,2.1203,2.1123,2.1006,2.0837,2.0508,2.0377,2.0003,1.9645,1.9647,1.9448,1.9323,1.9294,1.9272,1.9272,1.9272,1.9272,1.9272,1.9272,1.9272,1.9272,1.9272,1.9286,1.9674,2.0142,2.0355,2.0574,2.0845,2.1006,2.1079,2.1152,2.1211,2.1211,2.1211,2.1211,2.1211,2.1211,2.1211,2.1211,2.1211,2.1432,2.1873,2.2854,2.4053,2.5206,2.6915,2.8349,2.9006,2.9722,2.9942,2.9994,2.9994,2.9994,2.9994,2.9994,2.9994,2.9994,2.9994,2.9994,2.9994,2.9994,2.9994,2.9994,2.9994,2.9994,2.9994,2.9994,2.9994,2.9994,2.9994,3.0141,3.0193,3.064,3.183,3.2917,3.3958,3.4957,3.5547,3.5988,3.6675,3.7353,3.7657,3.7913,3.79,3.79,3.79,3.79,3.79,3.79,3.79,3.79,3.79,3.79,3.79,3.79,3.79,3.79,3.7887,3.8004,3.7889,3.7555,3.722,3.6846,3.7002,3.731,1.9272,1.9272,1.9338,1.9491,1.9815,1.994,2.0208,2.0706,2.0742,2.094,2.1211,2.1181,2.102,2.0772,2.0691,2.0347,1.9969,1.9815,1.9557,1.9389,1.9294,1.9272,1.9272,1.9272,1.9272,1.9272,1.9272,1.9272,1.9272,1.9272,1.9272,1.9272,1.9272,1.9572,1.9852,2.0035,2.0267,2.0655,2.0925,2.1035,2.1167,2.1211,2.1211,2.1211,2.1211,2.1211,2.1211,2.1211,2.1211,2.1268,2.1432,2.2305,2.3447,2.4867,2.6354,2.7785,2.928,2.9722,2.9942,2.9994,2.9994,2.9994,2.9994,2.9994,2.9994,2.9994,2.9994,2.9994,2.9994,2.9994,2.9994,2.9994,2.9994,2.9994,2.9994,2.9994,2.9994,2.9994,2.9994,3.0099,3.0287,3.064,3.1483,3.2516,3.3897,3.4788,3.5786,3.6474,3.6922,3.6968,3.7505,3.7749,3.79,3.79,3.79,3.79,3.79,3.79,3.79,3.79,3.79,3.79,3.79,3.79,3.79,3.79,3.79,3.8024,3.8209,3.8051,3.8103,3.7963,3.7796,3.7709,3.7968,1.9272,1.9301,1.9528,1.9806,2.0142,2.0589,2.0911,2.1064,2.1072,2.1137,2.1189,2.0962,2.0815,2.0691,2.0252,1.9959,1.9786,1.9595,1.9456,1.9301,1.9272,1.9272,1.9272,1.9272,1.9272,1.9272,1.9272,1.9272,1.9272,1.9272,1.9272,1.9272,1.9272,1.9529,1.9705,1.9823,2.0208,2.0596,2.0881,2.1057,2.1159,2.1211,2.1211,2.1211,2.1211,2.1211,2.1211,2.1211,2.1325,2.1603,2.2361,2.3391,2.4625,2.6254,2.7839,2.9164,2.9827,2.9994,2.9994,2.9994,2.9994,2.9994,2.9994,2.9994,2.9994,2.9994,2.9994,2.9994,2.9994,2.9994,2.9994,2.9994,2.9994,2.9994,2.9994,2.9994,2.9994,2.9994,3.0047,3.0391,3.0588,3.1483,3.2325,3.3688,3.4969,3.5761,3.6508,3.7214,3.7611,3.7564,3.7611,3.7854,3.79,3.79,3.79,3.79,3.79,3.79,3.79,3.79,3.79,3.79,3.79,3.79,3.79,3.79,3.79,3.8147,3.8613,3.8997,3.9115,3.8916,3.8782,3.8625,3.8545,1.9352,1.9491,1.9735,2.0018,2.0424,2.0984,2.1211,2.1211,2.1211,2.1211,2.1174,2.0874,2.0647,2.045,2.0025,1.9757,1.9542,1.9403,1.9286,1.9286,1.9272,1.9272,1.9272,1.9272,1.9272,1.9272,1.9272,1.9272,1.9272,1.9272,1.9272,1.9272,1.9272,1.9477,1.9757,1.9923,2.0245,2.0603,2.0889,2.1064,2.1159,2.1211,2.1211,2.1211,2.1211,2.1211,2.1211,2.1211,2.1596,2.2207,2.3223,2.4378,2.5882,2.7785,2.8774,2.9879,2.9942,2.9994,2.9994,2.9994,2.9994,2.9994,2.9994,2.9994,2.9994,2.9994,2.9994,2.9994,2.9994,2.9994,2.9994,2.9994,2.9994,2.9994,2.9994,2.9994,2.9994,2.9994,3.0297,3.0744,3.1443,3.2325,3.3453,3.4872,3.5951,3.6602,3.7049,3.7459,3.7762,3.7762,3.7762,3.7867,3.79,3.79,3.79,3.79,3.79,3.79,3.79,3.79,3.79,3.79,3.79,3.79,3.79,3.8024,3.8258,3.876,3.9203,3.9686,4.0066,3.9851,3.9586,3.9266,3.9254,1.9491,1.9808,1.9874,2.023,2.0764,2.1094,2.1211,2.1211,2.1211,2.1211,2.1145,2.0823,2.0446,2.0259,1.985,1.9595,1.9411,1.9294,1.9272,1.9272,1.9272,1.9272,1.9272,1.9272,1.9272,1.9272,1.9272,1.9272,1.9272,1.9272,1.9272,1.9272,1.9272,1.9477,1.985,1.9959,2.0289,2.0779,2.0852,2.0918,2.1137,2.1211,2.1211,2.1211,2.1211,2.1211,2.1261,2.1539,2.1972,2.2894,2.41,2.5371,2.74,2.888,2.9659,2.9942,2.9994,2.9994,2.9994,2.9994,2.9994,2.9994,2.9994,2.9994,2.9994,2.9994,2.9994,2.9994,2.9994,2.9994,2.9994,2.9994,2.9994,2.9994,2.9994,2.9994,2.9994,3.0099,3.0443,3.1043,3.2112,3.3055,3.4399,3.5726,3.6649,3.7307,3.7598,3.7854,3.7854,3.7854,3.7854,3.7913,3.79,3.79,3.79,3.79,3.79,3.79,3.79,3.79,3.79,3.79,3.79,3.7979,3.8103,3.8504,3.8881,3.9519,4.0204,4.0871,4.1042,4.0774,4.0408,3.9921,3.9569,1.9742,1.9867,2.0289,2.0735,2.1072,2.1174,2.1211,2.1211,2.1211,2.1196,2.1101,2.0584,2.0256,2.015,1.9652,1.9352,1.9308,1.9272,1.9272,1.9272,1.9272,1.9272,1.9272,1.9272,1.9272,1.9272,1.9272,1.9272,1.9272,1.9272,1.9272,1.9272,1.9294,1.9513,1.9981,2.0047,2.0281,2.0896,2.0896,2.0933,2.1159,2.1211,2.1211,2.1211,2.1211,2.1261,2.1482,2.215,2.2644,2.3472,2.5562,2.7365,2.9333,2.9606,2.9774,2.9942,2.9994,2.9994,2.9994,2.9994,2.9994,2.9994,2.9994,2.9994,2.9994,2.9994,2.9994,2.9994,2.9994,2.9994,2.9994,2.9994,2.9994,2.9994,2.9994,2.9994,3.0047,3.0349,3.0599,3.1677,3.2794,3.3983,3.533,3.6367,3.7261,3.7703,3.7749,3.79,3.79,3.79,3.79,3.79,3.79,3.79,3.79,3.79,3.79,3.79,3.79,3.79,3.79,3.79,3.7946,3.8148,3.8395,3.8881,3.9607,4.0689,4.1392,4.1925,4.163,4.1151,4.0762,4.0314,3.9835,1.993,2.0237,2.0728,2.1042,2.1189,2.1211,2.1211,2.1181,2.1057,2.0991,2.0925,2.0479,2.0164,2.0003,1.9491,1.9272,1.9272,1.9272,1.9272,1.9272,1.9272,1.9272,1.9272,1.9272,1.9272,1.9272,1.9272,1.9272,1.9272,1.9272,1.9272,1.9272,1.9316,1.952,1.9989,2.0011,2.0274,2.0933,2.0911,2.1035,2.1203,2.1211,2.1211,2.1211,2.1211,2.1375,2.2093,2.2869,2.3807,2.5177,2.7375,2.8518,2.9669,2.9827,2.9889,2.9942,2.9994,2.9994,2.9994,2.9994,2.9994,2.9994,2.9994,2.9994,2.9994,2.9994,2.9994,2.9994,2.9994,2.9994,2.9994,2.9994,2.9994,2.9994,3.0099,3.0141,3.0536,3.0981,3.1931,3.3277,3.424,3.5017,3.6178,3.6968,3.7703,3.7795,3.79,3.79,3.79,3.79,3.79,3.79,3.79,3.79,3.79,3.79,3.79,3.79,3.79,3.79,3.79,3.79,3.7979,3.8226,3.8684,3.9312,4.0159,4.1296,4.2099,4.2585,4.2075,4.1361,4.1003,4.0581,4.0031,2.0201,2.0801,2.1086,2.1203,2.1211,2.1211,2.1211,2.1159,2.0874,2.0698,2.0618,2.0249,2.0011,1.974,1.9485,1.9338,1.9272,1.9272,1.9272,1.9272,1.9272,1.9272,1.9272,1.9272,1.9272,1.9272,1.9272,1.9272,1.9272,1.9272,1.9272,1.9272,1.9345,1.9462,1.9791,2.0047,2.0369,2.0801,2.0976,2.1115,2.1181,2.1211,2.1211,2.1211,2.1318,2.1873,2.2644,2.364,2.4901,2.6662,2.8572,2.9448,2.9889,2.9942,2.9942,2.9994,2.9994,2.9994,2.9994,2.9994,2.9994,2.9994,2.9994,2.9994,2.9994,2.9994,2.9994,2.9994,2.9994,2.9994,2.9994,2.9994,2.9994,2.9994,3.0141,3.0443,3.1032,3.1626,3.2978,3.4422,3.5295,3.6011,3.6756,3.7551,3.7808,3.79,3.79,3.79,3.79,3.79,3.79,3.79,3.79,3.79,3.79,3.79,3.79,3.79,3.79,3.79,3.79,3.79,3.807,3.8395,3.8895,3.9782,4.0675,4.1769,4.2482,4.309,4.2258,4.1535,4.1242,4.0812,4.0166,2.0523,2.1123,2.1189,2.1211,2.1211,2.1211,2.1211,2.1159,2.0859,2.0589,2.0311,2.0018,1.9845,1.9793,1.9478,1.9286,1.9272,1.9272,1.9272,1.9272,1.9272,1.9272,1.9272,1.9272,1.9272,1.9272,1.9272,1.9272,1.9272,1.9272,1.9272,1.9272,1.9272,1.9528,2.0011,2.0194,2.0281,2.0742,2.0933,2.0998,2.1181,2.1211,2.1211,2.1211,2.1211,2.2135,2.3119,2.4292,2.568,2.7276,2.8804,2.9617,2.9942,2.9994,2.9994,2.9994,2.9994,2.9994,2.9994,2.9994,2.9994,2.9994,2.9994,2.9994,2.9994,2.9994,2.9994,2.9994,2.9994,2.9994,2.9994,2.9994,2.9994,2.9994,3.0099,3.0744,3.1432,3.2072,3.3066,3.4447,3.5665,3.6414,3.7155,3.7657,3.7854,3.79,3.79,3.79,3.79,3.79,3.79,3.79,3.79,3.79,3.79,3.79,3.79,3.79,3.79,3.79,3.79,3.79,3.8103,3.8594,3.9533,4.0518,4.1421,4.2155,4.2699,4.3101,4.2278,4.1633,4.1384,4.1064,4.0451]}]]